GFSCGP_sfc_temp_000.txt.gz
Temp
62 55 52 57 61 62 61 58 57 61 65 57 59 61 62 67 67 63 67 66 67 69 71 73 72 71 71 72 73 75 75 74 73 70 68 66 67 66 67 70 72 72 72 72
58 52 62 66 66 61 60 56 56 60 65 57 59 59 63 64 64 64 65 64 65 66 68 69 69 67 67 67 68 69 73 74 73 71 70 69 69 70 71 71 72 73 72 72
54 59 67 65 60 59 57 54 54 54 60 61 56 54 58 63 66 66 66 66 66 65 65 66 66 65 63 63 63 67 68 70 73 72 70 68 68 67 66 68 68 69 71 71
58 63 63 60 59 60 53 60 59 58 53 46 57 42 53 60 61 63 61 61 62 63 65 65 65 63 62 62 63 65 68 69 72 71 69 67 65 63 66 67 68 68 69 71
53 57 58 57 61 61 55 60 56 56 51 49 52 45 51 59 57 59 60 61 62 63 64 64 64 65 64 62 62 63 66 68 69 68 67 65 65 66 66 67 67 67 68 71
58 64 62 61 63 61 61 57 56 53 49 41 47 47 47 55 58 59 61 62 64 64 64 64 65 65 62 61 62 62 64 65 66 66 66 65 63 63 63 63 64 65 66 67
55 57 59 62 56 58 56 49 41 38 38 40 50 45 50 60 63 62 61 61 62 63 62 62 61 61 61 60 61 64 63 63 64 64 64 64 64 63 62 63 63 64 64 65
47 44 56 61 56 54 53 49 42 35 38 42 49 42 52 63 65 64 65 63 63 62 62 61 61 60 60 61 61 62 63 62 63 63 63 63 63 62 63 63 64 64 65 65
50 47 57 59 59 57 52 47 51 47 44 40 47 52 58 63 61 61 62 63 60 61 61 60 60 60 60 60 61 61 62 62 63 63 62 62 63 62 61 62 62 62 63 68
55 45 55 56 58 56 51 56 45 46 35 32 44 44 48 54 56 60 60 59 60 62 61 60 60 60 60 60 61 62 62 62 62 62 62 63 62 63 63 62 62 62 63 63
56 52 47 52 50 50 50 49 50 48 46 37 36 43 55 57 60 60 59 61 60 59 59 59 60 61 61 61 61 61 61 62 61 61 61 60 61 62 62 62 63 63 63 63
53 51 44 46 52 55 52 51 53 42 41 43 39 41 59 58 59 60 60 61 59 59 59 60 60 60 60 60 61 60 60 60 60 60 60 59 60 59 58 59 60 61 61 63
55 50 42 40 46 50 47 52 52 51 48 41 38 42 58 58 58 60 59 58 58 59 58 60 59 59 60 60 59 59 58 58 59 59 58 57 57 56 56 57 59 61 60 61
55 50 46 41 45 50 45 49 51 48 41 42 45 48 56 58 57 59 58 58 58 59 59 57 56 56 57 58 57 57 57 57 57 57 55 55 55 55 56 57 58 58 59 59
54 47 49 50 51 50 50 50 51 47 49 42 50 51 57 59 61 63 58 58 58 57 57 56 55 55 55 54 54 54 54 55 56 55 54 54 54 55 55 55 56 57 57 58
52 44 46 43 51 50 47 51 51 51 52 51 52 51 62 63 54 55 53 57 57 56 56 56 56 54 52 50 52 53 52 53 54 52 53 54 54 54 53 53 54 55 55 56
49 46 43 38 47 45 41 48 49 50 53 51 46 54 59 55 56 55 55 54 56 54 54 54 51 50 50 50 51 49 50 52 52 51 52 52 52 51 51 52 52 52 52 53
47 45 43 37 40 29 49 55 56 51 55 55 55 56 56 53 54 55 56 52 54 53 51 50 49 48 48 49 49 48 49 49 49 49 49 49 49 49 50 50 50 50 51 51
50 45 39 34 36 44 49 53 51 47 48 55 53 55 54 53 50 50 55 54 50 49 49 48 47 47 47 47 47 46 45 45 46 46 46 47 47 47 47 47 47 48 49 49
48 47 40 29 29 30 46 52 56 53 39 52 54 54 51 49 40 43 51 52 50 51 50 46 46 46 45 45 44 43 42 42 42 44 45 46 46 46 45 45 46 47 48 49
38 38 35 36 33 40 53 53 55 37 41 51 52 53 51 46 48 49 52 50 49 47 46 47 47 43 42 43 42 40 40 39 42 44 44 44 45 44 45 45 45 45 46 47
39 35 34 37 33 29 54 52 44 50 52 52 52 52 50 51 53 50 48 47 46 45 46 46 42 41 42 44 41 38 37 42 43 43 42 42 43 44 45 42 43 43 43 43
37 45 41 42 40 52 53 51 55 55 53 52 52 54 54 53 51 49 46 44 45 44 42 43 41 41 42 43 40 37 39 41 41 40 40 40 41 41 42 40 40 40 41 41
45 52 44 45 48 50 55 58 51 51 49 51 50 50 50 48 48 46 44 43 43 42 40 41 39 38 38 40 40 38 39 40 39 37 37 38 38 39 39 40 40 39 39 39
45 47 44 44 50 52 54 53 50 47 46 45 47 48 47 46 41 40 40 41 40 41 39 39 37 36 36 36 36 37 39 39 37 37 37 37 37 37 37 38 38 38 40 41
46 44 40 41 49 49 49 51 46 46 46 46 44 39 40 40 39 40 40 41 40 38 37 36 35 34 34 35 35 37 38 37 35 35 35 35 35 35 35 35 36 41 42 42

GFSCGP_sfc_temp_003.txt.gz
Temp
56 48 47 50 51 53 52 49 49 53 60 57 55 55 59 63 61 59 57 59 60 63 63 65 64 62 62 62 63 64 68 68 70 63 64 63 67 62 63 64 66 66 66 66
52 48 54 58 58 55 53 50 49 55 61 56 53 55 58 60 59 58 59 58 59 61 63 63 62 60 60 60 60 63 65 66 67 67 66 65 63 63 65 65 66 66 66 66
49 53 60 60 55 55 53 47 48 50 56 55 50 50 53 58 59 59 60 60 60 60 60 59 59 58 58 59 59 63 64 65 66 67 66 65 64 63 62 62 63 66 67 68
55 60 58 55 55 55 47 56 56 54 48 42 51 39 47 54 55 56 54 56 57 58 58 59 60 59 58 58 59 62 63 64 67 65 64 63 61 61 62 63 64 65 66 68
52 54 54 53 56 58 53 57 54 52 45 41 46 42 47 52 51 53 54 55 57 57 58 59 59 60 59 58 58 59 62 63 63 63 62 60 59 60 61 62 62 63 64 65
53 59 57 57 58 59 59 52 51 47 45 37 44 44 43 50 52 53 54 56 59 58 58 59 59 60 59 57 58 59 60 61 61 61 61 60 59 59 59 59 59 60 62 63
51 51 54 59 54 54 53 45 37 35 34 36 46 43 46 56 58 59 56 56 57 58 57 57 57 57 57 57 57 60 59 59 60 60 60 59 59 58 58 58 58 58 59 60
40 40 52 57 53 50 48 47 38 33 34 39 46 40 50 59 60 59 59 58 57 57 56 57 56 56 56 57 57 58 59 59 60 59 59 59 59 58 58 58 58 58 58 59
45 42 54 57 57 54 49 45 50 43 40 37 42 46 55 55 54 56 56 56 56 56 56 57 56 56 56 57 58 58 59 59 59 59 58 58 58 58 58 57 57 57 59 64
50 41 52 53 55 53 49 52 44 42 34 31 38 40 44 48 51 54 54 53 55 56 56 56 56 57 58 57 57 57 57 57 57 57 57 58 57 57 57 57 56 57 60 60
52 48 44 51 48 47 48 46 46 45 41 35 32 39 51 53 54 54 54 55 55 55 55 55 56 57 57 57 55 55 55 56 57 57 57 56 56 56 57 57 57 58 59 59
52 47 40 43 49 52 49 49 48 40 38 38 36 40 54 52 54 55 56 57 54 55 55 56 57 56 54 54 54 54 55 55 54 55 54 54 54 54 54 55 56 58 57 58
52 46 37 40 46 48 45 48 49 47 43 39 36 40 54 48 53 55 53 54 55 55 55 54 53 53 52 52 52 52 53 53 54 54 53 53 53 53 52 53 55 56 57 57
54 49 44 39 41 46 43 47 48 46 38 39 41 44 50 51 53 54 55 53 52 54 55 52 51 50 49 50 50 50 50 51 52 52 51 51 51 52 52 53 54 54 55 55
51 44 45 47 49 49 49 48 48 45 45 41 46 48 54 51 52 53 54 53 52 52 51 51 49 46 46 48 48 49 49 50 50 49 49 49 49 50 51 51 51 52 53 53
50 43 45 42 48 48 46 48 47 48 48 45 47 48 57 57 53 53 51 52 52 51 51 49 48 45 45 44 46 47 46 47 48 47 47 48 48 48 48 48 49 50 50 50
46 43 40 36 43 44 41 46 46 45 47 48 42 50 53 52 54 52 51 52 51 49 48 47 45 45 45 45 45 43 44 45 45 45 46 46 46 46 46 47 47 47 47 48
44 42 40 34 37 29 46 50 52 48 50 50 50 52 52 52 50 51 51 49 47 47 46 45 43 43 44 44 43 43 44 43 43 43 43 44 44 44 45 45 44 44 45 45
46 41 36 32 32 39 46 47 47 45 46 48 47 50 49 49 47 43 48 48 46 45 44 44 45 44 43 43 43 42 41 40 41 40 41 42 42 42 42 42 42 43 44 44
45 42 38 25 26 28 42 48 52 50 38 49 49 48 48 47 42 43 46 47 48 48 47 45 44 45 44 43 40 39 38 37 37 39 40 41 41 41 40 40 41 42 42 43
35 35 32 32 30 36 47 51 51 36 39 51 51 50 48 45 46 45 46 47 45 45 45 46 44 41 39 40 38 37 36 35 38 39 40 40 40 39 40 40 40 40 40 41
36 31 32 33 29 27 49 48 42 46 47 48 48 51 52 50 48 47 45 43 43 43 42 43 41 38 39 39 37 35 33 37 37 37 38 38 38 39 41 38 38 38 38 37
37 41 37 38 37 48 49 48 48 49 47 44 45 47 49 48 48 46 43 43 43 42 43 42 37 37 39 38 36 33 34 36 36 35 35 36 37 37 38 36 36 36 36 35
40 46 40 42 44 44 47 46 47 48 46 46 46 46 49 48 47 44 44 41 42 42 40 39 38 37 37 38 36 34 35 36 35 34 34 35 35 36 36 36 36 35 34 34
41 41 40 40 46 46 47 46 46 45 45 44 43 43 43 42 39 38 38 40 41 40 40 39 36 34 35 34 33 35 36 34 33 33 34 34 34 34 34 35 34 34 36 37
41 41 36 35 44 43 44 47 45 44 44 44 42 38 37 37 37 39 40 40 40 38 37 35 35 34 33 32 32 34 34 33 32 33 33 33 34 33 33 32 33 38 39 39

GFSCGP_sfc_temp_006.txt.gz
Temp
55 49 45 49 55 51 50 45 44 50 57 55 53 52 58 57 56 54 54 55 56 58 58 60 59 59 59 59 60 61 64 64 64 61 60 60 64 62 61 63 64 64 64 64
49 46 52 56 54 52 49 46 45 52 57 54 51 53 56 55 55 54 56 55 56 56 58 59 59 57 57 57 58 60 61 62 62 62 63 63 62 61 62 63 64 64 64 65
49 52 57 56 52 52 48 45 46 49 54 53 47 48 50 54 54 55 55 56 57 57 57 57 56 55 55 55 56 60 60 61 61 63 63 62 62 61 61 61 62 63 64 65
51 55 55 54 51 51 44 53 54 51 46 41 48 38 43 49 52 52 51 54 55 56 56 56 56 56 55 55 56 58 59 60 62 60 60 59 58 58 59 60 61 62 63 63
50 53 52 52 52 54 51 56 51 49 43 39 42 40 44 50 49 52 51 52 54 54 55 55 55 57 55 55 55 57 58 60 59 58 58 56 56 56 57 57 58 59 61 62
51 58 55 54 56 56 57 51 48 44 41 35 42 43 42 46 52 51 50 52 55 54 54 55 55 57 56 55 56 56 58 58 58 58 57 56 55 55 56 55 56 56 58 59
47 51 54 57 51 52 50 43 35 34 33 34 41 40 47 53 53 58 54 53 54 54 54 54 54 54 55 55 55 58 57 56 57 56 56 56 55 54 54 54 54 54 56 56
38 42 51 56 52 48 46 45 36 32 31 37 43 39 48 52 54 57 56 54 54 54 54 54 54 54 55 56 55 55 55 55 55 55 55 55 55 54 54 54 54 54 54 55
43 40 50 53 54 54 46 42 47 41 36 36 40 45 49 51 50 53 52 53 53 53 53 54 54 55 55 54 53 54 54 54 54 54 54 54 53 53 53 53 53 53 55 60
47 38 47 50 53 50 48 51 41 39 33 31 36 38 43 45 47 50 50 51 52 53 53 53 54 55 53 53 52 52 53 52 52 53 52 53 52 52 52 53 52 54 56 56
49 44 40 47 45 45 46 43 44 42 39 34 31 38 48 49 50 52 52 53 53 52 52 53 53 52 52 51 51 51 51 51 51 51 51 50 50 51 51 51 52 53 53 54
49 43 37 41 47 50 47 47 45 39 37 35 34 39 52 47 52 53 53 54 51 53 53 52 51 50 49 49 49 48 49 49 49 50 49 49 50 50 50 50 52 53 52 53
52 43 35 37 43 46 44 47 46 44 42 37 35 39 52 50 50 51 51 51 53 52 51 50 49 48 47 47 47 47 47 47 48 48 48 48 47 47 48 48 50 51 51 51
53 45 42 40 42 45 42 45 46 45 37 38 38 40 46 49 51 51 52 54 51 52 51 48 46 45 45 46 46 46 46 47 47 47 46 45 45 45 46 47 47 48 49 48
51 44 44 44 47 46 46 46 45 43 42 41 42 44 47 51 52 54 53 50 50 49 49 47 44 43 43 44 44 44 44 45 46 45 44 44 44 45 45 45 45 46 46 47
50 44 45 42 47 46 44 46 46 46 45 45 44 47 53 54 50 47 44 48 48 48 47 45 45 42 41 40 42 44 43 44 44 42 42 43 43 43 42 43 43 44 44 44
47 45 42 37 43 44 40 43 43 42 44 46 41 48 51 50 51 48 46 48 48 46 45 45 43 43 43 42 43 41 41 42 42 41 41 42 42 41 41 42 42 41 41 42
43 40 38 35 37 30 41 47 50 46 47 47 48 49 48 47 46 45 46 48 46 45 44 43 42 42 41 42 41 41 41 40 39 39 39 40 40 39 40 40 39 39 40 40
44 40 35 33 31 39 43 46 46 45 42 46 46 46 47 48 44 43 45 45 43 42 42 42 42 42 41 41 40 39 38 37 38 38 37 39 39 38 38 37 37 38 38 38
43 41 38 26 27 30 40 47 49 47 36 46 46 46 45 45 39 42 43 44 43 44 43 42 43 44 41 38 38 37 35 35 35 36 37 38 38 37 36 36 36 38 38 38
34 34 32 31 29 34 44 48 49 36 37 44 45 45 45 43 44 43 44 43 43 43 45 45 42 41 39 37 36 34 33 33 35 36 36 36 36 36 36 36 37 36 36 36
34 30 30 31 28 27 46 45 40 44 43 45 45 45 44 43 43 43 43 42 43 42 42 42 38 41 41 40 35 33 31 34 34 34 35 35 35 36 38 34 34 35 34 33
35 39 35 36 35 45 45 46 46 48 47 44 43 45 46 44 43 44 42 43 43 43 42 42 41 40 40 36 33 31 32 33 33 32 32 33 34 34 34 32 33 32 33 32
38 42 39 41 41 42 45 44 45 46 46 47 45 44 44 44 44 42 41 40 42 41 40 40 39 38 35 34 34 32 32 33 32 30 31 32 32 33 33 33 34 32 31 31
40 39 38 38 42 42 42 44 45 45 44 42 42 43 44 42 39 37 37 38 41 40 40 39 37 33 32 32 31 32 32 31 30 29 30 31 32 31 32 33 32 32 33 34
38 39 36 35 42 42 41 42 44 42 42 43 42 40 37 36 37 37 37 37 37 38 38 34 32 31 30 30 30 30 32 30 29 30 31 31 31 31 31 31 31 36 37 38

GFSCGP_sfc_temp_009.txt.gz
Temp
54 48 45 46 50 53 48 45 42 47 53 50 49 51 56 56 54 52 52 53 54 56 56 57 56 56 57 58 58 58 60 59 60 60 59 58 59 60 59 60 62 63 62 62
49 46 53 54 53 50 49 43 43 50 53 50 48 50 54 54 53 52 53 52 53 54 54 55 55 54 54 54 56 57 59 59 59 59 60 60 60 60 61 61 62 62 62 62
48 51 56 55 52 49 46 43 43 46 51 50 47 46 50 51 51 53 53 54 55 54 53 53 53 53 53 53 53 57 57 59 59 59 60 60 60 60 59 59 60 61 62 62
49 54 53 50 48 53 46 51 49 48 44 39 45 36 44 48 49 50 48 51 53 53 52 53 54 53 53 53 54 56 57 59 60 58 58 55 54 55 55 56 57 58 59 60
46 50 50 48 50 52 47 53 50 47 42 37 40 38 44 46 47 49 49 50 51 52 53 53 54 55 53 53 53 54 56 57 56 56 54 53 53 53 53 54 55 55 57 57
50 58 56 55 56 54 54 49 46 41 40 33 40 41 42 43 50 47 48 50 52 52 52 52 53 55 54 53 53 54 55 55 55 55 54 53 52 52 53 52 53 53 54 55
47 50 55 55 52 50 48 43 34 32 32 32 38 37 48 50 52 55 52 50 51 51 51 52 52 53 53 52 52 55 53 53 53 53 53 52 51 51 50 50 50 51 53 54
41 37 50 53 50 46 45 45 35 30 29 33 39 36 47 49 51 56 55 52 51 51 51 51 52 52 51 52 51 51 51 51 52 51 51 51 51 51 51 50 50 51 51 52
40 42 49 51 52 53 44 41 45 39 33 32 37 43 48 49 47 49 51 51 50 51 51 51 52 51 50 49 50 50 50 50 50 50 50 49 49 49 49 49 49 49 50 55
46 37 47 48 51 49 48 50 40 37 31 30 34 35 42 44 44 46 48 49 50 51 51 51 51 50 49 49 49 49 50 49 49 49 48 49 48 48 48 48 48 49 50 51
46 43 38 46 44 44 44 41 41 41 37 32 30 37 46 48 48 48 50 51 51 50 50 50 49 48 48 48 48 47 48 48 47 48 47 46 46 46 46 47 47 48 48 49
47 41 38 38 44 47 44 45 43 37 35 33 32 37 48 47 49 50 51 51 49 51 50 49 48 47 47 46 46 46 46 46 46 47 46 45 45 46 45 45 46 47 46 47
51 41 35 36 42 42 41 44 44 42 40 34 33 38 50 47 49 49 50 51 52 50 49 47 46 46 45 45 44 44 44 45 45 45 44 44 43 43 42 43 44 45 45 45
53 43 40 39 39 43 40 44 44 43 36 36 36 39 46 48 49 49 50 52 49 49 49 47 44 44 43 44 44 43 43 44 44 44 43 42 42 41 41 41 42 43 43 43
51 43 43 42 44 44 43 44 43 42 41 40 40 41 45 46 48 51 53 50 50 49 46 45 43 42 42 42 42 42 42 43 43 42 41 40 40 40 40 39 40 41 41 42
47 41 42 38 43 43 41 43 43 43 42 42 42 43 50 50 49 50 47 46 47 46 46 44 43 40 40 39 40 41 41 41 41 40 39 40 39 39 38 39 39 39 39 39
46 43 40 35 39 40 38 42 42 42 43 45 42 47 49 47 47 45 45 46 47 46 44 43 42 41 41 40 40 39 39 40 39 38 38 38 38 37 37 38 38 37 37 37
42 40 39 34 36 31 43 47 48 46 46 48 48 48 49 47 45 44 44 46 46 45 43 42 41 40 40 40 40 40 42 39 37 36 36 37 36 36 36 36 35 35 36 36
46 42 36 35 34 38 40 45 44 45 42 47 47 48 47 46 43 43 44 44 42 41 41 41 41 40 39 39 43 41 37 35 35 35 34 35 35 35 35 34 34 35 35 35
44 43 40 29 29 32 41 47 50 48 36 45 46 44 43 43 37 41 41 42 41 42 42 41 40 41 43 41 38 37 37 34 32 34 34 34 34 34 33 33 33 35 34 35
36 36 34 34 32 37 45 47 48 36 37 43 44 43 41 41 43 44 42 41 41 41 41 41 42 41 40 40 39 37 36 32 33 34 34 33 33 32 32 32 33 33 32 33
35 31 31 32 30 31 44 45 41 42 42 45 44 44 43 43 42 41 41 40 40 40 40 40 38 40 40 40 39 36 31 32 32 32 32 32 31 33 35 31 31 31 31 30
35 39 36 37 36 43 42 44 45 46 45 44 42 44 44 43 42 42 41 40 40 39 38 40 38 37 40 39 36 30 31 31 31 30 29 30 30 31 31 28 30 30 30 29
37 40 38 39 39 40 43 44 45 44 44 44 43 43 43 41 42 41 40 39 38 38 37 38 39 38 37 35 32 30 30 31 29 27 27 29 28 31 31 30 31 30 28 28
38 39 38 37 38 40 41 41 42 43 42 41 41 41 40 39 38 37 37 37 38 40 40 39 37 35 31 30 29 29 30 29 28 28 28 28 29 27 29 30 30 30 31 32
37 38 37 36 41 41 40 42 42 41 41 41 39 39 37 36 36 36 37 39 39 38 38 36 32 29 29 28 28 29 30 29 27 28 29 29 29 28 29 29 29 35 36 37

GFSCGP_sfc_temp_012.txt.gz
Temp
54 47 44 47 53 47 47 43 42 46 51 46 47 47 53 55 53 52 50 51 50 53 53 54 54 54 55 55 55 55 58 56 58 58 57 57 58 59 59 60 60 61 60 60
49 45 52 51 51 49 47 47 41 48 50 47 47 48 53 53 54 51 52 51 51 51 52 53 53 52 52 52 54 57 57 57 57 58 58 59 58 59 59 59 60 60 60 60
47 51 56 52 48 50 45 45 41 44 48 48 45 44 46 49 49 50 51 52 51 52 52 51 51 51 51 51 52 55 55 57 57 57 58 58 58 57 56 56 57 57 58 59
48 52 53 50 47 49 41 49 49 46 42 37 44 35 42 46 47 48 47 49 50 51 51 52 53 52 52 51 53 54 55 55 56 54 55 53 52 51 51 52 53 55 55 56
46 47 49 49 51 51 45 53 50 48 39 35 37 36 41 42 45 47 47 48 49 49 51 51 52 53 52 52 51 51 54 54 53 54 52 52 51 50 51 51 52 52 54 54
49 54 52 51 53 54 54 51 48 41 38 31 38 40 38 42 45 45 46 48 50 50 50 51 52 52 51 50 51 51 53 52 52 53 51 50 49 49 50 50 50 51 52 52
46 47 53 55 48 52 51 46 36 32 31 31 35 34 41 47 49 52 51 49 49 49 49 50 50 50 50 49 50 52 51 50 50 50 50 49 48 47 47 47 48 48 50 50
38 36 47 51 49 45 47 42 34 30 28 32 36 34 44 45 48 51 54 52 49 48 48 50 50 49 48 49 49 49 49 49 49 49 48 47 47 48 48 47 47 47 48 48
41 38 49 51 55 52 42 41 43 37 31 31 35 41 49 47 46 45 48 50 48 48 48 49 48 48 47 47 47 48 48 48 47 47 47 45 46 45 45 45 45 46 46 51
43 36 48 50 54 51 46 49 39 36 30 28 32 34 40 46 45 44 45 47 47 48 48 48 48 47 46 47 46 47 47 46 46 46 45 45 44 44 44 44 43 44 45 45
45 41 39 49 43 43 43 41 39 40 35 31 29 36 44 46 46 47 46 47 47 48 49 48 47 46 46 45 45 45 45 45 45 45 44 43 44 43 43 42 42 42 42 43
45 40 35 40 43 46 44 44 42 36 32 31 30 36 46 45 45 47 48 49 48 49 49 47 45 45 45 44 44 44 44 44 44 44 43 42 42 41 40 40 40 41 40 42
48 39 33 39 41 41 41 42 42 40 37 31 32 37 48 44 46 47 48 49 50 49 47 45 44 44 43 43 43 43 43 42 42 42 41 40 39 38 38 38 40 41 40 40
53 42 39 37 38 42 38 41 41 42 34 34 35 39 43 45 46 47 48 47 48 47 46 44 43 42 43 43 42 41 41 41 41 41 40 38 38 37 37 38 38 39 39 38
50 41 40 41 43 43 43 43 41 40 41 39 40 40 45 44 45 46 46 48 47 47 45 44 43 40 40 40 40 40 40 40 40 39 38 37 38 37 37 36 36 37 37 38
48 41 40 37 41 41 39 42 41 41 40 39 40 41 47 45 46 46 44 47 47 47 45 44 42 40 38 38 39 39 39 39 39 38 39 37 37 36 36 36 36 36 36 36
45 42 40 33 38 38 37 41 40 40 41 43 39 44 47 44 47 46 47 46 46 45 44 42 40 40 39 39 39 37 37 38 38 39 36 36 36 35 35 35 34 34 34 33
44 41 39 33 34 28 40 42 45 43 43 44 45 46 47 47 45 44 43 44 45 43 42 41 40 39 38 38 38 38 40 40 37 35 34 35 34 33 33 32 32 31 33 32
44 41 35 34 32 37 40 43 43 43 40 46 45 46 46 45 42 43 44 42 41 41 40 40 39 38 37 38 41 41 38 34 34 36 34 33 33 32 32 31 30 31 31 32
43 43 40 30 30 32 39 45 49 48 37 47 47 45 44 42 37 41 43 41 40 40 40 39 38 39 39 37 36 35 34 36 36 35 32 32 32 31 30 29 30 31 31 32
36 34 34 34 32 37 45 47 48 37 38 45 45 45 44 42 44 44 41 39 39 39 39 39 39 37 36 37 39 34 33 35 33 32 31 31 31 29 30 29 30 31 30 30
35 31 31 32 30 31 43 45 41 43 42 45 45 45 43 43 43 42 40 39 39 38 38 38 36 38 40 39 34 32 35 31 30 30 30 29 29 31 33 28 29 28 28 28
36 39 36 37 36 43 42 43 44 46 44 43 43 44 45 43 41 41 40 38 38 38 37 37 36 36 35 34 36 31 30 29 29 28 27 28 29 29 29 26 28 28 28 28
35 39 38 39 40 41 43 44 45 46 45 45 43 43 42 41 41 39 39 37 37 36 35 36 37 37 37 36 31 29 29 29 28 25 26 27 26 29 28 29 29 27 27 26
38 39 37 36 37 40 41 42 44 44 43 43 42 40 40 39 37 35 36 36 36 36 37 38 37 35 34 29 28 28 29 28 27 26 27 27 28 25 27 28 27 28 29 30
37 37 36 36 40 40 40 43 42 42 41 39 39 37 36 35 36 35 35 36 36 35 37 36 34 31 28 27 27 28 28 28 25 26 28 28 28 26 28 27 27 34 35 36

GFSCGP_sfc_temp_015.txt.gz
Temp
51 47 44 49 51 52 48 47 48 51 55 53 52 51 57 61 59 59 58 57 58 58 59 59 60 60 62 62 63 62 63 63 67 66 66 67 65 66 66 66 67 67 67 67
47 44 52 53 52 52 49 48 46 50 53 53 52 52 58 58 58 60 57 56 57 57 58 58 58 59 59 60 61 62 62 62 63 65 65 66 66 65 64 64 64 65 65 64
44 49 56 52 50 48 47 45 45 47 50 52 49 49 52 57 57 55 56 57 57 57 57 57 57 57 58 57 58 60 61 61 61 63 65 65 64 63 62 61 61 61 63 62
46 52 52 51 47 50 43 50 50 48 47 42 51 40 47 55 53 53 53 54 55 56 56 56 57 57 57 57 58 59 59 60 60 62 61 59 59 57 58 59 60 60 60 60
44 47 49 47 49 52 47 52 51 49 46 43 44 42 48 49 50 51 52 52 54 55 56 55 55 56 56 56 56 57 58 57 58 59 59 58 56 57 57 57 57 58 59 59
47 52 54 53 53 54 52 50 48 46 45 37 42 44 45 49 52 50 51 52 53 54 55 55 55 55 55 55 56 56 56 55 56 56 56 55 55 55 55 54 54 55 56 56
43 47 49 53 49 50 50 47 34 34 36 35 40 39 47 51 54 55 54 53 53 54 54 54 54 54 54 54 55 56 55 53 55 55 54 54 53 53 52 52 52 53 53 53
36 36 46 51 49 44 45 46 38 32 32 36 39 38 49 54 53 53 56 55 53 53 54 54 54 53 53 53 53 54 53 52 53 53 52 53 52 52 52 51 51 51 51 52
38 39 48 51 52 51 43 40 48 38 37 36 40 45 53 53 51 50 51 52 52 52 52 53 52 53 52 52 52 52 52 51 51 51 51 51 51 50 49 50 50 50 50 51
44 37 45 49 53 51 48 51 41 40 34 32 37 38 44 50 50 49 48 51 51 51 52 52 52 51 51 51 51 51 51 50 50 50 50 49 49 49 49 49 48 47 48 48
45 42 39 47 46 44 44 41 42 43 39 35 34 41 48 49 50 50 49 51 51 51 52 51 51 50 50 50 50 49 50 49 48 49 48 48 47 47 47 47 47 47 47 47
47 41 36 40 45 48 48 46 45 39 35 34 36 41 51 47 48 49 49 51 52 53 52 51 49 48 48 48 48 48 48 47 47 47 47 46 46 46 45 45 45 46 45 46
49 40 34 40 44 44 42 43 45 43 40 34 36 41 51 49 49 50 49 51 52 52 49 48 47 47 47 47 47 47 46 46 46 46 46 45 44 44 44 44 44 44 44 44
54 42 40 37 39 43 40 42 42 46 37 37 38 44 48 50 50 50 50 52 52 51 49 47 46 46 46 46 46 45 45 45 45 45 44 43 43 43 42 43 43 42 43 42
50 43 41 40 43 45 43 43 41 42 46 44 44 42 48 50 51 52 53 51 51 49 47 46 45 45 45 44 44 44 44 44 44 43 42 42 42 42 42 41 41 41 41 41
48 41 42 38 41 43 41 42 44 45 42 43 43 44 50 51 50 50 51 51 50 49 47 46 45 44 43 43 43 43 43 43 43 42 41 41 40 40 40 40 40 39 39 40
47 42 40 36 40 41 38 42 41 44 42 48 42 51 48 47 48 49 49 50 49 49 47 46 44 43 43 43 43 42 42 42 41 40 40 39 39 38 38 38 38 38 37 38
45 43 41 34 37 29 43 44 46 45 44 45 46 46 48 47 48 48 48 49 48 48 45 44 43 42 42 42 42 42 42 41 39 39 38 38 37 37 37 37 36 36 37 36
44 44 37 34 33 39 41 43 42 44 42 46 44 45 45 47 47 47 48 46 45 46 44 43 43 41 41 41 42 41 39 39 38 38 37 36 36 36 36 35 35 36 36 36
44 44 39 32 32 34 43 47 49 49 40 47 48 45 45 46 42 45 45 44 42 42 42 41 41 41 41 40 40 40 38 37 37 36 35 36 36 35 34 35 35 36 36 35
36 35 35 34 33 38 46 48 48 39 42 46 46 45 44 44 46 45 44 42 41 41 40 41 41 40 39 40 41 38 37 36 35 35 35 35 35 34 35 35 35 34 34 34
38 35 34 33 32 33 45 46 43 44 44 45 45 46 45 45 44 43 42 40 40 39 39 39 38 38 42 41 39 36 35 35 34 33 33 33 34 34 35 33 33 33 32 31
36 40 37 38 37 43 43 44 44 46 45 45 45 45 46 45 43 42 41 40 39 39 38 39 39 39 38 37 37 34 34 33 32 32 32 32 33 33 33 32 32 32 31 30
36 40 38 39 39 40 42 44 45 46 45 45 46 45 45 43 43 41 40 38 38 37 37 37 37 37 37 37 35 33 32 32 31 30 31 32 32 34 34 32 32 31 30 29
38 39 36 35 37 40 41 42 43 43 43 43 43 43 42 41 40 39 38 37 37 37 37 37 37 38 36 33 32 31 32 31 31 31 31 31 32 30 30 31 31 31 33 33
37 38 37 37 41 41 41 43 43 42 40 41 41 39 38 38 38 37 37 37 36 36 36 35 36 35 32 30 30 31 31 31 29 30 31 31 31 30 30 30 30 33 34 36

GFSCGP_sfc_temp_018.txt.gz
Temp
53 42 41 48 56 59 59 58 55 61 66 61 62 64 67 73 74 73 73 73 71 70 69 70 71 73 73 74 74 75 75 76 78 78 76 75 72 73 73 73 73 73 73 73
47 40 51 55 57 58 59 56 55 62 62 60 62 62 68 72 73 73 74 71 70 68 69 69 70 71 72 72 73 73 73 74 75 75 75 74 72 71 71 70 70 71 71 70
43 46 53 54 57 55 55 53 56 57 58 62 59 60 66 68 67 67 69 73 71 69 68 68 69 69 69 69 70 70 71 71 73 74 73 72 72 71 69 68 68 68 69 68
47 52 50 51 53 57 51 60 59 55 53 49 59 50 62 68 66 64 67 68 68 68 69 68 68 67 67 67 69 69 70 70 71 72 71 69 68 64 66 67 67 67 67 66
41 46 46 48 54 59 56 60 58 56 52 49 55 51 61 61 63 63 65 66 67 68 68 66 65 65 66 66 66 67 68 68 68 69 69 68 65 65 66 66 65 65 65 64
51 52 52 57 60 60 59 57 55 54 50 45 55 53 59 63 63 63 65 66 66 67 67 66 64 65 64 65 65 65 65 65 66 66 66 64 63 63 63 62 63 63 64 63
43 41 51 60 52 54 58 53 38 37 39 45 52 50 61 65 64 65 64 65 66 66 65 63 63 64 64 63 63 64 64 62 64 64 63 63 62 61 60 61 61 60 61 60
34 35 46 57 55 46 50 54 48 38 42 47 48 48 60 64 64 65 69 68 66 65 66 65 64 64 63 62 63 63 62 61 62 61 61 61 61 60 60 59 59 59 58 58
37 36 46 50 53 55 46 47 56 48 48 49 53 57 63 62 62 61 64 65 63 64 64 64 63 64 63 62 62 61 60 60 60 60 60 60 60 59 57 58 58 56 56 56
50 36 44 43 51 51 51 56 43 49 41 40 49 50 58 61 61 59 61 62 64 64 64 63 63 62 62 61 60 60 61 59 58 59 59 58 58 58 57 57 55 55 55 55
53 51 43 44 45 47 47 42 45 51 51 47 46 52 63 61 62 61 63 64 64 63 63 63 62 61 60 60 60 59 59 58 57 57 57 57 56 55 56 55 54 54 54 54
54 55 46 44 51 56 56 51 53 46 44 50 50 54 63 62 60 59 63 63 65 64 64 63 61 59 58 58 58 58 58 57 56 56 55 54 54 54 54 53 53 53 52 53
57 52 43 44 50 52 49 54 56 57 53 49 47 53 61 62 61 60 62 63 64 63 61 61 59 58 58 57 57 57 57 55 55 54 54 54 53 53 52 52 52 52 51 51
56 53 51 45 50 55 48 52 55 55 48 51 51 57 59 60 61 60 62 64 63 61 60 59 58 58 58 57 56 56 55 54 53 52 52 51 50 51 51 50 50 50 50 49
55 50 53 53 53 55 53 51 52 51 55 50 56 54 61 66 64 64 64 63 63 61 59 58 57 57 56 55 55 54 53 53 52 51 50 49 49 49 49 49 48 49 48 48
56 50 51 48 50 52 50 54 55 54 56 56 57 57 66 66 64 62 64 62 61 61 59 58 57 57 55 54 53 52 51 50 51 50 48 47 47 47 47 47 47 47 47 47
54 52 49 46 48 49 45 52 52 55 58 58 52 61 61 58 59 61 61 61 61 61 59 56 56 55 53 53 53 51 51 50 49 48 47 46 46 45 46 46 46 45 45 46
52 51 50 46 47 34 54 54 60 56 59 60 60 59 61 62 60 59 61 60 59 58 57 56 55 52 52 52 51 51 50 49 47 46 46 45 44 44 45 45 45 45 45 45
49 47 45 42 44 50 51 50 51 51 54 58 58 57 57 56 57 54 55 56 56 56 56 54 54 52 50 50 51 50 48 45 46 45 44 44 44 43 44 44 44 44 44 43
47 47 44 41 37 39 52 54 58 59 49 57 58 56 54 55 53 54 53 52 51 51 52 50 50 50 51 50 50 48 44 44 45 44 43 44 44 43 43 43 43 43 43 42
43 43 42 39 37 49 53 55 57 46 50 55 57 56 55 55 55 52 50 49 50 50 48 49 49 49 49 49 47 43 42 44 44 43 43 43 44 43 43 43 43 42 41 41
44 43 40 40 40 39 54 53 51 53 54 55 55 56 53 52 51 51 49 47 46 46 46 48 48 47 48 47 45 41 43 43 43 42 42 42 43 42 42 41 42 41 40 39
45 51 49 49 49 49 51 51 53 57 54 53 54 54 53 51 51 50 48 47 47 46 46 48 48 46 44 43 45 44 43 42 41 41 41 42 42 42 42 41 39 39 39 37
46 48 49 46 47 47 49 51 54 56 54 54 55 54 54 51 51 49 49 47 47 46 46 46 46 43 41 43 42 42 42 41 40 40 41 41 41 40 41 40 40 38 37 36
50 49 47 43 45 48 50 53 52 51 52 51 52 52 52 51 49 49 48 47 47 45 45 45 45 45 44 42 41 41 40 40 39 40 40 40 40 40 39 39 39 37 38 36
49 50 50 52 54 55 53 53 53 51 50 51 49 47 47 49 48 47 47 47 46 44 44 43 44 43 41 40 40 40 40 39 38 38 39 39 38 39 38 37 37 38 37 37

GFSCGP_sfc_temp_021.txt.gz
Temp
55 43 40 46 49 57 58 56 54 63 70 67 65 64 69 75 75 75 77 79 78 76 74 75 76 77 77 78 78 78 79 79 80 79 77 75 72 73 72 73 74 73 73 73
46 38 52 55 52 50 54 55 57 65 68 65 63 63 70 74 74 76 78 78 77 73 73 73 75 76 76 75 76 75 76 78 78 77 75 74 73 72 71 71 71 72 71 70
41 46 54 53 48 47 52 54 57 58 65 64 62 59 64 71 74 77 78 80 78 72 71 72 72 72 73 72 73 73 74 74 74 74 73 73 72 71 70 69 68 69 69 68
42 50 43 49 45 50 47 61 60 59 56 51 63 50 65 71 69 69 73 76 75 73 73 72 71 70 70 70 72 72 73 73 74 75 73 71 68 65 67 68 68 68 67 65
38 43 41 45 43 51 53 62 59 59 56 54 53 51 61 70 66 69 72 73 73 72 72 70 69 69 69 69 69 70 70 70 72 72 71 69 67 67 67 68 67 67 67 65
46 53 51 50 51 51 59 57 57 57 54 42 54 55 59 64 67 71 71 71 71 71 71 69 68 68 66 67 67 67 68 68 69 68 68 67 65 65 64 64 64 64 65 63
41 38 46 50 45 51 55 50 38 37 39 44 59 56 62 66 68 70 69 69 70 70 68 66 65 65 65 65 65 67 67 65 67 66 66 65 64 63 62 62 62 61 61 60
34 32 40 48 48 46 49 50 47 37 40 48 55 48 60 69 69 71 72 71 69 68 68 66 67 66 65 65 66 66 65 64 65 64 64 64 63 62 62 61 60 59 58 58
37 35 43 48 51 55 49 50 58 52 55 53 53 59 65 67 65 67 70 68 67 67 67 67 67 66 65 65 65 64 63 63 63 63 63 62 62 61 59 60 60 58 58 58
42 33 38 46 53 52 54 62 48 53 43 42 52 55 56 62 65 65 66 67 67 68 67 67 66 66 66 65 64 64 64 62 61 62 61 61 60 60 59 59 57 56 57 57
45 36 36 45 44 44 47 51 53 56 54 49 47 53 68 64 65 66 66 68 67 67 67 66 66 66 64 64 63 62 61 60 60 60 60 59 58 58 58 57 56 55 56 55
48 44 34 39 49 59 55 53 56 50 46 54 53 53 67 67 65 66 67 68 69 68 67 67 66 64 62 62 62 61 61 60 59 59 58 57 57 57 56 55 55 55 54 55
53 48 35 34 41 49 50 53 55 58 56 52 50 53 67 67 66 66 66 68 68 67 66 66 64 62 62 61 61 60 60 58 58 58 57 56 55 54 54 54 53 53 53 52
58 53 51 44 48 48 47 50 55 56 50 52 55 57 62 64 64 65 66 68 68 66 65 64 63 62 62 61 60 60 58 58 56 56 55 53 52 52 52 52 52 51 51 50
56 50 55 57 57 57 54 53 53 52 56 52 58 58 65 68 67 68 68 67 66 64 63 63 62 62 61 60 59 59 57 56 55 54 52 51 51 51 51 50 50 50 50 49
57 51 54 51 55 56 54 56 57 56 57 58 59 60 71 72 72 68 68 67 65 64 63 63 62 62 61 59 58 56 54 53 54 52 50 50 50 49 49 49 48 48 48 48
52 50 51 46 53 52 46 55 56 57 59 59 54 62 70 64 64 66 67 66 65 65 64 62 62 61 60 58 57 54 54 53 52 50 49 49 49 48 47 48 47 47 47 47
53 52 51 45 50 36 56 60 62 59 61 63 63 65 67 66 67 67 68 66 66 65 64 62 61 60 58 58 56 54 53 51 50 48 48 48 47 46 47 47 46 46 47 46
58 51 45 43 45 53 57 55 56 56 56 65 63 65 65 62 59 56 60 64 62 63 62 61 60 57 55 53 53 52 50 48 47 47 47 47 46 45 45 45 45 45 45 44
49 53 46 44 40 39 53 57 61 64 51 67 67 64 61 57 53 55 56 57 56 57 57 56 55 54 53 52 52 50 48 47 47 46 46 46 46 45 44 44 44 45 44 43
39 41 38 40 41 48 56 58 61 48 51 59 63 63 59 57 59 57 56 54 55 53 52 53 52 52 51 51 51 48 46 46 46 46 46 46 46 45 45 44 44 44 43 42
40 39 38 39 38 37 58 56 52 55 58 60 61 61 57 54 53 53 52 50 50 49 49 51 51 49 50 50 49 45 45 46 46 45 44 44 45 45 44 43 43 43 42 40
44 53 49 51 49 53 56 55 58 61 59 59 58 58 56 53 52 51 49 49 48 48 49 51 50 48 48 47 48 46 45 45 44 44 44 44 44 44 44 42 41 40 40 39
52 53 54 51 51 53 54 54 57 61 58 59 58 57 57 53 52 51 50 49 48 48 48 50 49 46 44 45 44 45 44 44 43 43 43 43 42 42 42 42 42 40 39 37
52 52 52 50 49 51 53 56 57 57 57 56 57 58 56 54 53 52 51 50 49 48 48 49 48 46 45 45 44 44 43 43 41 42 42 42 42 41 40 41 41 39 40 38
52 54 51 52 58 58 56 56 56 54 53 54 52 51 53 54 51 52 51 51 49 47 47 47 47 46 44 44 43 43 43 41 40 39 40 40 39 40 40 39 39 41 40 40

GFSCGP_sfc_temp_024.txt.gz
Temp
53 43 39 44 47 48 50 49 48 55 63 58 57 59 62 67 67 65 66 66 66 65 66 67 66 66 66 68 68 68 68 69 69 67 66 65 62 61 61 62 64 63 63 62
44 38 47 51 50 48 47 45 46 56 62 60 58 59 63 64 66 68 68 67 66 63 63 64 65 64 65 64 65 66 67 68 68 67 65 65 62 61 60 61 61 62 60 60
39 44 51 50 48 45 46 44 46 44 58 62 55 51 55 63 67 68 68 70 67 64 62 62 61 61 61 61 62 64 64 64 64 65 66 64 61 59 57 57 57 58 59 58
43 50 48 45 44 47 40 50 51 47 51 43 54 37 52 60 62 66 64 65 64 64 64 63 61 60 59 59 61 63 64 64 64 63 61 59 56 54 55 56 57 57 58 56
37 42 43 41 42 47 44 52 47 49 46 46 49 44 49 59 58 62 60 62 63 64 64 61 60 61 60 59 58 59 61 61 61 61 60 57 55 55 55 55 55 56 55 55
43 50 45 46 50 48 49 47 45 46 47 37 46 44 46 54 59 59 61 62 63 63 62 60 60 60 57 57 57 57 58 58 59 58 57 55 54 53 53 52 52 52 52 51
38 39 45 46 41 47 46 40 32 33 34 35 50 45 50 56 62 64 62 61 62 62 60 58 56 56 56 56 57 58 57 56 57 56 55 55 53 52 51 50 50 49 49 48
31 30 39 44 39 42 41 36 35 29 31 37 51 41 48 60 62 65 64 62 62 61 59 58 56 56 55 56 56 56 56 55 55 54 53 53 53 51 51 50 49 48 48 47
33 31 44 47 46 47 40 34 46 45 46 41 42 47 53 58 56 59 60 61 59 60 58 58 57 56 55 55 55 55 54 54 54 53 52 51 51 50 49 49 49 48 48 53
37 31 40 44 47 48 45 50 43 41 35 35 40 43 45 51 53 57 58 58 59 60 59 58 58 57 56 56 55 55 54 53 53 52 52 51 50 50 49 48 47 48 48 48
40 35 37 39 39 38 42 44 47 47 47 38 34 41 54 55 57 56 57 60 60 59 59 59 58 57 55 54 54 53 52 52 51 51 50 49 49 49 49 47 47 46 47 46
41 36 33 36 45 49 51 49 48 41 40 43 42 40 58 56 58 58 59 61 61 60 60 59 57 56 53 53 52 52 52 51 50 51 49 48 48 48 46 46 46 47 45 46
44 38 32 34 42 45 45 52 50 51 49 41 39 40 58 55 55 58 57 59 61 60 58 57 56 54 52 52 52 51 51 49 50 50 48 47 46 45 44 44 45 45 44 43
50 40 35 35 40 46 44 47 48 47 40 42 44 45 51 53 54 56 57 58 60 60 59 57 55 53 52 52 51 50 49 49 49 48 47 45 44 44 43 44 44 44 43 42
51 41 44 46 48 49 47 48 48 46 47 41 46 49 53 55 54 56 57 58 58 58 57 56 54 53 51 51 50 49 48 48 48 46 45 43 44 44 44 43 43 43 42 42
52 43 48 47 49 49 47 50 50 50 50 50 51 50 62 57 59 57 56 57 58 58 57 56 55 53 51 49 49 49 47 47 47 45 44 45 44 44 43 42 42 41 40 40
48 45 45 41 49 47 41 49 50 52 53 53 47 55 59 56 58 57 57 57 57 56 56 56 54 53 52 50 49 46 45 46 45 44 44 45 44 43 42 41 40 39 38 38
46 45 45 39 41 29 48 52 57 54 55 56 56 57 57 57 55 54 57 57 57 57 56 54 53 51 50 49 47 46 46 44 44 43 46 45 43 41 40 39 38 37 37 36
54 48 41 38 38 46 48 49 49 49 50 57 55 58 53 52 50 47 52 54 53 53 53 52 51 49 48 46 46 45 43 43 43 43 43 42 41 39 38 37 35 36 35 35
49 50 40 33 31 32 45 51 56 54 41 53 57 56 51 50 42 42 49 51 50 51 51 49 48 48 47 45 45 43 42 41 41 41 41 40 40 38 36 35 35 35 35 36
40 40 38 36 35 39 50 51 54 39 42 52 55 54 51 45 46 49 50 48 48 47 47 47 46 45 43 45 45 41 40 39 40 41 40 40 38 37 36 35 35 34 34 34
38 37 36 37 35 32 52 49 45 49 50 52 52 52 47 47 48 47 47 46 45 45 45 46 44 44 44 44 42 40 38 39 40 39 39 37 36 39 40 34 33 33 32 31
40 45 42 42 42 50 51 50 50 54 52 51 49 49 50 47 46 46 44 44 44 45 45 45 44 42 41 41 40 38 37 39 39 37 35 35 36 36 36 33 32 31 31 30
47 50 45 46 45 47 50 49 49 52 51 51 51 50 49 46 46 45 44 44 43 43 42 44 42 39 37 38 39 38 38 38 37 34 34 35 34 35 34 34 33 31 30 30
46 47 46 43 44 47 47 49 51 51 52 51 51 50 49 47 45 44 43 43 42 42 43 43 40 38 37 37 37 37 38 36 33 33 32 33 33 32 31 32 31 30 31 33
47 47 44 45 52 50 47 50 52 50 49 49 48 46 47 46 45 45 43 43 42 40 41 40 39 37 37 37 37 36 36 34 33 31 31 31 30 30 30 30 32 38 39 40

GFSCGP_sfc_temp_027.txt.gz
Temp
48 38 35 39 41 44 43 40 40 47 55 53 53 53 57 60 62 57 60 59 58 59 61 63 63 64 63 63 64 64 64 65 67 65 63 62 58 60 60 60 60 59 58 58
40 36 44 47 46 44 43 39 39 47 54 52 52 52 59 62 61 64 61 61 57 57 58 60 61 61 61 59 60 61 62 62 64 64 61 59 58 57 57 56 56 57 56 56
37 41 49 46 43 42 41 38 39 42 49 51 49 48 53 59 63 62 64 64 62 59 59 57 56 57 57 58 59 60 61 62 63 63 63 61 58 55 54 53 53 54 55 54
41 47 45 43 41 44 38 47 47 45 44 37 49 36 46 55 57 58 58 57 60 58 59 58 57 55 56 55 57 59 60 61 61 61 59 56 53 51 52 52 52 52 53 52
37 40 41 39 42 46 40 49 45 45 42 42 43 40 43 52 52 58 62 54 58 59 59 58 57 57 56 55 54 55 56 57 57 56 56 55 51 51 51 51 50 50 50 51
39 47 44 44 48 48 49 43 43 43 41 33 41 40 39 47 55 57 59 56 58 58 57 57 57 57 54 53 53 53 56 54 55 54 53 52 50 50 49 48 48 48 48 47
36 39 43 45 38 42 43 35 28 26 29 31 43 40 43 52 56 60 56 56 57 57 56 55 54 54 52 52 52 54 54 52 52 53 52 50 49 48 47 47 46 46 46 45
27 25 37 44 41 37 37 36 28 22 29 33 44 34 44 60 58 60 60 59 57 55 55 54 54 53 52 53 52 52 52 51 51 50 49 49 49 47 47 47 46 45 45 45
30 31 44 46 46 45 37 32 42 34 34 35 39 44 50 52 53 56 56 56 54 53 54 53 54 53 51 50 51 51 51 50 50 49 48 47 47 47 46 45 45 44 45 50
37 29 41 40 43 44 43 47 32 33 27 28 35 37 41 46 49 53 54 53 53 54 54 54 54 53 51 52 50 50 50 50 49 48 48 48 47 46 46 45 44 44 44 44
38 34 34 37 37 38 38 37 39 40 37 30 29 37 48 50 53 53 54 55 53 54 54 54 54 54 52 51 51 49 49 49 48 47 46 46 46 46 45 44 44 43 43 43
40 36 31 35 45 49 47 43 42 32 32 37 37 37 51 52 53 55 54 56 55 55 55 54 54 52 51 50 50 49 48 47 47 47 46 45 45 44 43 43 43 43 42 42
40 34 31 33 39 43 39 43 44 42 43 40 34 37 51 50 52 53 54 55 55 55 54 53 52 51 51 49 49 47 47 46 46 46 45 44 43 42 41 41 42 43 42 41
44 38 34 33 38 41 36 41 45 45 38 39 40 41 44 47 51 50 55 56 55 55 54 52 51 50 50 49 49 47 45 46 45 45 43 42 41 41 41 41 42 41 41 40
45 35 39 40 42 45 45 45 45 42 44 42 43 45 48 49 50 52 54 55 54 54 53 52 50 50 49 48 46 46 45 45 45 43 42 41 42 42 41 41 41 41 40 41
47 36 41 40 48 47 45 48 46 47 47 48 46 44 52 50 51 51 53 55 54 54 53 52 52 50 48 47 46 47 44 44 44 42 41 42 42 42 40 40 40 39 39 38
45 42 41 35 45 45 39 45 46 46 47 49 43 49 51 51 54 53 51 56 55 54 52 52 52 50 49 47 47 44 43 43 42 42 42 43 44 41 40 40 38 37 36 34
42 43 43 37 39 31 47 50 52 49 51 50 51 55 53 50 46 47 49 54 54 54 54 53 51 50 48 46 45 44 43 42 41 41 43 44 42 40 39 37 36 34 34 33
48 45 40 33 32 41 45 48 47 47 47 52 53 52 50 48 47 45 47 49 51 53 53 50 49 47 46 45 45 43 41 41 41 41 40 41 40 38 37 34 33 33 32 32
47 47 39 30 29 30 42 49 51 50 40 48 49 49 49 48 42 40 44 47 46 48 48 46 46 45 44 43 44 42 39 39 40 40 40 39 39 36 34 33 32 33 32 33
39 40 37 34 32 37 48 50 51 38 41 48 48 50 49 46 45 44 45 43 45 45 45 46 45 43 42 42 42 39 38 38 39 40 39 38 37 35 34 33 32 31 31 31
38 37 36 36 34 30 49 47 43 47 47 46 45 45 43 44 44 43 43 43 43 42 43 44 42 42 41 40 40 36 35 37 38 38 37 36 34 36 37 32 31 30 29 28
35 41 41 41 41 48 47 47 49 51 48 45 44 45 45 43 42 42 41 41 42 42 42 43 41 39 37 38 38 35 35 37 36 36 34 33 34 34 33 30 30 28 28 27
43 48 43 42 46 45 47 46 48 49 47 46 47 46 46 42 42 41 42 42 42 42 40 40 39 37 35 36 36 35 36 36 35 32 32 32 31 33 31 31 30 27 27 26
44 46 44 43 41 43 45 46 48 48 48 47 48 47 45 44 42 42 41 40 41 40 40 39 38 36 34 34 34 34 35 34 32 31 30 29 30 29 28 29 28 27 29 32
45 45 44 42 49 48 47 48 50 49 48 47 45 43 44 45 42 42 41 41 40 39 38 37 35 34 33 34 33 34 34 33 31 29 29 29 29 27 28 26 27 35 37 38

GFSCGP_sfc_temp_030.txt.gz
Temp
46 37 33 37 39 41 41 36 35 40 50 47 47 50 54 58 56 54 57 56 57 58 59 59 60 60 60 60 61 61 61 61 64 63 60 57 54 59 59 59 57 56 55 54
40 36 44 44 43 41 39 36 36 43 49 49 45 45 52 58 59 59 61 58 57 55 56 58 58 57 59 58 59 60 60 60 61 61 58 57 55 54 57 54 54 53 53 53
35 40 47 43 41 39 38 36 37 37 44 47 46 43 48 55 59 61 63 64 57 58 56 55 55 55 55 55 57 58 59 59 60 61 60 58 57 54 52 50 50 51 52 52
39 45 43 41 39 41 34 43 43 41 40 30 45 34 43 50 54 57 61 56 56 58 57 55 54 53 54 54 55 57 59 59 59 60 58 57 54 51 49 49 48 49 50 50
36 38 39 38 40 45 38 47 43 44 40 38 38 34 41 50 50 54 58 58 58 58 58 55 55 55 54 54 53 55 56 56 55 55 55 54 50 49 48 48 47 47 47 48
39 47 42 43 47 47 47 43 42 40 39 29 36 36 38 45 50 53 59 55 55 57 56 54 53 54 51 51 52 53 54 52 53 54 52 51 49 48 47 45 45 45 45 45
36 36 42 45 40 44 43 36 27 25 25 25 39 35 40 46 52 57 59 55 55 56 53 52 52 52 51 51 51 53 53 50 51 51 50 49 48 47 46 45 44 44 44 43
22 22 36 42 39 36 37 36 28 18 17 27 40 33 40 53 59 61 57 57 55 53 54 53 53 52 51 51 50 51 51 49 50 49 47 47 47 45 45 45 44 44 43 43
26 27 42 43 44 44 34 31 40 31 33 28 33 37 48 52 50 51 52 53 52 52 53 52 52 52 51 50 50 50 50 48 48 48 47 45 45 45 44 44 43 43 43 48
35 26 39 42 44 44 42 43 29 31 17 21 31 34 41 46 45 47 49 50 51 51 51 51 52 51 50 50 48 48 49 48 47 46 46 45 44 44 43 43 42 43 42 42
40 34 33 37 33 34 34 33 36 35 32 26 28 35 51 53 51 48 50 51 50 50 50 51 51 51 49 49 49 47 48 47 46 46 44 44 43 43 43 42 42 42 41 41
39 35 29 32 42 43 40 37 38 30 28 34 30 33 50 50 52 54 52 51 51 52 51 51 51 49 48 48 47 47 46 46 45 45 44 43 43 42 41 41 41 41 40 40
40 34 28 32 34 42 37 41 42 43 39 33 29 34 51 46 48 52 50 50 51 50 50 50 49 49 48 47 46 46 45 44 44 44 43 42 41 41 40 40 41 41 40 39
43 35 32 30 36 40 36 38 42 41 32 33 33 37 45 45 47 48 49 51 50 50 50 49 49 48 47 47 46 45 44 44 43 43 41 40 40 40 39 40 40 40 39 38
41 34 34 35 37 38 42 39 41 39 40 34 39 39 46 48 48 49 51 51 50 49 49 49 48 47 46 45 44 44 44 43 43 41 40 40 40 40 40 39 39 39 39 38
44 34 35 35 44 40 39 42 43 42 40 36 46 47 53 48 48 47 49 50 50 50 50 50 49 47 45 45 44 45 43 42 42 40 40 40 40 41 40 39 38 37 36 36
41 37 35 34 43 40 35 37 43 39 45 46 43 50 50 49 50 48 49 52 52 51 50 49 49 48 47 45 45 43 42 42 40 40 40 40 43 42 39 38 37 36 34 33
43 40 41 35 38 30 45 49 51 49 51 52 51 50 50 49 45 46 46 52 52 52 51 50 49 47 46 45 44 42 42 41 40 39 40 43 42 39 37 36 34 33 33 31
48 40 38 32 30 39 46 46 44 45 45 49 50 48 46 46 46 44 44 48 49 51 51 50 49 45 44 43 43 42 40 39 39 39 41 40 39 37 35 34 32 32 31 30
45 44 40 30 28 29 40 46 49 47 39 46 48 46 46 46 44 43 40 44 45 46 46 45 44 44 43 42 43 41 38 38 38 40 38 37 37 35 33 32 31 31 30 30
40 37 35 32 31 36 46 47 48 37 40 46 46 47 48 47 44 41 41 41 43 43 42 44 44 42 41 41 41 38 37 37 37 37 37 36 35 33 33 31 30 29 29 29
37 34 35 36 30 30 48 48 43 46 43 43 43 43 41 41 41 41 41 41 41 40 41 42 41 39 39 40 40 36 34 35 36 36 35 34 33 35 35 30 29 28 27 26
36 40 38 38 39 45 45 46 47 48 46 42 41 43 43 41 40 41 39 40 40 40 40 41 40 37 36 36 37 34 33 35 34 33 32 32 32 31 30 28 27 26 26 25
39 44 40 41 46 43 44 45 47 47 44 43 43 44 44 40 41 39 40 39 39 39 38 39 38 35 33 34 35 34 34 34 33 31 30 29 29 30 28 29 28 25 24 24
42 44 41 40 41 42 44 44 45 45 45 44 44 44 43 42 40 40 39 39 38 38 37 38 36 34 32 32 32 33 33 33 31 29 29 28 29 26 26 27 25 25 26 30
44 44 43 42 49 48 46 47 47 46 44 45 43 41 42 43 41 40 39 39 38 36 36 35 33 33 31 31 31 31 32 31 29 29 29 28 27 25 27 25 24 33 36 37

GFSCGP_sfc_temp_033.txt.gz
Temp
44 37 33 38 39 39 38 35 33 38 46 42 41 43 48 52 54 56 53 55 56 56 58 59 59 59 58 58 59 59 59 59 63 61 60 58 58 59 58 59 59 57 54 52
38 34 40 42 41 39 37 35 34 40 46 43 42 42 48 51 52 54 57 57 57 54 55 57 57 56 57 57 57 57 58 57 59 59 56 56 56 57 55 54 55 52 51 51
35 39 46 42 39 37 36 33 36 36 42 44 40 40 45 52 55 56 59 61 61 59 55 55 54 55 55 55 55 56 56 57 57 58 58 56 57 56 55 53 48 49 50 49
38 44 42 39 37 38 33 41 40 38 35 27 39 28 40 45 50 53 56 58 59 55 57 57 53 53 53 54 54 55 57 57 58 59 58 58 55 51 47 46 46 47 48 48
35 36 36 35 38 43 37 45 41 39 34 31 35 28 34 46 46 51 50 56 55 55 57 55 54 55 53 52 52 54 55 56 54 55 56 54 50 49 46 46 45 45 45 46
41 47 40 39 44 45 45 41 40 37 36 26 34 31 33 40 46 48 52 54 55 57 56 55 52 52 50 50 51 53 54 51 52 53 51 52 49 47 46 43 43 43 43 44
35 37 41 43 37 42 42 34 26 24 26 24 36 32 37 44 47 50 52 52 55 53 53 50 51 51 50 50 50 52 53 49 50 50 49 49 48 47 45 43 43 43 43 42
25 23 35 41 38 34 36 34 27 20 22 25 37 29 37 49 54 57 58 54 52 52 52 52 52 51 51 50 50 51 50 48 48 48 46 45 46 45 44 43 43 42 42 42
26 26 38 40 42 42 33 30 38 30 31 27 30 35 43 50 51 49 51 52 50 50 52 52 51 51 50 49 49 49 48 47 47 46 46 43 44 44 43 42 42 41 42 45
32 24 37 41 43 43 38 40 29 30 20 20 26 30 37 42 50 55 47 47 48 50 51 50 50 49 49 48 47 47 49 47 45 45 45 44 42 42 42 42 41 41 41 41
37 34 32 37 33 34 35 32 35 33 28 21 19 30 40 48 51 49 45 47 48 49 48 49 49 49 48 47 47 46 46 45 44 44 43 43 41 41 41 41 40 40 40 39
40 34 28 32 40 44 41 36 36 28 22 29 28 31 46 44 47 48 47 48 48 49 49 48 48 47 47 46 45 45 45 44 43 43 43 41 41 41 40 40 40 40 39 39
39 33 27 29 34 37 34 36 36 38 35 28 25 32 47 49 45 47 47 48 48 48 47 47 46 46 45 45 44 44 44 43 43 43 42 40 39 39 39 39 39 39 38 37
44 35 31 28 33 35 33 35 35 34 30 32 33 38 46 48 45 44 44 47 47 48 48 47 46 45 45 44 44 43 42 43 42 42 40 39 38 38 38 38 38 38 37 36
41 32 34 35 36 37 36 35 36 34 37 33 37 36 42 49 48 47 48 47 46 46 46 47 45 44 43 43 43 43 42 42 42 40 39 38 38 38 38 39 38 37 36 35
42 33 34 32 39 37 35 36 38 40 40 40 40 40 51 51 51 47 47 48 47 47 47 47 46 43 43 43 42 43 41 41 41 39 38 38 38 39 40 40 36 35 34 34
38 35 34 32 37 37 33 37 38 40 43 42 35 43 50 47 48 48 48 50 48 48 47 47 45 45 45 44 44 42 41 40 39 39 38 39 40 40 40 38 35 34 32 31
39 37 36 33 35 28 42 46 44 42 43 44 44 46 48 51 47 47 47 50 49 49 48 48 46 45 44 44 43 41 41 40 39 38 39 40 40 39 36 34 32 31 31 30
46 42 37 34 28 38 42 41 40 38 38 45 45 46 49 46 48 45 46 49 49 50 49 48 47 45 43 42 42 41 38 38 38 37 38 41 40 35 33 32 30 30 30 30
43 43 38 33 27 28 40 45 49 48 38 49 49 48 45 46 44 47 43 45 46 48 47 44 43 43 42 41 42 40 37 37 37 38 40 39 35 33 32 30 30 30 28 30
38 38 35 32 33 35 43 47 47 35 39 46 46 46 45 47 43 40 40 40 43 44 42 43 43 42 40 41 41 38 36 36 37 37 36 34 33 32 31 30 29 27 27 28
39 33 33 36 30 28 46 47 42 45 42 42 41 43 39 38 39 39 40 39 40 40 40 41 39 38 39 40 40 36 35 35 35 34 33 32 31 34 33 28 27 26 26 24
34 39 36 37 37 45 44 45 46 47 45 40 40 41 41 39 38 38 37 37 38 39 39 40 38 37 36 36 39 35 32 33 33 32 30 30 30 30 29 26 26 24 24 23
39 42 39 40 41 41 43 44 46 46 43 41 42 43 43 38 38 37 37 38 38 38 38 39 38 36 32 33 34 33 32 33 31 29 28 28 28 28 26 29 28 23 23 23
40 41 40 39 42 45 44 44 44 42 43 43 42 43 42 41 39 39 37 37 37 37 37 38 36 34 31 31 31 31 32 31 29 28 29 28 28 25 25 27 24 23 25 28
41 42 41 42 47 46 45 46 45 44 43 43 42 41 42 42 39 39 37 37 36 35 35 34 32 32 29 30 30 30 31 30 29 28 29 28 27 24 26 23 23 32 35 36

GFSCGP_sfc_temp_036.txt.gz
Temp
43 36 34 38 39 40 35 32 32 37 44 39 39 41 46 50 48 48 52 54 53 55 60 59 60 59 58 57 58 57 57 58 62 60 59 59 56 56 58 58 58 57 55 52
37 33 40 41 40 38 36 35 36 41 43 41 40 40 46 49 50 51 52 54 54 56 54 57 57 55 56 57 57 56 56 57 60 61 56 55 55 55 55 54 53 54 54 50
34 37 44 41 38 35 34 33 35 35 39 42 38 37 44 50 53 53 55 56 58 57 57 54 54 54 54 55 55 55 55 55 55 56 56 55 55 55 54 53 52 51 49 48
36 43 41 37 35 36 32 40 38 36 32 27 36 27 38 42 46 49 52 53 55 55 55 55 54 52 53 54 54 54 55 54 55 57 57 56 55 53 53 51 50 48 46 46
35 35 35 35 37 40 35 42 38 38 33 30 32 27 32 40 42 46 45 48 54 56 57 55 54 57 53 53 52 52 53 54 53 55 57 54 50 49 50 48 47 44 44 45
41 46 42 38 42 42 43 39 38 37 34 26 32 29 34 39 43 46 48 49 54 55 53 56 54 53 51 50 50 52 53 50 51 53 54 54 51 49 47 43 43 42 42 42
37 38 43 44 38 40 38 33 24 22 24 23 34 30 35 42 44 46 48 49 50 52 50 49 49 50 49 49 50 51 52 49 54 54 53 53 50 48 45 43 42 42 41 40
28 22 36 42 39 34 34 34 23 15 19 23 34 27 36 46 52 54 55 53 51 49 48 50 51 52 51 50 51 52 51 48 51 50 46 46 47 45 44 43 42 41 40 40
28 25 37 39 40 41 34 30 38 28 28 24 31 32 41 47 48 49 47 50 48 48 47 49 50 51 50 50 50 50 49 47 47 46 46 44 44 43 42 41 41 40 40 43
32 21 35 38 40 41 38 42 29 29 20 18 24 26 31 41 44 49 52 51 48 46 47 48 49 48 49 49 48 48 49 47 45 44 45 43 42 42 41 41 39 39 39 39
35 31 29 36 33 34 34 31 33 34 30 18 17 28 38 42 42 45 46 50 46 47 48 48 47 47 46 47 47 46 46 46 44 44 43 42 41 40 40 40 39 38 38 38
40 34 27 31 43 43 42 35 35 27 23 26 23 30 45 42 45 47 46 45 44 46 46 46 45 45 46 45 45 45 45 44 43 43 42 41 40 40 39 38 38 38 37 37
40 32 24 26 34 39 33 35 35 36 33 27 21 29 48 49 50 45 43 43 44 45 44 44 45 45 44 44 44 44 44 42 42 42 41 39 38 38 37 37 37 38 37 36
44 36 30 27 34 37 31 34 34 33 28 29 29 34 44 48 47 44 42 44 45 44 44 45 44 43 43 43 43 42 41 42 41 41 40 38 37 37 36 37 37 37 36 36
41 32 34 35 37 37 35 34 34 31 33 27 35 36 43 46 49 41 44 45 46 44 44 44 43 42 42 41 41 42 41 41 41 40 38 37 36 37 36 36 36 36 36 34
42 33 35 33 39 37 33 36 35 35 35 35 37 37 49 50 42 43 42 44 45 45 46 45 44 42 41 41 41 41 40 40 41 39 37 37 37 37 36 36 36 36 34 33
38 35 33 31 37 35 33 35 36 36 39 39 32 41 49 47 49 47 44 46 47 47 47 45 44 43 43 42 42 40 40 39 39 38 37 37 38 37 36 37 37 34 31 30
39 37 35 31 35 28 40 45 42 38 42 43 44 45 47 48 48 49 49 47 47 48 47 45 44 43 42 42 41 40 40 39 38 37 37 38 37 36 37 36 33 31 29 29
43 40 35 33 32 35 41 40 39 35 37 44 44 47 48 48 44 44 46 49 48 48 48 46 46 43 42 41 41 40 38 37 37 36 36 37 37 37 36 32 29 29 28 27
41 43 37 34 30 27 38 43 46 46 37 46 46 45 45 44 39 43 44 46 46 48 47 44 42 42 41 40 41 39 37 37 36 36 36 37 38 35 31 29 29 28 27 29
37 37 34 34 32 36 44 45 46 33 39 45 46 47 45 43 43 41 43 43 45 44 42 42 42 41 40 41 41 37 36 35 35 36 36 36 35 30 29 28 27 26 26 27
36 35 35 35 32 28 46 45 40 43 41 43 42 44 46 39 39 40 40 39 40 39 41 40 38 38 39 41 40 36 34 34 34 33 34 32 30 33 31 27 26 25 24 23
34 38 35 37 36 44 44 46 47 46 45 40 40 39 40 38 37 38 37 38 38 38 38 39 38 36 35 37 41 37 30 33 32 32 29 29 29 28 28 25 24 24 23 22
37 41 38 39 41 42 42 44 44 44 42 41 41 40 40 36 37 36 37 37 37 37 37 38 38 36 33 33 34 34 32 32 31 28 27 27 27 26 25 29 27 23 22 22
40 40 39 39 42 42 44 43 41 41 42 42 42 41 39 39 37 37 36 36 37 37 38 38 36 33 31 33 32 32 31 31 29 27 28 27 27 24 24 26 23 22 24 27
39 41 39 39 48 45 44 43 42 41 40 41 40 39 40 40 38 38 37 37 37 35 35 34 33 32 30 31 29 29 30 30 28 28 28 28 26 23 26 23 22 32 34 36

GFSCGP_sfc_temp_039.txt.gz
Temp
45 40 35 39 40 41 38 35 35 42 46 43 42 43 48 52 53 52 55 57 59 59 65 67 67 68 67 66 65 65 65 66 66 65 65 64 62 59 60 59 60 59 58 58
38 35 41 43 41 39 38 35 36 41 45 42 41 40 47 50 52 54 55 56 58 61 61 64 65 65 65 66 64 63 64 64 66 67 64 63 58 56 56 57 57 58 56 55
35 40 44 41 38 36 35 34 36 35 41 43 40 38 46 52 53 54 56 58 59 60 61 64 63 63 62 62 62 62 62 63 63 60 59 57 55 55 54 54 52 53 55 54
37 43 41 37 36 38 33 41 40 37 34 29 40 29 43 49 50 54 55 56 56 58 61 64 63 62 61 62 61 61 60 60 60 61 60 59 57 55 56 52 51 51 52 52
35 37 36 36 38 40 37 43 39 38 34 32 35 29 40 44 43 48 52 54 55 58 60 61 62 63 63 60 59 59 59 59 60 61 62 61 57 53 52 50 49 48 49 52
40 45 42 39 42 43 44 38 39 37 34 26 35 31 36 43 47 51 54 56 54 56 59 61 63 62 59 58 57 56 57 57 58 59 59 57 54 52 49 48 47 46 50 49
38 39 44 45 38 41 40 34 25 22 23 24 36 31 37 46 48 50 51 52 54 56 56 56 55 56 55 55 55 56 56 54 57 58 57 57 55 53 50 49 48 49 48 48
30 26 37 43 40 38 36 35 26 16 19 25 34 29 38 47 52 54 55 55 57 54 55 54 56 56 56 55 55 56 55 54 56 57 56 54 53 51 49 48 50 50 49 47
29 29 38 39 41 42 35 30 39 27 31 25 32 37 45 51 50 50 52 54 53 53 55 53 53 55 55 54 55 55 54 53 54 53 51 50 50 49 49 49 50 48 48 47
36 28 35 38 40 40 37 41 28 29 21 20 28 30 34 41 46 49 48 51 52 54 52 52 53 53 54 55 54 54 54 52 51 51 50 49 49 49 48 49 47 47 47 47
39 33 30 37 33 32 34 31 33 32 30 24 24 31 43 45 46 45 47 48 48 50 52 51 51 52 51 51 52 51 50 49 48 49 49 48 47 47 48 47 46 46 46 46
39 34 25 29 39 42 40 37 35 27 26 29 29 31 51 46 45 47 48 47 46 48 48 48 47 47 49 49 50 51 50 48 47 48 48 46 46 46 46 45 45 46 45 45
39 32 26 26 34 38 34 37 39 34 33 28 24 31 49 50 48 48 48 47 45 44 44 45 46 47 47 48 49 49 48 46 46 47 46 45 45 45 44 44 44 44 44 43
45 34 28 25 33 39 31 34 34 32 28 30 29 34 42 45 47 47 49 47 45 44 44 45 45 45 46 47 48 46 45 45 45 46 45 44 43 43 43 43 43 43 43 42
40 32 34 36 38 37 34 34 34 31 33 29 36 35 41 46 46 47 50 46 46 43 43 44 43 44 45 45 46 45 44 45 45 44 43 42 42 42 42 41 41 41 42 41
41 33 35 33 38 38 33 37 35 36 36 34 36 35 46 48 49 47 47 46 47 44 44 43 44 44 44 44 44 44 44 44 45 43 41 41 41 41 41 41 40 40 39 39
39 36 33 29 38 38 34 37 36 36 38 38 32 40 46 45 48 49 48 48 48 45 44 43 43 44 44 44 45 43 43 44 43 41 41 41 41 40 40 40 40 39 38 38
39 36 35 31 35 27 41 44 43 38 40 42 42 44 47 47 48 48 47 47 48 47 45 44 45 44 44 45 44 43 43 42 41 40 41 41 40 39 39 39 38 37 37 36
42 38 35 32 32 37 41 42 40 37 40 43 43 45 47 47 46 45 48 48 49 48 47 47 46 44 44 43 44 42 41 41 41 40 40 40 40 39 39 37 37 36 36 35
39 41 36 33 30 28 38 43 46 44 37 46 45 45 45 45 40 42 43 47 47 48 47 44 44 44 44 43 44 42 40 41 39 40 39 40 40 39 37 36 35 34 34 35
35 36 32 33 32 34 44 44 45 36 39 46 47 47 46 44 42 41 43 43 46 46 44 45 45 44 42 43 43 40 41 39 39 39 39 38 38 36 35 34 34 33 33 32
37 35 34 35 32 28 45 44 40 45 46 46 46 46 46 40 40 40 40 40 41 41 42 43 41 40 42 43 43 41 37 38 39 38 37 36 36 36 34 33 32 32 31 31
34 38 34 37 36 45 44 46 48 46 44 44 43 43 44 40 39 39 38 38 39 40 40 41 40 38 39 42 43 37 36 38 37 36 35 34 33 33 33 32 31 32 30 29
36 40 37 39 42 42 45 45 44 43 42 41 41 40 41 37 38 37 37 37 38 38 38 39 39 37 36 40 40 37 37 36 35 33 32 32 32 31 31 33 32 30 29 29
39 39 39 40 43 43 43 44 42 41 43 41 41 40 38 38 37 37 36 36 37 37 38 39 37 35 33 35 35 36 35 34 32 31 32 32 31 30 30 31 30 30 31 32
39 40 39 40 46 45 43 44 44 41 40 41 40 39 40 39 37 37 36 37 37 36 36 35 34 33 33 33 32 32 33 34 32 31 31 31 30 29 30 29 29 32 35 35

GFSCGP_sfc_temp_042.txt.gz
Temp
52 45 42 49 51 51 47 45 44 50 54 51 51 52 56 61 62 62 64 66 68 71 75 77 78 80 80 80 80 81 80 79 79 78 77 77 74 71 69 69 68 69 68 66
45 38 49 51 51 47 46 44 45 49 52 50 50 49 56 59 60 62 64 66 68 70 73 76 77 79 79 79 79 79 78 78 77 78 77 77 71 64 60 62 62 65 64 61
43 46 49 47 45 42 44 43 44 44 49 51 48 47 56 61 63 64 65 66 68 69 70 73 76 77 77 77 78 77 77 76 76 76 75 69 64 60 57 58 59 59 62 63
45 51 45 44 43 46 40 48 45 43 41 37 47 38 52 58 60 62 66 66 67 68 70 71 73 76 77 77 77 77 75 74 75 72 68 66 66 61 58 59 55 54 57 62
41 42 42 40 43 47 41 48 45 44 39 37 41 32 48 57 53 58 63 66 69 70 70 70 71 72 77 76 75 73 73 72 71 70 71 70 67 65 59 55 53 52 55 57
47 51 47 48 49 48 48 44 44 43 37 29 42 38 45 55 58 60 64 65 68 69 69 70 72 72 73 75 71 70 70 69 70 70 70 70 66 59 55 54 49 49 51 55
42 43 48 49 43 46 43 37 31 28 26 30 45 41 45 57 58 59 60 64 67 69 69 68 69 69 70 71 68 68 68 67 68 69 70 68 63 58 56 52 50 51 55 53
35 34 43 47 44 40 38 39 33 25 30 37 43 35 48 59 59 61 63 65 65 67 69 69 69 68 68 68 67 67 67 65 67 67 67 66 62 59 54 53 51 52 54 58
36 33 45 47 47 47 40 33 44 33 38 31 40 47 56 60 59 61 61 61 62 64 66 67 69 68 69 68 67 67 66 65 66 65 65 63 58 54 54 51 53 54 55 56
41 31 42 43 46 46 44 47 31 32 24 26 38 41 43 51 54 57 58 59 61 63 64 66 68 67 68 68 67 67 66 64 64 63 63 59 54 53 52 54 53 56 57 56
43 38 36 39 36 38 36 33 36 36 34 29 28 39 55 52 55 57 56 58 59 59 60 63 66 67 66 66 65 64 64 62 60 60 58 56 52 52 53 55 57 56 56 55
46 37 30 35 47 49 48 42 39 29 29 31 31 35 56 54 57 55 56 58 60 58 57 59 62 63 62 61 62 61 60 60 58 56 56 52 52 53 55 56 55 56 55 55
45 33 30 35 39 43 37 41 42 37 35 29 28 36 54 56 55 57 56 58 60 56 55 54 56 57 59 59 59 59 57 53 55 54 51 51 54 55 54 54 54 54 53 52
47 39 33 33 40 43 33 36 36 32 29 34 35 39 49 52 53 56 57 57 58 55 52 53 55 56 57 55 54 53 50 50 50 50 50 52 54 53 53 53 53 52 52 51
43 33 37 38 41 42 39 36 35 32 33 30 40 42 48 52 51 53 56 57 54 50 49 50 52 53 52 50 49 48 48 49 49 48 49 51 52 52 51 50 51 51 50 49
43 35 38 33 43 42 35 40 38 38 38 35 36 37 52 54 55 54 55 53 49 50 47 49 50 49 47 47 46 46 46 47 48 47 47 49 49 50 49 49 49 48 47 47
40 35 34 31 42 41 37 40 38 39 39 40 33 44 52 51 51 51 51 52 53 49 47 48 47 47 46 46 46 45 46 48 47 48 49 49 49 48 48 48 47 46 45 46
41 38 36 32 38 33 45 49 44 40 42 43 46 48 51 51 52 53 50 51 53 50 49 48 46 46 47 47 47 47 48 50 50 49 48 49 48 46 47 46 45 44 45 45
46 42 34 32 33 42 46 48 44 39 41 49 47 50 52 53 52 44 48 54 53 52 52 49 48 48 50 50 51 51 51 50 49 47 47 47 47 46 46 44 43 44 44 44
43 42 35 34 30 32 46 50 49 48 38 49 49 50 51 51 48 45 46 50 50 53 52 50 51 52 52 51 52 50 49 48 46 46 46 47 47 46 44 42 43 43 44 43
35 35 32 32 31 41 53 51 51 39 39 47 48 50 50 50 46 47 50 51 51 50 50 52 52 51 50 51 51 48 47 45 46 46 45 44 44 42 42 44 44 43 42 42
37 35 33 33 32 32 53 53 47 51 50 49 48 49 48 47 45 44 45 45 47 46 47 47 44 45 47 49 47 45 42 42 42 42 40 40 41 42 43 43 42 41 41 41
41 47 46 46 45 55 54 53 55 52 51 50 48 48 46 43 44 44 43 43 44 44 45 48 47 47 49 48 45 39 39 40 40 39 39 40 42 42 42 42 41 42 41 40
48 51 47 46 54 53 54 53 51 47 48 46 45 47 49 46 42 39 40 41 43 45 45 46 46 45 44 43 41 39 39 40 40 40 41 41 41 41 41 41 41 41 40 38
51 48 48 48 54 56 54 51 49 46 45 45 45 45 46 45 44 43 41 41 42 43 44 46 44 44 41 40 39 40 40 43 42 42 41 40 40 40 40 39 40 40 40 37
50 51 49 51 54 54 51 48 48 47 44 44 44 42 44 45 42 43 41 42 42 41 42 42 42 41 40 39 38 40 43 44 42 40 40 40 40 40 39 39 39 35 35 35

GFSCGP_sfc_temp_045.txt.gz
Temp
55 49 46 53 56 57 51 51 50 56 61 56 54 56 60 66 67 66 68 69 71 73 79 81 82 83 84 86 86 85 86 85 84 83 81 82 80 73 68 70 76 76 75 72
46 41 54 58 56 53 51 48 49 55 58 54 53 53 60 63 64 67 67 68 69 72 75 78 80 81 81 82 83 83 84 84 83 83 82 82 77 65 64 67 73 73 70 68
45 49 54 52 49 47 48 47 48 49 54 55 52 50 59 66 67 68 69 70 72 72 73 76 78 80 79 80 82 82 83 83 82 82 81 80 67 61 58 59 60 61 63 62
49 54 49 48 46 49 43 53 50 48 45 41 51 38 53 61 64 66 68 70 71 71 73 75 76 78 79 80 82 82 82 82 81 80 78 72 64 59 57 56 57 58 63 62
44 46 46 44 47 51 45 50 48 46 41 38 43 37 49 61 60 64 68 70 71 73 74 74 75 75 78 79 79 79 81 80 79 78 76 70 67 67 59 54 55 54 57 61
50 55 51 50 51 51 50 46 44 44 40 29 43 43 47 57 62 64 70 69 70 72 73 74 75 75 76 76 77 77 77 77 77 75 72 70 70 62 55 51 50 51 54 58
44 45 50 53 45 49 45 39 32 29 27 31 49 46 48 60 63 64 65 68 70 71 72 72 72 72 73 73 74 75 75 74 74 72 73 72 70 61 56 52 49 50 52 53
35 34 46 49 45 42 41 40 35 27 33 39 49 38 49 64 64 65 67 67 69 69 71 70 72 72 72 72 73 73 73 72 72 72 72 73 66 63 57 56 54 53 54 54
40 37 49 51 50 48 40 33 45 34 39 33 41 51 60 64 64 64 65 66 65 67 68 68 69 72 73 72 72 72 71 71 71 71 72 67 65 60 57 56 57 55 55 57
45 34 45 47 50 50 47 50 32 32 24 28 42 46 48 56 59 62 61 62 64 66 66 66 68 71 74 73 73 72 72 70 70 70 69 65 61 58 55 56 54 54 55 56
48 41 37 42 38 40 40 37 39 42 37 32 32 42 60 55 58 58 60 64 63 64 64 64 67 70 72 73 71 71 70 68 67 67 64 61 57 55 54 53 54 53 55 55
48 40 33 37 49 51 49 42 41 30 33 35 34 37 57 59 60 59 60 61 63 65 63 62 65 68 69 69 68 68 67 66 65 63 60 56 55 54 54 54 54 55 55 57
47 37 31 35 41 47 40 44 45 41 37 30 28 37 59 60 59 60 59 60 62 63 62 60 62 63 64 63 64 65 64 62 61 60 57 54 54 53 53 53 54 55 55 54
50 41 34 34 40 44 33 39 41 33 30 35 36 40 50 54 54 57 59 61 62 62 59 58 59 60 60 61 62 61 60 59 58 57 55 53 53 52 53 53 55 54 54 52
46 34 39 40 43 43 42 41 42 34 34 30 38 38 46 49 52 55 57 58 59 58 55 54 55 57 57 58 59 56 56 56 55 54 53 51 52 52 54 53 53 53 52 51
44 35 38 33 43 44 41 46 46 42 39 38 38 36 49 54 57 53 54 56 53 52 49 50 53 54 53 51 51 51 51 50 52 51 49 50 51 52 51 51 51 50 49 48
40 35 33 32 44 45 38 44 43 40 41 40 35 47 53 51 48 46 48 48 50 51 48 49 50 50 48 47 48 47 48 49 47 47 48 49 50 50 50 50 49 47 47 47
41 37 36 35 43 32 49 55 50 44 44 48 47 49 51 51 52 49 47 50 50 49 48 49 48 47 46 47 46 47 48 46 47 46 47 49 50 49 49 48 46 46 46 46
45 39 36 34 36 43 50 51 47 42 41 48 48 52 54 54 47 45 48 53 51 51 50 49 48 46 45 44 46 47 46 46 47 46 48 50 49 48 47 45 45 45 45 45
44 43 36 36 30 30 48 52 52 50 37 52 47 49 52 54 40 41 47 53 51 48 47 44 44 43 41 42 44 43 43 44 45 48 49 50 49 47 45 44 44 45 45 43
35 35 32 32 32 42 56 55 53 41 40 50 47 47 52 48 46 47 49 50 52 47 45 46 46 43 44 47 50 49 50 48 49 49 49 47 46 44 44 44 44 44 43 42
38 34 33 34 32 32 57 56 47 53 52 52 46 48 47 49 47 46 49 48 49 49 51 53 52 52 54 55 52 48 45 46 45 43 42 41 42 44 45 43 43 42 42 42
43 47 40 43 45 59 59 56 59 57 54 53 51 46 46 44 41 43 45 44 42 42 41 44 46 45 46 45 44 39 40 41 40 40 40 41 43 44 44 43 42 42 42 41
52 56 49 50 57 58 60 61 56 53 52 51 49 51 47 45 46 46 46 45 45 46 44 45 46 45 42 42 41 40 40 41 41 41 42 42 42 42 42 40 41 41 40 39
53 52 51 52 57 60 56 54 53 50 49 49 48 49 52 45 42 42 40 44 46 47 48 49 47 42 39 39 39 40 41 43 42 42 41 41 40 41 40 40 41 41 40 37
55 53 50 51 56 56 54 53 52 50 46 48 47 47 50 49 45 46 45 46 46 46 46 43 40 38 38 39 39 41 45 44 42 40 40 40 40 41 40 40 40 36 36 36

GFSCGP_sfc_temp_048.txt.gz
Temp
53 46 41 46 49 51 50 46 44 50 57 52 50 50 54 59 60 60 61 63 64 66 70 71 72 71 72 74 73 76 74 74 75 70 73 73 72 71 70 69 72 71 67 64
45 38 51 55 54 51 49 44 44 50 56 50 48 48 54 57 58 60 61 62 63 65 65 68 69 69 70 71 71 72 73 74 75 76 72 73 62 61 60 64 68 67 64 61
42 47 54 51 49 45 45 42 43 44 49 50 46 43 49 57 59 61 63 64 64 64 65 67 67 68 67 70 69 72 71 72 74 72 70 61 59 57 55 57 57 59 57 56
46 53 49 46 46 47 40 49 49 46 40 32 44 28 43 51 54 57 57 58 61 64 66 66 66 65 69 68 71 69 71 72 71 71 70 63 62 57 52 52 53 56 55 57
41 45 44 43 46 50 43 49 45 44 37 33 36 28 38 50 50 54 56 59 60 61 62 63 64 66 67 65 65 72 69 73 70 74 72 62 58 53 53 54 53 54 55 57
48 54 49 47 51 50 49 44 43 40 35 26 34 34 34 44 50 53 58 57 60 60 60 61 63 64 62 63 63 64 66 67 68 71 67 62 58 53 50 50 49 50 52 54
43 44 49 51 45 48 46 39 24 24 23 22 44 36 39 52 56 57 57 54 58 57 58 59 59 60 61 62 61 63 65 65 66 65 63 63 56 53 50 49 49 51 52 52
33 30 43 49 45 39 40 38 26 20 21 28 41 31 40 55 59 57 58 58 57 57 58 57 57 59 60 61 61 61 63 64 64 64 62 61 56 52 50 50 52 50 51 52
35 36 49 49 50 47 40 33 40 31 32 21 32 40 50 57 55 56 56 56 56 57 58 55 58 59 61 60 61 62 62 62 63 63 62 59 56 52 50 50 53 52 53 55
44 32 44 47 49 49 42 46 30 27 13 17 30 35 39 46 49 54 53 53 55 56 55 56 57 58 61 61 61 62 62 61 62 62 61 58 54 53 51 54 53 53 55 54
47 38 36 42 37 36 38 36 36 34 28 19 21 31 46 46 50 49 51 54 55 53 55 55 55 57 60 60 60 60 61 61 61 62 58 53 51 52 53 53 53 53 54 53
47 39 31 34 44 47 45 38 37 24 22 27 23 30 53 50 49 50 50 55 55 56 56 54 54 55 57 59 59 59 62 63 60 57 52 50 50 51 52 52 52 53 53 54
46 35 28 33 37 45 36 41 41 38 34 27 25 30 53 53 53 55 55 54 55 56 56 53 52 55 56 55 58 59 61 57 54 52 50 49 50 51 52 52 53 53 53 51
49 39 29 24 34 39 29 37 39 35 29 31 32 35 43 48 49 50 51 54 54 55 55 51 50 53 53 53 56 57 55 54 51 49 49 50 51 51 52 52 52 51 51 49
43 31 35 37 40 41 38 37 37 34 34 29 36 37 43 45 46 48 50 50 50 54 51 50 49 52 53 53 54 53 53 50 50 49 50 49 51 51 51 50 50 47 48 46
44 32 36 29 39 40 35 40 40 41 41 37 38 38 46 51 51 49 48 47 47 49 47 47 49 52 51 51 51 51 49 48 50 49 49 50 49 49 48 48 47 45 43 43
39 35 32 30 39 40 35 41 42 40 43 41 36 43 49 47 50 45 45 46 48 49 47 48 48 48 47 48 48 47 47 49 49 48 48 48 48 47 46 46 45 42 42 41
40 37 35 28 35 26 43 50 48 43 44 46 45 48 51 50 47 45 46 47 47 49 48 48 47 46 46 47 47 47 47 47 46 46 46 47 47 45 45 44 42 41 42 40
45 39 34 31 33 38 44 47 43 41 41 46 44 47 50 49 46 43 46 49 48 47 47 46 46 45 45 45 46 45 45 44 44 43 44 46 45 44 44 42 41 39 38 41
44 41 35 31 27 26 42 47 50 48 36 49 45 45 47 45 41 40 45 45 45 45 45 42 43 44 43 43 45 43 43 42 41 42 44 45 43 42 40 38 39 41 41 40
34 35 32 31 30 35 49 48 49 36 39 48 46 46 45 40 43 45 44 41 41 40 40 42 41 39 40 42 41 39 38 37 38 39 38 39 41 40 41 41 41 40 37 36
34 32 31 32 29 26 50 48 43 47 49 50 46 46 45 44 44 46 46 41 40 40 40 40 38 38 40 41 39 36 35 37 39 39 40 41 42 43 42 39 37 36 35 34
37 40 37 37 37 49 50 50 52 51 48 48 47 45 45 42 42 43 42 40 40 41 44 45 42 40 43 44 43 37 36 40 40 40 39 40 40 39 38 35 34 34 34 33
45 49 42 42 48 49 50 52 49 47 46 48 44 45 45 42 42 41 40 40 39 40 39 40 39 37 36 38 39 39 40 41 41 39 38 37 36 35 35 34 35 33 32 30
45 48 45 44 49 49 50 48 47 46 46 46 45 46 46 44 43 42 40 43 43 42 41 42 40 38 37 38 39 40 41 42 39 37 34 34 35 34 33 33 31 30 29 30
47 44 42 43 49 49 44 46 48 46 44 46 45 44 44 43 40 42 41 44 45 42 40 39 38 37 37 39 40 41 42 40 37 34 33 32 32 32 31 30 29 37 37 37

GFSCGP_sfc_temp_051.txt.gz
Temp
52 43 37 40 43 45 44 41 41 44 52 47 45 45 50 54 54 56 57 54 59 62 63 64 65 67 68 67 68 70 69 69 70 71 68 67 66 67 65 68 73 69 66 64
44 39 47 50 48 46 44 41 39 46 51 47 44 45 51 54 54 57 57 55 58 62 62 63 65 64 64 67 66 66 68 72 73 71 71 69 66 61 63 64 70 68 63 61
38 45 51 47 45 44 40 37 38 40 45 45 41 40 44 52 54 57 60 61 60 61 59 60 61 62 62 62 64 66 67 67 70 68 61 58 57 56 56 56 59 59 60 58
45 50 48 44 43 44 36 45 45 43 37 29 40 26 36 47 51 52 52 54 59 60 58 60 63 61 62 62 63 65 67 66 68 66 62 62 62 60 55 53 52 54 57 57
39 44 45 41 43 47 40 47 42 40 33 30 32 27 34 42 46 50 49 52 53 56 60 61 59 62 62 62 61 62 64 65 66 69 66 64 60 53 52 51 51 52 53 57
44 51 47 45 48 47 48 42 40 37 32 22 30 30 31 40 46 47 49 54 53 55 55 57 58 59 59 58 58 60 62 63 64 69 64 63 55 51 51 49 50 49 51 53
41 42 46 49 41 44 42 33 18 26 24 20 36 30 33 45 51 52 52 53 55 56 55 56 56 56 56 57 58 58 60 61 62 64 62 58 56 54 52 51 50 49 50 51
27 25 40 46 41 36 36 34 20 15 17 24 36 27 37 49 53 54 56 54 54 52 54 55 56 55 55 56 57 57 58 60 60 59 59 56 54 52 51 50 49 51 52 52
29 31 46 46 47 44 36 29 38 25 26 18 27 35 45 50 49 50 53 53 53 54 54 54 53 55 55 56 56 56 57 58 58 59 54 52 51 50 49 49 50 52 52 53
42 30 44 46 48 48 40 43 26 21 11 14 25 29 36 42 45 48 48 48 51 54 54 54 53 54 56 55 55 56 57 57 58 58 53 52 50 49 49 49 49 52 54 54
45 35 34 43 37 36 37 34 35 30 24 16 17 27 42 43 45 44 47 51 52 53 54 54 53 54 54 54 54 54 55 56 55 55 52 50 48 49 49 50 52 54 53 53
46 38 28 30 41 44 40 36 35 19 19 20 24 27 47 49 46 48 52 53 54 53 56 51 51 52 52 52 53 54 54 53 52 51 50 48 49 50 51 50 53 54 52 53
43 35 28 32 38 42 35 40 38 34 28 19 20 27 48 46 49 52 50 50 51 55 52 49 49 51 50 51 51 51 51 50 50 50 51 50 50 51 50 51 52 52 52 51
49 38 26 23 29 35 29 35 35 35 24 27 27 33 43 46 48 49 49 46 46 49 51 49 49 49 48 48 48 48 49 50 48 49 49 49 49 50 51 52 52 51 50 49
43 27 31 34 37 37 35 34 35 28 34 29 36 36 42 47 46 49 51 48 51 51 50 49 50 47 46 45 46 47 47 48 49 49 48 48 50 50 51 49 49 49 48 47
40 27 34 27 37 37 33 37 37 37 38 38 39 37 47 50 50 51 46 47 47 49 48 49 47 45 45 46 49 48 47 47 49 48 47 49 49 48 47 47 46 45 45 44
38 33 30 24 36 36 28 37 38 38 40 42 35 43 49 48 48 43 44 45 46 47 48 47 43 43 44 47 48 46 47 48 47 47 48 47 47 45 44 44 44 43 42 42
38 37 31 25 30 25 39 46 46 41 43 45 46 47 48 48 45 44 45 46 45 44 46 45 44 43 44 45 46 47 46 47 46 45 44 43 41 40 42 43 42 41 40 39
44 38 33 29 29 34 43 44 42 39 39 48 46 48 48 46 46 42 44 44 42 43 43 43 44 44 44 44 45 44 42 43 42 42 42 39 40 41 41 40 40 41 41 40
43 42 34 30 24 24 42 45 46 46 36 47 47 46 45 42 41 39 40 42 41 42 43 42 43 43 43 43 43 40 39 37 34 36 35 41 40 39 36 37 36 37 40 40
34 35 32 31 27 33 44 47 46 34 36 46 47 46 44 41 42 40 41 39 40 41 40 42 41 40 40 40 40 37 36 34 34 38 37 36 36 35 35 37 39 39 38 37
33 30 30 33 29 24 47 44 40 45 45 46 45 45 42 44 44 41 40 39 39 38 37 38 36 34 38 39 39 34 34 33 35 36 35 34 37 40 41 38 36 35 34 32
34 36 33 34 34 46 46 47 45 47 45 43 46 43 44 43 41 41 40 41 39 38 37 37 36 37 37 36 37 34 32 34 35 37 38 39 39 38 36 33 32 32 33 32
40 46 40 40 47 46 49 44 45 44 42 42 44 44 45 42 43 41 40 40 40 40 39 40 39 37 37 39 39 39 39 40 39 37 36 36 34 33 33 33 33 31 30 28
42 43 42 42 47 43 44 45 43 42 43 43 43 44 45 43 41 41 40 40 40 40 40 39 37 36 36 37 38 39 40 41 38 36 33 33 33 32 30 31 29 28 28 29
41 41 40 40 50 47 43 42 44 42 41 42 43 40 44 43 41 41 40 42 41 41 40 38 37 37 37 39 39 40 41 40 36 32 32 31 30 29 29 28 28 37 37 38

GFSCGP_sfc_temp_054.txt.gz
Temp
50 44 40 40 46 43 44 42 38 43 50 44 44 44 48 52 51 53 54 53 55 58 63 61 62 63 64 65 65 65 67 69 70 68 66 65 66 65 66 65 67 68 65 63
44 40 47 49 46 44 42 37 36 44 48 44 42 41 48 52 53 55 57 58 57 57 58 60 61 61 61 63 63 63 64 69 70 72 71 68 66 65 65 65 64 66 64 63
40 45 50 47 43 41 39 36 37 38 43 41 40 41 44 48 51 55 58 59 59 59 60 60 58 60 60 60 61 63 63 64 69 72 66 59 59 57 57 59 62 63 62 60
45 50 48 45 41 42 36 43 43 41 36 29 39 27 36 43 45 49 48 49 55 58 57 59 59 58 59 59 61 61 63 63 64 63 64 63 64 61 60 61 54 55 58 58
38 43 42 40 42 45 38 45 41 39 32 28 30 28 35 42 44 46 47 50 52 54 55 56 56 59 60 59 58 59 60 62 62 63 64 63 64 60 52 53 53 52 53 55
43 49 46 45 46 47 46 41 37 34 29 17 28 29 32 38 44 46 50 52 54 50 53 55 56 58 57 56 57 57 57 58 60 61 63 64 58 52 51 50 50 50 50 53
40 40 45 48 40 44 41 31 16 16 15 19 33 27 32 42 48 48 50 51 53 52 52 52 52 54 55 54 55 57 57 59 58 58 59 61 58 55 54 52 51 50 49 50
29 27 40 44 41 36 36 32 20 14 18 22 33 26 36 45 49 51 51 50 51 52 52 52 53 53 54 53 54 55 55 56 57 56 58 58 58 56 54 53 51 51 51 49
29 29 44 45 45 43 36 27 36 23 22 16 25 32 41 45 45 47 48 49 48 50 51 53 51 53 54 55 55 55 55 56 55 56 55 52 53 52 51 49 50 49 49 50
37 26 43 45 48 46 39 41 26 19 10 13 23 25 31 38 41 45 45 46 49 53 54 52 53 53 54 54 54 53 54 53 54 54 50 50 50 50 49 49 49 50 50 52
41 32 34 42 37 33 36 31 29 28 23 15 16 27 39 41 43 42 44 47 48 48 50 50 54 53 53 53 52 53 53 52 51 49 48 47 47 47 48 48 49 51 52 52
41 34 28 33 39 42 39 35 32 19 17 17 25 26 44 40 42 44 50 48 51 49 51 50 50 49 49 50 50 51 51 50 48 48 46 45 46 47 46 48 50 51 51 52
41 33 24 28 35 41 33 36 37 32 26 17 17 26 45 43 50 51 48 50 49 48 48 48 49 49 49 50 49 49 47 46 46 46 46 45 45 46 46 47 49 51 51 51
46 35 26 22 28 32 26 33 35 33 21 24 24 31 42 45 48 51 51 51 51 48 51 52 50 50 48 47 46 44 44 44 45 46 46 45 46 47 50 50 51 51 50 48
42 28 30 33 36 35 35 33 33 29 34 24 31 33 40 46 49 50 52 48 49 49 51 51 50 49 46 43 41 42 42 43 44 45 45 45 47 49 49 49 48 48 47 46
41 27 34 27 35 35 31 35 35 35 36 35 36 36 48 52 51 49 44 45 46 47 47 49 48 45 44 39 40 42 43 45 45 45 45 47 48 46 46 46 44 43 42 41
37 31 30 24 34 33 26 34 36 36 37 40 34 42 50 48 48 43 41 43 43 42 46 45 43 43 43 40 42 41 42 43 43 44 44 44 44 42 42 42 41 39 38 38
35 36 32 25 29 23 37 43 43 39 41 44 46 48 49 49 43 42 42 41 41 41 42 42 42 42 43 44 42 41 41 39 39 39 40 41 40 39 39 38 36 35 35 36
42 36 32 29 25 32 40 42 41 38 40 46 46 48 49 48 42 39 41 43 41 42 41 42 43 43 43 42 43 41 39 38 37 37 38 38 38 36 36 35 35 37 38 37
42 41 32 31 22 23 38 43 45 44 34 46 48 47 43 43 40 41 40 41 40 42 42 42 42 42 41 41 41 39 38 37 35 36 35 35 34 33 33 35 35 34 33 34
34 35 32 30 29 30 42 44 45 31 36 45 45 44 42 40 42 41 40 39 41 40 40 41 40 38 39 41 41 36 36 33 33 35 33 33 35 35 34 33 32 33 34 34
32 31 31 31 28 23 45 42 39 44 45 44 43 45 41 42 41 40 40 39 39 38 37 37 35 35 38 39 37 33 32 33 34 35 35 35 35 36 35 33 33 34 33 30
32 35 30 34 33 44 44 45 50 46 43 42 41 42 42 41 40 40 39 39 38 37 36 37 36 36 35 37 36 33 33 35 34 34 33 34 36 38 37 34 31 30 30 29
37 44 38 38 44 43 46 46 44 42 41 41 41 42 43 42 41 40 39 39 38 38 38 38 37 35 34 36 37 34 35 37 38 37 36 35 32 32 32 32 32 30 28 27
39 44 42 38 46 46 43 44 42 41 41 43 42 42 42 44 41 40 39 39 39 39 40 39 37 36 36 37 37 39 39 39 38 35 31 31 32 30 29 29 28 27 27 29
39 39 37 37 48 49 48 43 43 41 40 41 41 41 45 44 41 42 39 41 40 39 39 37 37 36 37 38 38 39 39 38 34 30 30 30 29 28 27 26 26 37 37 38

GFSCGP_sfc_temp_057.txt.gz
Temp
49 43 40 44 46 45 41 38 36 40 48 43 42 41 47 51 48 48 50 53 55 56 62 59 60 61 61 60 61 63 64 69 69 67 66 66 65 66 64 66 68 67 66 63
44 39 46 48 47 43 43 37 35 42 45 42 40 40 47 51 52 53 55 56 56 55 56 57 59 59 60 61 59 60 63 68 69 69 68 67 67 66 66 65 64 66 65 63
41 44 50 46 42 40 37 34 36 37 41 39 38 38 43 48 50 52 54 56 57 57 58 59 55 58 58 58 60 61 60 62 68 70 67 61 60 60 60 60 63 64 63 62
43 48 46 43 41 41 35 42 42 39 35 28 37 27 36 43 44 47 48 49 50 53 57 56 56 55 56 58 59 60 61 60 63 67 66 64 64 63 63 64 64 61 59 58
38 41 42 41 41 44 38 44 40 37 31 27 29 27 35 39 42 47 46 48 50 51 50 53 54 56 57 57 57 57 58 59 59 62 67 65 63 63 60 56 58 53 54 58
42 50 46 43 46 46 45 39 36 32 29 18 28 29 32 37 40 44 47 48 49 49 51 52 53 54 54 55 56 56 57 59 58 58 61 63 64 56 54 53 55 53 52 53
40 40 45 47 40 43 39 32 19 17 15 19 31 28 33 41 44 45 45 45 48 49 51 52 52 52 53 55 55 56 56 57 57 56 56 59 60 56 57 56 56 52 51 50
29 29 39 44 40 37 34 33 22 16 15 21 30 25 34 44 46 47 47 44 48 48 48 51 53 52 51 52 54 54 55 56 56 54 54 55 58 57 56 54 55 54 53 51
27 27 41 44 44 42 35 26 34 23 22 17 24 30 39 43 42 44 46 48 46 48 48 48 52 53 52 53 54 53 53 54 55 54 52 53 54 53 53 51 51 50 49 50
35 26 42 42 46 44 38 40 26 19 13 16 24 25 31 36 39 42 43 44 46 48 49 48 49 51 53 53 54 53 52 53 53 52 51 51 52 52 49 49 47 47 48 49
39 32 34 41 37 34 33 29 29 28 23 17 17 28 36 38 40 41 43 45 46 46 47 48 48 48 48 51 49 50 50 51 52 50 47 47 46 45 46 46 47 47 49 49
40 33 30 34 38 41 38 34 31 20 18 17 23 25 41 42 43 43 46 47 50 48 47 47 47 49 47 47 48 48 48 49 49 45 44 43 44 44 44 45 46 48 48 49
41 30 19 30 37 40 33 35 33 29 24 15 16 26 42 39 42 46 51 53 53 52 52 51 52 54 49 45 44 43 42 42 43 43 42 42 42 43 47 49 50 51 50 50
45 33 26 22 28 32 24 32 32 32 21 22 23 28 38 43 44 50 52 47 45 50 48 47 47 50 48 43 44 44 43 41 43 43 42 42 45 47 47 48 49 50 50 48
40 28 29 32 35 34 33 32 32 29 31 23 28 31 38 45 46 50 46 46 46 47 45 45 48 47 42 44 43 41 42 42 44 44 45 45 47 47 48 48 48 47 46 45
39 27 31 26 34 34 31 34 34 34 35 34 36 35 47 50 52 49 44 43 44 44 43 46 45 44 41 40 37 39 39 42 44 45 44 46 46 45 44 43 42 42 41 40
38 30 29 21 33 32 27 32 34 35 35 38 32 41 50 48 49 45 42 42 42 42 42 41 41 42 41 40 38 37 39 43 42 41 41 42 42 41 41 41 40 38 37 37
34 32 33 26 28 24 35 40 41 38 40 41 45 47 49 49 46 43 42 41 41 41 41 41 42 42 41 41 41 41 40 39 39 38 38 39 39 38 38 37 35 34 34 34
40 35 32 29 26 30 37 39 37 36 39 44 44 48 49 47 41 42 42 41 41 41 41 41 42 42 42 40 40 39 38 38 37 36 35 36 38 36 35 33 33 33 33 32
42 40 31 30 24 22 35 40 44 44 35 46 48 48 42 41 38 40 39 39 40 41 42 41 40 41 39 40 41 39 38 37 35 36 35 36 35 35 33 33 32 32 33 32
34 35 31 31 28 30 40 44 45 32 36 48 44 44 45 42 42 39 39 37 37 40 39 40 39 38 39 39 38 35 34 32 33 36 35 35 35 34 33 32 32 32 33 32
33 31 31 32 28 23 43 41 38 46 46 47 43 44 44 42 41 40 38 38 38 37 37 37 36 36 38 38 36 33 32 33 33 33 33 33 33 35 35 33 33 30 30 30
31 34 31 33 32 42 46 45 49 49 45 44 42 42 42 40 40 40 39 39 36 37 37 37 36 36 37 37 35 33 33 35 35 34 34 34 35 36 34 31 29 28 28 27
36 42 35 36 43 44 47 45 45 47 42 40 42 43 43 41 41 40 39 38 37 37 37 37 36 35 34 36 35 35 36 37 36 34 35 32 30 29 29 30 29 27 26 26
38 41 41 40 42 46 47 45 48 45 41 41 42 42 43 42 41 40 39 37 37 38 38 37 37 36 35 36 36 38 38 39 37 31 30 29 29 27 27 28 26 26 26 29
37 37 35 34 43 45 45 48 46 41 41 42 42 40 42 44 41 41 39 40 39 36 37 36 37 36 36 37 38 39 39 37 31 29 29 28 27 27 27 26 25 38 37 38

GFSCGP_sfc_temp_060.txt.gz
Temp
49 42 40 44 47 43 40 37 36 39 45 41 40 39 45 51 47 46 48 50 52 55 59 58 59 59 60 58 58 61 61 66 67 66 66 66 66 66 66 65 67 63 64 62
41 35 46 51 48 45 43 39 35 40 44 41 40 38 46 51 49 51 52 53 52 54 55 56 57 57 58 59 57 58 60 65 66 67 67 69 68 67 67 66 65 64 63 61
40 40 47 45 42 40 40 37 35 36 40 38 36 37 41 47 49 49 51 52 51 52 55 58 54 55 56 56 57 57 58 62 65 68 67 62 62 61 63 64 64 63 63 62
42 46 44 43 40 41 33 42 41 39 34 29 36 27 36 41 44 46 45 47 48 48 49 51 53 54 53 55 56 57 58 58 60 64 65 64 65 64 65 65 65 63 62 61
38 42 42 40 42 44 37 44 40 36 30 26 30 28 35 38 41 43 43 44 46 48 49 51 51 53 54 54 53 55 56 57 58 59 64 63 63 63 59 61 62 62 58 61
42 49 47 44 45 45 43 38 35 31 29 18 26 28 32 36 37 41 43 45 46 47 49 51 50 52 51 52 52 52 54 56 56 56 58 62 63 59 55 56 60 57 56 57
38 39 44 47 40 44 39 32 17 17 15 18 29 26 32 39 42 42 42 45 45 46 48 50 51 51 52 52 52 54 53 54 55 54 55 60 62 59 58 58 59 57 55 54
27 28 39 44 40 36 33 32 22 15 16 22 30 24 33 40 42 45 44 44 45 47 46 47 49 50 50 51 51 52 53 53 54 53 53 53 56 57 58 56 57 57 56 56
28 28 42 44 44 42 32 25 33 22 20 16 24 29 38 41 40 42 44 45 44 46 47 47 47 48 50 50 51 50 51 52 52 52 51 51 52 54 55 53 53 52 51 50
32 26 40 42 45 43 37 38 26 21 14 15 23 24 31 35 37 42 43 43 45 46 46 46 47 48 49 49 49 48 48 49 50 49 49 50 50 52 52 49 49 47 47 48
37 32 34 40 37 33 34 30 29 27 22 18 18 29 36 38 40 38 41 43 43 45 46 46 47 47 47 47 47 46 46 47 47 47 46 46 46 46 46 45 44 45 46 47
39 34 30 33 37 40 37 33 30 21 19 20 21 26 39 39 40 43 44 46 47 47 47 47 47 46 47 45 44 43 42 42 43 43 43 44 47 47 46 45 45 46 47 49
40 30 24 30 36 39 33 34 32 28 24 21 18 27 42 36 39 43 45 51 45 45 45 45 46 45 45 41 41 40 40 40 41 42 41 44 45 47 47 47 48 49 49 49
45 32 26 23 28 31 24 32 32 28 19 22 21 28 36 41 42 43 47 47 43 48 43 43 42 43 40 40 40 40 40 41 41 42 43 45 46 46 47 48 48 49 49 47
40 28 29 33 34 33 32 32 31 27 28 23 27 28 37 41 44 46 50 45 42 43 40 41 40 37 37 39 41 42 39 40 42 41 42 44 46 46 46 45 45 45 44 44
38 26 30 26 34 33 31 33 33 32 33 31 33 33 47 50 50 49 45 42 40 41 42 42 40 41 39 39 36 37 37 39 40 40 42 43 43 42 42 42 41 40 40 41
35 30 26 21 31 31 26 32 33 33 33 36 29 40 49 47 48 46 42 41 40 41 41 41 39 40 40 40 40 38 39 42 41 41 41 41 41 40 39 39 38 38 37 37
34 33 31 27 28 22 35 39 40 37 38 39 41 46 48 49 46 43 42 39 38 40 40 40 41 40 40 40 40 40 40 39 39 39 39 40 39 37 37 37 36 35 35 35
42 37 32 28 25 30 36 37 36 36 36 42 42 46 49 47 43 39 41 41 37 38 41 41 40 40 40 39 40 39 38 38 37 36 36 37 37 36 35 33 33 34 33 33
40 38 30 29 24 22 34 39 42 42 36 47 46 46 45 43 38 40 39 39 36 38 41 40 40 40 39 39 40 37 35 35 34 35 35 36 35 34 33 33 32 32 33 32
33 34 30 29 28 29 38 43 43 33 35 47 46 43 45 41 42 39 39 36 37 40 39 39 39 37 38 38 37 34 34 33 34 36 35 35 35 34 33 33 32 32 32 31
33 31 31 31 27 22 41 41 39 46 46 45 42 43 44 40 40 40 39 38 36 37 38 38 37 36 37 38 36 33 32 33 34 35 34 33 33 34 34 32 32 31 31 30
31 33 33 32 32 40 46 45 49 48 47 43 40 41 43 41 40 40 37 38 34 36 37 37 36 36 36 36 35 33 33 36 35 34 34 34 34 35 33 30 29 27 28 27
33 38 36 35 42 41 46 47 46 44 43 41 40 42 41 41 41 40 38 36 36 37 36 37 36 35 34 35 36 35 36 36 35 33 33 30 28 28 28 29 28 26 26 25
36 37 37 37 40 43 44 47 48 46 44 41 41 41 42 41 41 40 38 37 37 38 38 38 36 35 34 36 36 37 38 39 34 29 29 28 28 26 26 27 25 25 25 28
36 36 34 33 41 41 42 47 47 44 42 41 40 40 41 43 41 41 39 39 37 36 34 37 36 36 36 37 37 38 38 33 30 28 28 27 26 25 26 25 24 38 37 38

GFSCGP_sfc_temp_063.txt.gz
Temp
48 42 39 44 46 46 43 41 39 42 49 47 44 43 48 52 52 52 54 56 58 59 62 63 65 65 65 65 64 66 67 71 71 68 66 66 65 67 67 68 70 69 69 68
41 37 44 50 48 46 44 40 39 43 47 46 42 42 48 52 52 54 55 56 55 57 59 60 62 63 63 65 65 64 65 69 70 71 71 70 69 68 69 68 68 69 69 67
38 38 46 46 45 41 42 40 38 40 43 43 40 41 45 51 51 52 52 53 54 53 53 55 57 59 60 60 62 64 64 66 69 71 70 67 68 66 67 66 66 67 68 67
39 45 43 40 39 41 37 44 43 41 39 34 40 34 41 45 45 46 48 50 51 51 53 54 56 57 58 59 59 60 62 63 65 69 69 68 68 66 68 68 68 67 66 67
37 41 41 36 37 41 37 42 42 38 34 35 36 34 40 44 42 44 47 49 50 51 52 54 55 56 57 56 56 58 59 61 63 66 69 68 67 68 69 68 68 67 64 65
41 48 44 42 44 44 43 40 37 34 32 25 31 33 37 41 43 46 48 49 49 50 52 54 55 55 56 56 56 57 58 59 60 61 63 66 66 66 63 64 64 66 63 62
36 38 44 47 40 45 41 36 25 23 23 26 32 30 37 43 46 48 48 49 49 50 51 52 53 54 55 55 55 57 57 58 59 60 60 62 65 66 64 65 64 65 59 58
31 29 39 45 41 37 37 37 27 21 22 26 32 28 37 43 45 49 50 49 48 50 51 51 52 52 53 54 55 55 55 56 57 58 59 59 60 63 63 64 63 64 62 61
29 30 44 44 44 43 36 31 36 23 23 22 29 34 42 45 45 47 47 48 48 50 50 50 52 53 53 53 54 52 53 54 56 56 56 57 57 57 59 61 61 62 61 59
35 30 41 42 45 43 39 39 29 24 18 22 27 29 34 39 43 46 46 47 48 49 49 50 51 51 52 53 52 52 52 51 52 52 53 54 54 55 56 58 57 57 56 55
38 33 34 41 37 34 35 31 30 30 26 23 24 32 39 41 44 44 46 47 48 48 49 49 50 51 51 50 49 49 49 49 49 50 50 49 49 50 51 52 52 53 52 52
39 35 30 33 39 41 39 34 32 23 23 23 23 31 43 42 43 43 46 48 48 48 48 48 48 48 48 47 47 46 46 47 47 47 47 48 50 51 50 49 49 50 50 51
41 30 26 30 36 39 35 36 34 31 28 23 24 32 43 42 43 45 46 48 46 47 46 45 46 45 45 44 44 44 45 45 46 47 48 49 49 50 49 49 50 50 50 50
44 33 29 25 31 33 27 32 33 30 25 26 25 31 40 43 43 46 47 47 46 45 43 44 43 42 42 42 43 44 44 45 45 46 46 46 47 47 47 48 49 49 49 48
40 29 31 34 35 35 33 33 32 27 29 27 31 30 38 42 43 46 48 46 45 43 42 43 42 41 41 41 40 41 42 42 44 44 44 43 45 45 44 43 43 43 43 43
38 28 31 28 35 34 31 34 33 34 34 32 33 34 46 49 51 49 45 44 43 42 42 43 42 41 40 40 39 40 40 41 43 42 42 43 42 42 40 40 40 40 40 41
35 31 27 23 32 32 27 32 33 34 35 37 31 39 48 47 48 46 44 43 42 41 42 42 41 40 39 39 40 39 40 42 41 41 41 41 40 39 38 39 38 37 36 37
34 32 31 26 29 23 36 40 40 37 38 38 40 45 48 49 47 43 43 42 40 40 40 41 41 40 40 40 40 41 41 40 39 38 38 39 38 37 37 36 34 33 34 34
43 38 31 27 25 31 36 37 36 36 37 42 42 46 48 49 45 41 42 42 40 39 40 41 41 41 41 40 41 40 38 38 37 36 36 37 37 36 35 33 33 34 33 32
41 39 31 26 22 23 35 42 43 42 35 48 46 46 46 45 40 43 40 40 39 40 41 40 40 40 39 39 39 37 35 35 34 35 35 36 35 35 33 33 33 32 32 32
33 33 29 27 23 30 40 44 43 33 37 48 47 46 46 42 43 40 39 38 39 39 39 40 39 37 38 39 37 34 34 33 34 36 35 35 35 34 34 33 33 32 31 31
32 30 30 31 24 22 41 42 39 46 45 47 44 44 44 43 40 40 39 37 37 37 38 38 37 36 37 37 35 34 32 34 35 35 34 33 34 35 34 33 33 33 33 32
31 33 33 33 33 42 46 44 49 48 45 43 43 42 44 41 40 39 36 36 36 37 37 38 38 36 37 36 36 34 34 36 36 35 34 34 35 35 34 34 33 32 32 32
33 37 36 35 42 40 46 47 47 48 46 42 42 43 42 42 41 40 38 36 36 37 37 37 37 35 34 36 36 36 36 37 36 35 33 33 32 31 32 33 32 31 31 30
35 36 36 35 39 42 43 45 47 48 46 44 43 43 42 42 40 40 37 37 37 37 38 38 37 35 34 36 36 37 38 38 34 33 32 32 31 30 30 31 32 32 31 33
35 35 33 33 41 41 42 45 48 47 45 45 42 40 41 43 41 41 39 38 38 38 38 37 37 36 36 36 36 38 39 35 33 31 31 31 30 31 31 31 31 38 38 38

GFSCGP_sfc_temp_066.txt.gz
Temp
52 42 39 44 53 56 55 49 47 51 55 53 53 54 57 62 64 64 67 69 70 72 75 75 76 77 77 78 79 80 80 81 82 74 68 68 67 69 70 72 78 79 79 78
45 37 47 51 52 52 51 49 48 48 54 53 51 51 57 60 61 63 65 67 69 69 70 71 72 74 75 76 78 77 79 80 81 81 76 76 74 72 71 70 70 75 76 76
42 42 49 46 47 46 49 49 48 47 48 51 49 50 54 56 57 59 60 62 63 63 63 66 68 69 70 71 73 75 76 76 78 80 81 77 76 72 70 68 69 71 72 74
42 45 45 43 42 46 38 51 50 47 46 43 48 45 49 52 52 56 59 61 62 62 65 66 66 66 66 67 68 69 71 73 74 76 77 76 73 71 72 74 74 74 72 69
36 39 38 34 41 46 39 51 49 47 44 44 44 43 48 52 49 53 57 59 60 62 63 64 64 65 66 65 65 67 68 70 72 73 74 75 74 75 75 75 74 74 72 68
40 46 43 42 43 45 43 42 45 46 44 34 43 42 45 49 52 53 56 58 59 61 63 64 64 66 66 67 66 66 68 68 69 70 72 72 73 73 72 73 72 73 71 67
36 37 41 44 36 40 41 40 31 31 32 36 39 38 47 51 53 56 55 57 58 61 62 63 63 64 64 64 65 66 67 67 68 68 69 70 71 72 72 72 71 71 68 65
33 30 36 40 42 40 42 42 38 29 32 37 38 36 46 51 55 57 56 57 57 59 61 61 62 62 63 64 64 65 65 66 67 68 68 70 70 70 70 71 71 71 71 67
34 32 41 43 45 48 42 39 44 34 33 36 43 43 49 51 52 54 55 56 56 58 59 59 61 62 62 62 62 62 62 63 64 64 65 67 68 66 67 69 70 69 69 67
42 32 42 44 49 48 46 47 37 35 29 30 37 40 43 45 49 53 54 56 57 57 58 59 59 60 61 61 61 61 61 60 60 61 62 63 63 64 64 65 66 67 67 66
47 42 36 44 41 40 41 40 38 41 37 36 36 42 55 51 53 53 54 55 56 56 57 58 58 59 58 58 58 58 58 58 58 59 58 56 57 59 59 59 60 60 60 59
46 43 34 36 44 47 45 43 43 36 31 34 36 41 53 56 54 52 54 56 56 55 55 55 56 56 56 55 56 55 56 56 56 57 58 56 58 59 58 58 58 58 56 57
49 40 30 32 40 44 40 42 42 39 37 31 36 40 51 53 52 55 54 56 55 54 54 55 54 53 53 53 53 53 54 54 55 55 56 56 56 56 56 56 56 54 53 52
50 41 36 34 38 41 33 38 40 35 33 36 39 42 48 51 53 56 56 56 55 53 51 53 53 52 52 50 50 51 52 53 53 53 53 51 50 51 52 51 51 49 50 49
49 36 37 39 40 40 38 37 37 33 38 35 41 42 50 52 54 55 57 54 52 50 50 50 48 49 50 49 50 50 50 50 51 50 49 48 48 48 46 45 44 45 45 44
47 36 38 33 39 39 35 39 39 39 41 40 41 42 55 57 57 54 53 49 48 46 47 48 46 46 49 48 47 48 48 49 50 48 47 47 45 44 42 42 41 41 41 41
43 39 36 31 37 37 33 38 39 40 42 43 37 47 54 52 53 51 50 47 46 46 48 46 45 44 46 47 47 47 47 48 47 44 45 44 44 43 41 40 40 36 36 36
42 41 39 35 36 28 41 46 45 42 44 46 47 49 51 52 53 48 48 48 45 44 46 47 45 44 45 47 47 47 47 46 44 43 43 42 41 39 38 37 35 34 34 33
49 44 36 33 34 38 40 42 42 41 42 50 48 50 51 52 48 47 47 46 44 45 47 46 46 44 44 45 45 44 43 43 42 40 39 40 39 37 36 35 34 35 34 33
45 46 41 33 28 29 41 46 50 49 36 51 50 50 49 49 46 50 45 43 43 46 47 44 44 44 44 43 43 42 40 38 36 37 36 37 37 36 34 35 34 33 34 33
38 38 35 36 33 39 47 49 50 36 40 52 52 51 50 48 49 46 43 42 45 45 43 43 43 42 42 41 40 37 36 34 36 37 37 36 36 35 34 33 33 33 34 34
38 36 35 36 32 30 50 47 43 50 53 53 52 53 51 49 43 42 42 42 43 43 43 41 40 39 41 41 38 35 34 35 35 36 35 35 35 36 36 35 37 38 38 38
37 44 42 42 43 49 52 52 56 55 51 51 51 52 51 46 43 42 41 42 41 42 41 41 41 40 39 39 38 35 35 37 37 37 36 37 40 42 43 42 40 40 40 40
44 46 44 43 49 50 53 56 54 54 52 51 51 51 50 48 47 43 41 40 40 41 41 40 39 38 36 38 38 37 37 40 41 40 41 42 41 41 41 41 42 41 40 40
47 46 45 44 49 52 52 53 54 52 52 50 51 51 51 50 46 44 40 41 41 41 41 40 39 38 36 37 38 39 41 44 42 42 41 41 40 40 40 40 42 41 40 40
45 47 44 44 52 51 53 54 51 49 51 50 50 50 50 50 48 45 40 42 42 42 42 41 41 38 38 40 41 42 42 44 42 40 39 39 39 40 40 40 39 39 38 37

GFSCGP_sfc_temp_069.txt.gz
Temp
48 44 37 44 50 54 56 53 52 57 58 55 55 57 60 65 64 65 69 72 73 74 79 81 81 82 81 82 82 84 83 84 84 83 73 69 67 70 76 81 83 82 83 81
46 40 48 50 52 50 53 52 52 56 59 53 56 55 62 63 63 65 67 70 72 74 77 77 77 78 79 79 80 80 82 83 84 84 81 74 72 70 72 71 74 78 81 80
45 45 52 45 45 44 46 50 53 51 54 54 53 51 55 61 64 66 65 67 70 69 69 71 73 73 74 74 77 78 80 81 82 83 84 79 78 78 72 69 70 72 75 78
49 48 49 45 40 43 43 57 57 52 47 41 52 44 54 59 56 58 62 65 66 66 67 68 68 68 68 70 72 73 75 77 79 80 80 80 77 74 76 76 75 73 73 72
36 44 44 43 40 43 43 54 55 52 49 48 45 42 51 55 51 56 61 62 64 65 66 66 66 67 68 67 67 69 70 72 74 76 76 77 76 78 78 78 76 77 76 72
41 48 44 43 43 44 51 51 49 49 46 35 48 46 44 50 54 56 60 62 63 64 66 67 67 69 68 68 68 69 70 70 72 72 73 73 73 75 74 74 74 76 76 75
36 37 41 43 36 41 43 39 31 30 30 36 47 42 50 54 59 59 59 61 62 64 65 66 65 66 66 66 67 68 69 69 71 71 71 72 72 73 73 73 74 73 73 70
33 30 34 40 39 36 38 37 34 30 34 39 43 38 48 57 60 60 61 61 62 63 64 64 64 65 66 65 65 66 66 67 68 69 70 71 72 71 72 73 74 74 73 73
34 32 39 41 44 44 37 36 47 39 42 40 43 48 52 53 55 57 58 59 59 61 62 62 64 64 65 64 64 64 64 65 65 65 67 69 70 69 68 70 71 71 72 70
44 32 38 40 45 49 45 48 38 37 30 32 42 45 46 47 50 55 56 58 59 60 61 62 62 62 63 63 63 63 63 62 62 63 64 63 64 64 65 66 67 67 68 68
51 44 37 44 39 39 43 41 42 43 40 37 36 44 56 52 54 55 57 58 59 59 59 60 61 62 61 61 61 61 61 60 60 61 61 60 61 62 62 62 62 62 63 62
51 45 34 39 47 50 49 47 48 37 34 37 37 41 58 58 57 57 57 58 60 58 57 58 58 59 59 58 58 58 59 58 59 60 61 60 61 61 61 60 60 60 59 60
52 42 32 34 42 46 42 46 47 43 39 34 37 40 59 59 56 57 57 59 59 58 57 57 57 57 56 56 56 56 56 56 57 58 58 56 56 57 56 56 56 56 55 54
53 45 38 36 39 43 35 42 43 35 34 40 42 44 49 53 54 58 59 59 59 57 56 56 56 55 55 54 54 54 54 55 55 55 54 52 52 52 51 51 51 50 50 48
52 38 40 43 44 43 40 39 41 33 40 36 45 47 51 55 56 58 59 58 57 55 54 54 53 54 54 53 53 53 52 53 54 52 51 49 49 48 47 46 45 45 45 46
51 38 41 35 42 42 37 42 43 41 43 44 46 45 57 60 60 58 58 56 53 52 51 52 50 51 52 52 51 51 51 51 52 50 49 48 48 46 44 44 44 44 43 43
47 43 39 34 40 40 35 41 42 43 46 46 39 49 56 54 55 56 55 52 51 50 51 51 50 50 50 50 51 50 50 51 49 48 47 47 46 43 42 42 41 39 38 37
46 44 42 37 39 29 42 49 48 45 47 49 50 52 54 55 57 56 54 53 51 49 49 50 50 48 49 50 50 50 50 48 46 46 45 45 43 40 38 37 35 35 35 34
52 47 40 35 36 42 42 44 44 43 43 51 49 53 55 55 51 50 53 52 50 48 50 51 51 49 47 48 48 46 46 45 44 42 40 41 40 37 36 35 34 35 34 33
48 49 42 36 30 30 43 48 53 52 38 52 53 52 51 51 46 50 50 48 45 49 50 48 47 46 46 45 46 43 42 42 39 38 38 38 37 36 35 35 34 33 34 34
40 41 36 37 35 41 50 51 53 36 39 52 54 54 52 51 51 50 47 44 49 49 47 46 45 44 44 43 43 39 38 35 36 38 37 37 36 35 35 34 34 35 35 36
40 38 37 38 34 31 52 49 44 49 55 55 54 55 54 51 47 46 44 44 47 46 44 44 42 41 43 42 39 35 34 36 36 37 36 35 37 38 38 36 38 39 39 39
39 46 43 44 43 52 56 55 57 57 54 54 53 55 53 51 45 45 43 45 46 46 45 43 41 42 40 40 38 35 36 37 37 37 38 39 41 43 44 43 42 42 43 42
48 51 46 45 52 53 56 58 57 57 54 53 54 54 53 51 49 46 45 44 44 45 44 45 44 39 37 39 39 38 38 41 42 42 42 43 43 43 43 42 44 42 42 40
49 49 48 48 53 54 56 58 56 54 54 51 52 54 54 54 51 47 45 44 45 44 44 43 41 39 38 39 38 41 42 44 44 44 43 42 42 42 41 41 42 41 39 38
51 49 46 46 54 54 54 57 55 53 52 52 51 53 53 53 53 50 45 45 46 45 44 41 42 39 38 39 40 42 45 46 44 42 41 40 40 41 40 38 37 38 38 37

GFSCGP_sfc_temp_072.txt.gz
Temp
47 40 38 43 48 48 47 46 45 50 57 52 51 50 55 60 58 58 60 61 63 66 68 70 71 69 69 71 72 72 73 74 73 73 67 66 68 66 67 70 74 74 73 73
41 37 44 51 51 47 48 46 46 53 55 51 51 50 57 59 58 59 61 61 62 63 66 68 68 64 68 69 69 69 70 71 72 72 71 68 67 67 70 66 68 69 70 70
38 42 48 48 46 44 45 41 43 48 51 47 45 45 52 58 60 61 62 61 61 60 60 62 63 64 63 63 64 67 69 70 71 72 71 68 67 65 64 66 69 69 68 68
41 51 47 45 43 46 39 49 48 51 43 33 46 32 47 54 55 57 55 57 58 56 58 60 61 61 60 59 60 61 63 64 67 68 68 66 67 65 65 65 67 68 69 69
37 43 43 38 40 46 40 46 50 47 42 40 39 31 45 52 50 51 52 55 56 57 58 58 59 61 60 59 58 60 62 63 64 65 65 63 62 64 66 66 65 65 65 67
41 48 44 44 46 45 44 40 43 45 41 29 38 35 37 44 50 51 54 55 57 57 58 59 60 62 60 60 59 60 62 62 63 62 62 61 60 61 62 63 63 63 64 65
38 37 42 44 38 41 38 34 30 28 28 25 43 36 41 50 55 54 53 54 56 57 57 57 57 57 58 57 58 61 60 60 61 61 61 61 61 60 60 62 62 63 62 63
32 28 36 40 40 36 35 37 32 25 23 28 40 29 38 51 56 58 57 55 56 56 56 56 56 56 57 57 56 56 57 58 58 58 59 59 60 58 58 60 61 61 62 62
30 30 38 40 42 43 36 34 39 33 36 27 32 37 43 47 51 52 53 54 53 55 55 55 56 56 56 55 55 55 55 56 56 56 56 55 55 55 55 57 58 58 59 61
41 30 38 39 43 43 39 45 32 32 26 26 31 33 34 40 46 50 51 51 53 54 55 54 54 54 54 54 54 54 55 54 54 54 53 54 54 54 54 55 54 55 55 56
47 40 35 39 37 36 36 34 38 39 34 26 23 30 45 45 48 49 51 53 53 53 53 53 54 54 53 52 52 52 52 52 52 53 53 51 52 53 53 51 51 52 52 52
48 40 32 37 45 48 45 43 42 27 27 30 27 29 50 48 49 51 51 54 54 54 52 53 52 52 51 50 50 50 50 50 50 51 51 50 50 50 49 48 49 50 48 49
47 36 29 32 38 43 38 43 44 38 35 31 25 29 50 48 48 50 50 52 53 53 52 52 51 51 49 49 48 48 48 48 49 49 48 47 46 46 44 45 46 46 45 44
49 40 31 25 32 38 30 38 39 33 28 32 31 38 44 47 47 50 51 52 52 52 52 51 49 48 47 47 47 46 46 47 48 47 45 43 42 42 42 43 43 43 42 41
46 32 34 39 41 41 37 36 37 28 33 26 37 41 45 49 48 50 52 53 52 51 50 50 49 47 47 46 46 45 45 46 46 45 43 42 42 42 41 40 41 41 40 41
46 32 35 29 41 40 34 40 39 38 38 39 41 40 51 53 53 52 50 51 50 49 49 48 48 47 45 44 44 46 44 44 45 43 42 43 42 41 41 42 41 41 40 40
43 36 31 26 36 36 29 37 39 39 41 41 34 42 49 49 52 50 49 49 48 48 50 49 46 46 45 44 45 43 43 44 43 42 42 42 41 40 39 39 38 37 35 35
41 39 36 27 31 22 37 45 46 42 45 45 46 47 50 49 48 48 48 47 46 47 49 49 48 44 44 46 45 44 43 42 41 40 40 42 39 37 37 36 35 34 34 33
46 41 33 26 29 36 37 41 41 39 39 47 45 47 49 49 44 44 49 47 46 47 47 48 44 43 43 46 46 42 42 40 39 38 39 39 38 36 36 34 34 34 33 32
45 43 34 32 25 26 39 45 49 50 36 47 48 48 47 46 38 40 44 44 45 48 46 42 42 45 44 44 44 42 41 39 37 38 37 38 37 36 34 34 33 33 34 33
37 38 31 31 28 35 45 47 49 34 37 50 48 48 48 44 44 44 43 44 46 46 42 42 41 43 42 43 42 38 37 35 36 38 37 36 36 35 35 34 33 32 30 28
37 34 34 36 29 25 47 45 39 46 50 51 50 49 48 45 45 44 44 44 45 41 41 41 40 39 41 41 38 35 34 36 36 36 36 35 35 36 35 32 30 31 31 30
33 39 36 37 36 47 49 50 51 51 49 47 48 48 48 45 44 44 42 44 44 41 40 39 39 40 40 39 38 35 35 37 37 36 36 37 36 35 34 32 32 32 32 31
41 45 39 39 45 46 49 50 51 50 48 48 49 48 48 46 45 44 44 43 43 41 39 39 38 37 37 38 38 37 37 38 39 38 38 35 34 34 34 35 35 33 32 31
41 42 41 41 45 46 48 50 49 48 48 47 49 49 49 50 46 45 43 43 43 40 40 39 38 38 37 38 38 38 39 41 40 37 35 34 34 33 31 31 31 30 29 32
43 41 37 37 45 45 45 48 50 47 46 46 45 47 49 50 48 45 42 44 44 40 39 38 41 39 38 38 38 40 42 43 38 34 32 31 31 32 31 30 29 38 37 38

GFSCGP_sfc_temp_075.txt.gz
Temp
44 39 37 41 45 44 42 39 38 43 50 46 45 47 52 57 57 55 56 59 60 63 67 68 68 67 66 66 67 67 67 72 71 66 64 64 65 66 66 67 68 70 71 72
37 36 43 48 48 46 43 40 39 45 52 49 45 46 52 56 54 56 58 58 60 57 60 61 63 61 64 64 64 65 67 68 68 71 69 65 65 65 66 66 67 68 68 68
33 39 46 47 45 42 40 36 37 42 46 48 44 40 46 54 57 56 60 60 60 59 58 58 59 59 60 59 59 61 61 62 65 67 67 65 65 64 63 64 66 66 66 66
34 45 44 43 42 44 38 47 47 46 41 31 41 28 40 49 54 55 57 57 57 57 58 57 57 57 58 57 57 59 60 61 63 63 63 64 63 63 63 63 65 65 65 65
35 41 39 40 42 45 38 45 44 45 40 35 36 30 36 46 49 54 51 52 54 55 56 56 57 58 59 58 57 57 59 61 61 61 61 59 60 61 62 63 63 64 64 65
40 47 44 43 44 44 44 41 41 41 38 29 33 32 31 38 49 50 52 50 53 54 55 57 58 59 57 57 57 57 59 59 59 59 59 59 57 57 58 59 61 62 62 62
37 36 42 46 38 42 41 35 29 28 28 23 36 31 37 44 48 52 50 50 52 53 54 55 55 55 55 55 55 58 56 56 56 56 56 56 56 55 55 56 57 59 60 60
30 28 37 42 40 38 36 36 31 25 21 25 37 28 37 45 50 53 54 53 53 51 52 53 55 54 54 54 53 54 54 54 55 54 53 53 53 53 54 54 55 56 57 58
29 30 39 43 44 43 37 33 38 30 30 25 30 33 43 45 45 49 51 53 50 50 51 52 53 52 52 52 52 52 52 52 52 52 52 52 52 52 51 52 52 52 53 57
35 30 38 40 44 42 40 43 31 29 24 22 27 27 32 38 41 46 47 50 50 51 51 51 51 51 51 52 51 51 51 51 51 51 51 51 50 51 50 50 49 50 50 51
41 34 34 38 37 35 36 35 36 35 31 25 20 29 41 43 45 45 46 49 51 51 50 50 49 50 50 49 48 48 49 50 49 50 49 48 48 48 48 47 47 46 47 47
46 38 31 35 43 45 43 38 38 26 25 29 24 30 46 43 45 47 48 50 51 50 50 49 49 48 47 46 46 46 47 47 47 48 47 46 46 45 44 44 44 45 43 44
45 33 27 30 38 42 36 41 42 37 33 27 25 29 46 46 45 47 47 48 50 50 49 48 48 47 46 46 46 45 46 45 46 45 44 43 42 42 40 41 42 43 41 41
48 37 28 25 30 34 29 37 37 30 23 28 28 34 42 46 45 46 48 49 49 49 50 48 46 45 45 45 45 44 45 45 45 44 42 40 39 39 39 40 40 40 40 39
43 30 32 36 39 38 35 35 34 27 33 27 36 38 43 46 46 47 48 48 48 48 49 48 45 44 44 44 43 44 44 44 44 42 41 39 39 39 39 38 38 38 38 39
43 29 32 26 38 38 32 37 36 37 38 36 38 38 48 52 50 49 47 48 47 47 48 47 46 45 43 42 43 44 43 43 43 41 40 40 40 42 40 40 39 39 38 38
39 33 27 23 35 34 27 34 36 36 38 38 33 41 46 48 50 48 47 47 47 47 47 46 45 44 43 43 43 41 41 42 40 39 40 39 40 39 38 38 37 36 35 35
38 35 32 25 29 20 36 41 43 40 41 41 43 45 49 49 48 47 48 47 46 46 46 46 46 45 45 43 42 42 41 40 39 38 39 40 38 37 36 36 35 34 34 33
42 37 30 25 24 32 35 39 39 37 37 44 43 46 47 46 44 42 46 45 45 45 46 46 47 43 41 42 45 42 38 37 37 36 38 38 37 36 36 34 34 34 33 33
42 39 31 30 22 24 35 41 45 45 35 44 46 46 45 44 37 41 42 42 44 45 45 43 41 41 41 42 44 41 38 38 37 36 37 38 37 36 34 34 33 33 34 32
33 32 26 27 24 32 40 44 47 34 35 45 47 46 45 42 42 42 42 41 44 43 43 41 40 39 42 42 41 38 37 35 36 37 37 36 36 35 35 33 33 31 25 26
32 33 33 34 31 24 45 44 40 44 48 50 48 46 45 44 42 42 42 43 43 41 40 39 38 39 41 41 39 36 34 36 36 36 35 35 35 36 35 32 29 29 28 27
32 36 34 35 34 44 46 46 48 49 47 46 47 46 47 44 43 43 42 43 42 41 38 38 37 39 39 39 38 35 35 37 36 36 35 36 37 33 32 29 29 28 29 28
37 42 37 38 41 43 47 47 48 48 46 46 47 48 48 46 44 43 43 43 42 40 37 37 36 34 35 38 38 37 37 37 37 37 37 33 32 31 30 31 31 30 28 28
40 40 39 38 42 42 46 46 47 47 47 45 45 46 47 47 44 42 42 42 43 40 38 37 35 35 37 38 37 37 38 39 39 38 35 32 31 30 29 30 28 27 28 30
41 39 37 36 44 44 41 45 46 45 44 44 43 44 49 49 47 44 41 42 42 41 39 37 36 36 37 38 38 38 40 41 37 35 31 30 30 28 28 27 27 38 37 39

GFSCGP_sfc_temp_078.txt.gz
Temp
43 38 35 39 44 45 41 38 40 39 47 44 43 46 52 57 54 55 56 56 57 61 63 65 65 62 60 62 64 65 66 68 66 65 64 64 64 65 65 66 67 68 69 68
37 34 42 47 47 45 44 38 35 41 48 44 44 45 50 54 53 53 56 57 59 58 57 58 61 58 61 60 61 63 64 65 67 66 65 65 64 64 65 66 66 67 67 66
32 39 47 44 43 41 38 37 36 38 43 43 40 41 45 50 54 55 57 58 59 58 57 53 56 57 56 56 57 60 60 62 63 65 65 64 64 63 63 63 64 65 66 65
33 42 41 38 41 44 35 44 44 42 36 30 41 29 39 48 49 53 53 55 55 56 55 54 55 55 55 55 55 57 59 60 61 61 61 63 64 63 62 63 63 63 64 64
33 37 37 36 42 45 39 46 44 41 36 37 35 31 35 42 44 50 56 57 54 54 54 54 55 57 56 56 56 55 57 58 58 59 59 58 59 60 61 62 62 63 63 64
38 46 43 42 43 45 44 42 42 41 38 29 33 32 30 38 45 49 55 55 52 51 53 54 55 56 55 54 54 55 55 55 55 55 55 57 57 56 56 57 58 60 61 62
34 38 42 45 38 43 40 36 27 27 28 24 34 32 38 41 46 49 51 50 50 51 51 52 53 54 53 53 54 55 54 53 53 52 51 52 53 53 54 55 56 58 58 59
30 28 37 42 41 38 37 34 23 19 22 24 34 28 36 42 46 49 51 51 51 50 50 51 52 53 52 53 52 53 52 52 52 52 51 50 50 51 51 51 53 54 56 57
29 30 40 43 43 42 37 34 37 27 27 20 28 33 42 41 40 44 46 48 48 49 49 50 50 50 51 50 51 51 51 51 51 50 50 49 49 50 49 49 50 50 52 55
36 30 39 40 44 41 41 42 32 32 25 20 25 27 32 35 38 43 45 44 46 50 49 48 48 48 49 50 49 49 49 48 49 49 48 47 47 47 47 47 46 47 48 50
39 35 34 39 36 36 36 35 36 34 27 21 18 27 39 41 43 43 43 46 46 49 49 48 47 47 47 47 46 47 48 47 47 46 45 44 44 44 44 43 43 44 44 45
42 38 30 35 41 46 41 38 36 23 26 22 22 28 43 42 44 45 45 47 47 49 49 47 47 46 45 45 45 45 45 45 45 45 44 43 43 42 42 42 42 43 41 42
45 33 28 30 35 40 35 40 41 35 28 21 21 29 44 42 43 47 46 47 46 47 47 47 46 45 45 44 44 44 44 43 43 43 42 41 40 40 39 39 40 41 40 39
47 35 29 25 30 33 29 34 37 31 20 25 25 33 40 42 44 44 45 47 46 46 47 46 45 44 44 44 43 43 43 43 42 42 40 38 38 38 38 38 38 39 38 38
43 30 33 35 37 36 34 34 33 29 33 27 34 36 42 46 44 46 46 46 46 46 47 46 44 43 43 42 42 42 42 42 42 40 39 38 38 38 38 38 38 38 38 38
40 30 31 26 36 35 32 35 35 35 37 35 36 36 49 49 48 46 45 46 46 46 47 47 46 43 42 40 41 42 41 41 41 40 39 40 41 41 40 39 38 39 38 39
37 31 27 22 32 32 27 33 34 34 37 39 33 40 44 47 48 48 46 47 47 46 47 46 46 44 42 42 42 40 40 41 39 39 38 39 41 39 38 38 37 36 35 36
35 33 30 24 27 20 34 39 41 38 39 40 41 43 46 48 48 47 46 47 46 46 46 45 44 42 43 44 43 41 40 39 38 37 37 40 39 37 37 36 35 34 34 34
40 34 29 25 23 30 34 37 37 36 35 42 41 43 44 45 44 42 46 45 46 46 46 45 45 44 44 41 41 40 40 38 37 36 38 38 37 36 35 34 33 34 33 33
39 36 30 25 21 23 33 39 43 43 32 42 43 43 43 42 36 41 42 42 42 44 44 44 44 43 41 40 41 39 38 37 35 37 37 37 37 36 34 34 33 33 30 27
30 33 27 26 22 30 38 41 44 31 33 43 43 43 42 41 42 43 42 41 42 42 41 41 41 39 40 41 41 39 38 35 37 38 37 37 36 35 35 34 34 32 25 26
31 28 28 29 27 22 43 42 40 42 48 47 45 44 44 42 41 41 41 41 41 40 41 39 37 37 39 41 40 37 35 36 37 37 36 35 35 36 36 34 28 28 27 26
33 35 32 33 32 42 44 44 47 49 46 45 48 46 46 43 42 42 41 43 42 41 40 39 36 36 38 39 39 36 36 37 37 36 35 35 36 36 35 29 28 27 27 26
35 39 37 37 39 42 44 45 47 47 46 45 47 47 48 46 44 43 42 43 42 41 39 37 36 34 33 36 38 38 37 38 37 36 36 36 34 32 29 30 29 27 26 26
38 39 37 36 40 41 43 44 46 45 46 46 46 46 46 46 45 42 42 41 41 41 39 37 35 34 33 34 35 37 38 38 37 37 35 34 31 30 28 29 27 26 27 29
39 38 36 35 42 42 41 43 46 45 44 44 43 43 46 48 47 44 41 41 41 39 37 37 35 34 34 35 37 38 39 39 38 36 32 30 28 27 27 27 26 36 37 39

GFSCGP_sfc_temp_081.txt.gz
Temp
43 38 35 38 44 43 40 38 35 38 44 44 41 42 51 55 56 56 57 60 59 60 64 65 63 63 61 61 64 65 65 66 65 64 63 63 63 64 64 64 66 66 68 67
35 34 40 44 46 44 43 37 34 39 45 43 40 42 50 54 54 56 57 58 57 56 60 58 58 58 62 61 59 62 64 65 65 64 64 64 64 64 65 65 65 66 65 65
33 37 42 41 42 40 38 39 35 37 40 40 38 38 45 52 51 53 56 57 56 56 55 53 54 53 54 57 57 60 61 62 64 64 64 63 63 63 62 63 64 65 64 64
34 42 39 37 40 43 36 44 42 41 35 29 39 26 37 49 50 51 54 53 54 53 53 53 54 55 55 53 55 57 58 59 60 60 62 63 63 61 62 62 63 63 63 64
34 36 38 34 40 45 40 46 43 41 35 30 30 29 33 40 43 50 53 56 54 54 54 54 54 55 54 54 54 54 55 56 56 57 58 59 60 61 61 61 62 62 62 63
36 42 43 41 43 45 45 43 41 40 35 28 31 31 30 36 43 44 51 52 54 53 53 53 54 54 52 52 54 54 54 53 53 53 54 55 55 56 55 56 57 59 60 61
33 38 41 44 35 43 42 36 28 27 28 25 31 30 37 40 44 46 49 50 50 50 49 50 51 52 52 51 52 54 53 51 51 51 51 51 52 53 54 54 54 55 56 57
29 27 37 40 39 38 36 34 23 19 24 25 31 26 35 42 46 47 48 50 48 47 49 49 50 50 50 51 51 51 50 50 50 50 49 49 50 50 50 51 52 53 54 57
30 30 39 41 43 43 36 30 36 26 24 19 26 31 40 41 42 42 43 45 45 46 47 49 49 49 49 49 49 48 48 48 48 48 48 47 48 48 48 48 49 49 51 54
35 30 39 40 44 42 38 40 30 32 15 18 24 25 31 37 40 40 41 43 44 46 46 47 47 47 48 48 47 48 47 46 46 46 46 45 44 45 45 45 45 46 47 49
40 35 34 40 36 35 36 35 34 31 27 20 18 27 36 38 41 40 41 42 44 45 46 46 47 46 46 45 46 46 47 46 44 44 43 42 41 42 42 41 42 42 44 44
42 36 30 34 40 43 39 37 35 22 26 26 18 27 39 39 41 42 41 44 44 46 45 45 45 45 43 44 44 44 44 44 44 43 41 40 41 40 39 39 40 41 40 41
42 33 28 30 36 39 36 40 41 35 27 19 20 28 42 38 40 43 43 44 45 45 45 43 44 45 44 43 43 43 43 42 42 42 40 39 39 39 37 38 39 39 38 39
46 35 29 25 30 35 32 35 38 35 28 25 23 32 39 39 40 43 46 46 44 46 46 43 43 43 44 43 42 42 41 42 41 40 39 38 37 36 36 37 37 38 37 37
41 30 31 34 36 35 33 33 34 33 34 27 32 33 41 41 41 43 46 46 45 44 44 44 42 42 42 42 42 42 42 41 40 39 38 37 37 37 37 37 37 37 37 37
39 28 31 27 36 35 33 34 35 35 36 34 35 35 44 47 44 44 43 43 45 46 46 45 43 42 42 41 40 41 40 40 40 38 37 38 40 40 38 39 39 39 39 39
36 31 27 21 32 32 26 32 33 35 35 38 33 41 43 42 47 45 43 45 46 46 46 46 46 44 41 42 42 40 40 40 38 37 38 39 41 39 38 38 38 37 36 37
34 32 31 23 26 19 32 37 39 38 38 38 40 43 45 45 48 47 46 48 47 46 45 45 44 42 43 42 41 40 40 39 38 36 37 39 39 37 37 36 35 34 35 35
38 33 28 24 22 29 32 35 35 34 35 41 41 43 43 43 43 42 47 46 48 47 47 45 44 42 41 42 42 41 38 37 37 36 36 38 38 36 35 34 34 34 34 33
36 35 30 24 20 21 32 38 42 41 30 40 42 42 42 40 36 40 45 43 43 43 44 43 42 41 41 40 42 39 37 37 37 37 37 38 37 36 34 34 33 33 33 32
31 33 31 27 21 28 37 40 42 27 31 41 41 42 42 40 42 42 41 42 41 42 42 40 40 40 41 40 38 36 37 36 37 38 38 37 36 35 35 34 33 30 27 26
30 26 26 29 28 21 40 39 36 40 44 43 41 42 42 42 40 40 41 41 41 41 40 39 38 38 38 39 38 37 36 37 37 37 36 35 35 36 35 34 32 28 27 26
31 34 31 32 31 41 42 41 44 49 47 43 48 44 44 42 42 41 40 41 41 42 41 40 39 37 37 38 40 37 36 37 37 36 35 35 36 36 36 31 27 26 26 25
34 38 37 37 39 40 42 43 45 46 45 43 45 46 48 46 45 44 43 42 42 40 39 39 38 34 34 36 38 39 37 38 37 36 35 36 35 34 33 30 29 26 25 24
37 37 36 36 40 40 42 43 44 44 45 44 45 45 46 47 46 45 42 41 42 39 40 38 37 34 34 34 36 38 38 38 37 37 36 35 34 34 30 28 26 25 26 28
39 38 35 35 42 42 42 42 45 44 43 43 43 43 45 45 46 45 42 41 40 38 38 37 35 35 34 34 35 38 39 39 37 35 35 35 33 30 27 26 25 36 36 38

GFSCGP_sfc_temp_084.txt.gz
Temp
36 37 33 38 41 40 39 36 36 41 45 45 38 42 45 49 50 52 51 52 55 61 64 66 65 63 63 63 63 64 65 66 65 63 62 62 64 63 63 63 65 66 67 65
33 32 41 45 42 42 41 38 35 39 43 42 39 40 47 49 50 55 55 55 59 63 59 61 63 61 62 63 61 62 63 64 65 65 63 64 63 63 64 64 64 64 63 63
29 38 45 39 38 38 39 38 34 36 40 39 37 36 41 46 49 50 55 61 63 64 63 58 57 59 57 59 60 60 62 63 64 64 64 63 63 62 62 63 63 63 63 63
33 42 40 36 34 40 35 45 43 39 35 31 36 28 34 43 46 47 51 53 58 61 55 55 53 53 53 53 56 58 59 60 61 62 62 62 62 62 62 62 62 63 63 63
30 36 35 33 35 43 38 46 42 39 33 31 29 29 33 37 40 49 52 52 54 56 56 55 53 54 53 53 52 54 55 55 56 58 58 60 61 61 61 61 61 61 62 63
35 41 42 38 38 45 44 42 40 37 33 23 30 30 28 33 41 42 48 53 55 56 55 55 53 52 50 50 51 52 53 52 53 53 53 54 55 57 57 57 58 59 60 61
33 36 41 43 34 42 42 34 29 27 27 24 30 28 35 37 42 45 47 49 51 54 54 53 51 49 48 49 49 51 51 50 50 51 50 50 50 51 52 53 53 54 55 57
26 26 37 41 36 36 38 34 22 17 22 23 30 25 35 41 44 46 48 49 50 49 51 52 51 49 48 49 48 49 49 49 49 49 48 48 49 49 49 49 51 52 53 57
28 30 39 41 43 41 36 32 35 25 22 20 26 30 39 39 42 43 43 44 45 45 47 49 48 48 47 47 48 47 47 47 47 47 47 46 47 47 47 47 48 48 49 55
35 30 38 38 43 41 38 40 28 29 16 18 23 22 31 37 40 40 41 40 42 43 44 45 46 46 46 46 45 46 46 45 44 44 44 43 43 44 44 44 43 44 45 47
37 35 34 36 34 34 37 31 34 31 25 19 18 27 35 37 40 40 40 41 41 43 43 44 44 44 44 44 44 44 45 44 43 42 41 41 40 41 41 41 40 41 42 43
40 36 30 33 39 42 38 35 34 24 24 25 18 26 39 37 39 40 40 42 42 44 44 43 42 42 42 42 43 42 43 43 42 42 41 40 39 39 38 38 39 40 39 40
41 33 28 30 34 38 35 36 36 31 27 26 20 27 42 37 40 38 40 41 42 43 43 42 41 41 41 41 42 42 42 41 41 41 40 39 38 37 36 36 37 38 38 38
47 35 30 26 30 34 31 33 36 30 19 25 23 29 38 41 41 39 40 42 41 42 43 41 40 41 41 41 42 42 41 41 40 40 38 37 36 36 36 36 36 36 36 36
41 30 31 33 35 33 32 32 33 29 32 27 28 32 39 42 41 40 42 43 43 42 42 42 41 40 41 40 41 42 41 40 39 38 37 36 36 36 36 36 36 36 36 36
38 31 32 27 34 33 32 33 34 35 36 32 34 33 41 43 38 40 41 42 44 44 44 43 43 41 40 40 39 41 40 40 40 37 37 37 37 37 37 38 38 37 37 37
35 30 28 23 31 31 27 32 33 34 35 36 30 40 43 40 43 43 42 43 46 45 45 45 44 43 41 40 40 40 39 39 38 38 37 38 40 39 39 39 38 37 37 37
33 32 30 24 27 20 34 36 38 36 37 38 38 40 43 43 44 46 44 45 44 45 46 45 45 42 42 41 40 39 40 38 37 36 37 38 39 38 37 37 36 35 36 35
37 32 28 23 22 29 32 34 34 33 35 40 39 42 43 41 39 43 47 47 46 46 46 47 46 43 42 42 41 38 37 37 37 35 37 37 39 37 36 34 34 35 34 33
35 34 29 24 20 21 31 37 39 38 30 39 40 41 41 41 35 40 43 43 43 45 46 44 42 41 41 39 40 38 37 38 35 36 38 38 38 36 35 34 34 33 34 33
30 34 26 30 24 28 35 38 40 28 31 41 39 40 40 39 41 41 40 42 41 42 41 41 41 41 40 40 39 38 37 36 37 38 38 37 37 36 35 34 33 33 32 30
29 25 25 31 28 21 39 37 33 40 45 45 39 39 41 40 39 39 40 40 41 39 40 40 38 37 38 38 38 36 35 37 38 38 37 36 36 36 35 34 32 31 29 27
30 33 30 31 30 39 40 40 42 47 47 44 46 41 43 41 39 39 39 39 40 40 39 40 38 37 37 37 37 35 36 38 37 36 36 35 36 36 35 33 30 27 27 26
34 37 35 35 37 38 40 41 42 43 46 43 43 45 46 44 43 44 43 40 41 40 38 38 37 37 37 36 37 37 37 38 37 36 35 36 35 34 34 33 31 27 25 25
38 37 35 35 38 39 41 41 43 42 45 44 44 44 45 46 46 45 44 43 42 40 38 37 38 36 37 34 35 36 38 38 37 36 35 35 35 34 32 30 28 26 26 29
37 38 35 34 41 41 41 41 43 43 42 42 43 42 44 44 44 44 43 42 41 40 38 37 38 38 35 34 36 38 38 38 37 35 34 34 34 32 32 28 26 35 35 37

GFSCGP_sfc_temp_087.txt.gz
Temp
36 33 33 36 38 41 43 39 39 43 46 47 46 45 50 52 52 53 54 57 59 62 66 67 69 67 66 67 65 67 68 67 66 66 66 67 68 68 69 70 71 71 73 71
32 30 41 43 42 40 42 38 38 42 46 46 44 45 49 51 51 53 55 56 59 62 64 65 68 67 67 67 65 65 67 68 69 67 67 67 67 68 70 69 69 70 70 70
29 34 46 41 39 35 39 38 36 39 43 44 42 41 45 49 52 54 56 58 61 64 64 66 65 66 64 65 66 65 66 67 68 68 67 66 66 66 66 68 68 67 67 67
33 39 42 35 36 37 34 45 43 40 39 35 42 32 39 46 47 51 56 56 58 62 63 61 61 63 63 62 61 63 64 65 66 67 67 67 67 65 67 68 68 68 68 67
31 36 38 34 35 36 36 47 44 40 36 36 36 35 39 41 45 49 51 53 57 60 62 62 61 59 60 58 58 59 59 61 62 63 66 67 66 67 67 67 67 67 68 68
36 40 41 39 39 38 38 43 42 39 35 28 33 34 35 38 44 49 55 55 57 59 61 61 58 57 56 56 56 57 57 57 59 60 61 62 63 63 63 64 64 65 65 66
33 36 42 42 35 38 35 38 29 27 27 25 33 32 39 43 45 48 51 54 55 58 61 60 57 54 55 54 55 56 57 55 56 57 57 58 59 59 60 59 60 61 62 63
25 24 37 40 35 33 39 36 27 20 23 26 32 29 39 46 48 50 50 52 52 53 55 56 56 56 54 53 54 54 54 54 55 55 54 54 55 56 55 56 57 58 59 60
28 29 40 42 40 37 36 30 37 26 26 27 31 35 43 44 45 46 47 48 49 50 52 54 55 54 53 52 53 53 52 52 53 53 53 52 52 52 52 52 53 54 55 57
35 28 38 39 43 41 38 41 31 28 19 22 28 30 37 42 44 46 46 47 48 48 48 50 51 51 51 52 51 52 52 51 50 50 50 49 49 49 49 50 49 50 51 52
37 35 33 37 34 35 36 34 33 33 29 25 24 32 41 42 44 43 43 45 46 46 46 48 49 49 49 49 49 49 50 49 48 48 48 48 47 47 47 47 47 48 48 49
39 36 30 33 39 42 39 36 36 27 26 23 24 33 45 43 43 42 43 45 45 46 47 47 47 47 47 47 47 48 47 48 47 47 46 46 46 46 46 45 45 46 46 46
40 34 29 30 35 39 35 37 35 32 30 26 26 32 44 42 45 44 44 44 45 45 45 45 46 46 47 46 46 46 46 46 46 45 45 44 44 44 43 43 43 44 44 43
46 36 31 24 31 34 31 34 35 31 25 27 28 34 42 44 44 45 45 45 45 45 45 45 45 45 46 45 45 45 45 46 45 44 43 42 42 42 42 42 42 42 42 42
42 31 33 34 36 35 34 33 33 27 32 28 33 33 43 43 44 44 45 44 44 44 44 45 44 45 45 45 45 45 45 44 44 43 42 41 40 41 41 40 40 40 41 41
40 32 33 29 35 34 33 34 34 34 35 34 34 33 42 45 45 44 44 43 43 45 46 45 45 44 44 44 44 44 43 43 43 42 40 40 40 41 40 41 40 40 40 41
36 33 30 25 32 33 28 32 33 34 35 37 32 41 44 43 44 46 44 44 45 46 47 46 46 46 45 45 45 43 43 43 42 41 40 40 41 40 41 41 41 40 39 40
34 33 32 26 28 20 34 36 38 36 37 38 39 40 44 45 47 47 46 46 46 47 47 48 48 47 46 46 44 43 42 41 40 40 40 41 41 40 40 39 37 37 37 37
38 34 29 27 25 31 34 35 35 34 36 40 40 42 42 44 43 45 47 47 48 48 49 49 50 48 46 45 45 43 41 40 39 39 39 40 40 39 38 36 35 36 35 34
35 35 31 27 22 23 33 38 41 40 32 41 41 41 40 42 37 41 44 45 47 48 48 47 46 45 45 44 43 41 40 39 39 39 40 40 40 38 36 36 35 34 35 33
29 33 28 30 27 29 36 39 41 30 33 41 41 41 40 40 42 42 43 43 44 44 45 44 43 43 43 42 42 40 39 38 39 40 40 39 39 37 36 34 34 33 33 33
28 26 26 30 26 21 39 38 34 41 46 46 43 41 41 41 41 41 42 42 42 42 42 41 41 40 40 41 41 39 37 38 39 39 38 37 37 37 36 34 34 34 32 32
29 32 29 31 31 39 40 41 43 46 47 46 47 43 43 42 41 41 41 42 42 42 41 41 40 39 39 40 41 38 38 38 38 38 37 36 36 36 36 34 33 32 32 32
32 35 34 34 37 38 40 41 42 44 46 46 45 45 45 44 43 43 43 43 42 42 41 40 39 38 38 39 39 40 38 39 39 37 36 36 35 35 35 35 33 32 31 31
37 36 35 34 38 40 41 42 43 43 46 46 45 45 45 46 45 45 45 44 43 42 40 40 39 39 40 39 39 39 39 40 38 38 36 35 35 35 33 34 33 32 33 34
35 36 34 35 40 39 40 42 43 43 43 43 44 43 43 44 43 44 43 43 43 41 40 39 39 40 40 38 38 38 39 39 38 37 35 35 35 33 33 32 30 36 36 37

GFSCGP_sfc_temp_090.txt.gz
Temp
37 36 33 40 41 40 51 48 47 53 55 53 54 55 59 63 64 66 69 69 70 74 81 79 77 74 73 76 78 78 77 74 73 70 69 70 70 73 76 78 79 81 81 81
34 33 43 48 43 40 43 47 46 52 52 53 54 53 59 62 62 65 67 70 71 71 77 77 76 75 71 73 75 75 76 76 73 74 71 71 71 70 73 74 76 78 79 79
32 42 47 44 38 34 43 47 48 46 50 52 52 48 53 60 62 65 67 69 72 71 73 75 74 71 71 69 72 70 72 71 72 72 70 71 70 68 68 70 71 73 74 74
36 41 43 40 37 36 37 52 50 48 46 38 50 40 52 57 57 61 64 67 68 71 74 76 74 71 71 71 73 73 69 71 70 71 69 68 68 68 69 71 73 74 73 73
34 38 39 35 39 38 37 49 49 48 46 45 43 41 52 53 54 58 63 66 69 71 72 73 71 72 71 69 67 70 71 71 71 71 70 70 69 71 71 70 70 72 73 74
38 42 43 44 42 41 39 44 46 47 44 32 46 43 48 51 55 59 64 67 68 70 71 73 73 69 67 67 67 64 66 66 67 68 69 69 68 69 68 68 69 72 73 74
37 37 43 46 36 39 35 38 30 29 30 34 44 41 49 56 56 61 64 67 69 70 71 72 72 67 65 64 65 65 66 62 65 66 64 64 67 68 68 69 70 70 71 69
31 27 39 43 40 34 34 35 35 27 31 37 40 37 47 59 63 64 62 64 64 68 70 71 72 71 65 61 64 64 65 64 65 64 64 64 64 64 64 64 65 67 68 68
33 30 43 44 40 39 36 34 44 36 37 36 41 45 53 57 57 57 59 61 61 64 65 68 70 68 67 65 64 64 64 64 64 64 64 64 63 62 62 61 63 63 62 63
36 29 40 39 42 38 35 42 36 36 28 30 36 40 48 51 54 56 58 60 63 63 64 65 66 66 65 63 61 63 64 63 62 62 63 61 61 60 60 61 59 59 60 59
37 36 33 37 35 36 35 36 40 42 38 36 33 41 52 51 54 54 56 57 58 60 60 62 63 63 62 60 59 59 60 60 60 60 60 60 59 58 59 58 58 57 58 58
43 36 31 34 43 48 39 43 44 37 31 34 37 42 53 55 54 55 57 56 56 57 58 59 60 60 59 59 58 57 57 57 57 57 58 57 57 57 58 56 55 56 55 55
45 37 30 31 36 40 35 40 43 41 39 33 38 43 53 52 53 57 56 57 55 55 56 58 58 59 59 59 59 58 57 56 55 55 56 55 54 55 55 55 54 54 54 54
47 40 35 34 38 41 33 40 43 37 34 37 40 44 51 52 54 57 57 57 56 56 55 57 58 58 59 58 58 57 57 56 55 54 54 53 53 53 53 52 52 52 52 52
45 36 38 40 41 41 39 39 39 34 40 36 43 42 52 57 56 57 56 55 55 54 55 56 57 58 58 57 57 57 56 55 55 52 51 50 50 49 49 49 49 49 50 50
43 36 39 34 40 40 38 40 41 42 43 42 42 42 52 56 59 56 58 54 53 54 55 56 57 58 58 58 57 56 55 53 53 52 50 49 48 48 48 48 47 48 47 48
41 40 37 32 38 39 35 40 40 41 43 44 38 47 53 52 52 55 58 55 55 56 57 56 57 57 58 58 58 55 55 54 52 51 50 48 48 47 47 47 47 46 45 46
41 40 39 35 37 29 40 46 44 43 44 46 47 48 52 53 56 58 59 58 58 58 58 59 59 59 59 59 57 57 55 52 50 50 49 48 48 47 46 45 43 41 41 41
45 43 37 34 34 38 40 43 43 41 42 48 47 50 52 53 53 54 58 58 59 61 62 62 62 61 60 58 57 54 52 50 49 48 47 47 47 45 44 41 39 39 37 36
42 44 41 35 29 29 41 46 49 48 39 49 49 50 49 49 44 52 52 53 55 57 59 59 60 59 58 57 56 53 51 49 47 48 48 48 46 44 42 41 37 35 37 35
38 39 36 36 33 38 46 47 48 36 40 50 49 49 47 47 51 49 51 51 52 52 52 53 55 55 55 54 52 50 50 46 47 47 46 46 44 42 41 37 35 35 35 35
38 36 36 37 32 28 48 46 41 48 51 51 50 49 49 50 49 49 49 49 49 49 50 50 50 49 50 50 50 48 45 46 46 46 44 43 42 41 38 36 35 35 35 34
37 43 42 42 42 49 50 50 53 52 51 52 52 49 51 49 49 49 49 49 49 49 49 49 49 48 48 48 49 45 47 46 45 44 43 42 41 39 38 36 35 33 34 34
44 45 44 42 46 48 51 52 52 53 53 52 53 53 52 51 51 51 51 51 50 50 50 48 48 47 47 47 48 50 47 46 45 45 43 41 38 37 36 36 35 34 33 34
46 45 43 44 48 51 50 51 52 52 51 51 52 52 52 52 50 51 49 48 47 47 47 46 48 49 48 47 46 46 47 47 45 44 42 39 38 37 35 35 35 35 36 37
47 45 45 44 48 48 50 50 51 50 50 50 50 49 49 51 49 50 49 49 48 48 47 46 44 46 47 44 44 43 44 44 45 43 40 38 37 36 35 34 33 38 38 39

GFSCGP_sfc_temp_093.txt.gz
Temp
40 35 33 37 40 47 42 47 49 54 60 56 55 56 63 66 67 68 71 73 75 76 81 83 79 78 78 79 79 80 77 78 74 72 72 72 71 72 76 78 80 81 82 82
35 32 45 46 46 40 38 42 48 55 59 55 54 55 62 64 65 68 70 72 74 76 79 81 79 78 77 77 77 78 79 79 76 73 73 74 74 74 75 74 77 79 79 78
34 41 49 45 38 35 38 43 47 50 53 55 52 51 56 63 66 68 70 73 75 75 76 78 78 76 76 75 76 76 77 80 78 75 72 72 71 69 69 71 73 73 72 75
38 44 44 41 36 39 37 52 51 51 46 40 53 40 53 58 60 64 67 69 71 74 76 79 77 74 74 74 73 76 76 72 71 73 72 69 69 68 69 72 72 73 72 71
34 39 42 39 41 43 37 45 50 49 46 46 46 42 52 59 56 60 65 68 71 74 75 76 76 73 74 74 71 74 70 73 71 71 71 68 67 71 69 68 68 71 74 70
37 42 44 43 47 46 41 45 43 48 44 32 46 45 49 53 58 62 66 69 71 73 74 77 74 74 73 72 70 70 71 69 69 70 67 69 67 67 67 65 66 70 72 72
37 36 42 44 35 38 36 38 30 28 28 34 50 44 51 59 61 65 66 69 72 73 74 74 75 71 71 69 68 66 70 67 66 69 68 70 69 71 69 67 67 67 70 68
33 28 37 43 40 35 34 35 32 27 29 36 45 40 50 62 66 65 66 69 72 72 74 74 75 74 71 68 62 63 62 63 67 66 67 67 66 65 65 66 65 69 70 70
35 31 41 44 43 42 35 33 45 39 45 39 43 49 56 59 60 61 63 64 65 68 71 73 74 76 75 66 65 65 65 65 66 66 67 66 66 65 63 62 65 65 65 65
36 30 42 41 44 41 35 38 36 37 29 30 40 44 46 51 56 60 61 62 65 68 69 70 72 74 73 71 68 67 64 66 66 66 66 65 65 63 64 64 62 62 62 62
40 36 33 38 37 34 34 35 40 44 40 36 33 42 56 54 56 57 59 62 64 66 67 68 69 72 71 69 66 66 65 62 61 62 63 62 61 61 62 61 60 60 60 60
41 37 31 34 43 49 45 41 46 37 36 39 38 41 58 57 57 59 61 60 61 62 64 66 68 66 65 63 63 63 62 61 61 60 62 60 60 60 60 59 58 59 58 58
42 37 30 31 37 40 37 42 44 45 41 36 36 41 58 57 57 60 60 61 60 60 61 63 63 62 62 62 62 62 62 60 60 60 60 59 58 59 58 58 57 57 57 56
46 37 33 33 38 42 34 40 46 38 37 42 43 46 51 54 55 60 60 61 61 60 59 61 61 62 63 63 62 62 61 60 59 59 58 57 56 56 56 55 55 54 55 55
42 35 41 43 45 44 41 42 43 34 42 38 45 46 54 58 58 60 62 60 59 59 59 59 61 62 62 61 61 62 60 59 59 57 56 54 54 53 53 52 52 52 52 52
46 37 42 37 44 43 40 44 44 44 45 45 46 45 57 60 60 60 61 59 57 58 59 60 61 62 61 61 61 60 58 58 57 56 55 53 52 51 51 50 50 50 50 50
44 43 39 34 41 42 36 42 43 44 47 46 39 48 56 55 57 57 59 59 58 59 60 60 61 61 62 62 62 59 58 58 56 55 54 52 52 51 50 50 49 48 47 48
45 44 42 38 40 30 43 49 49 46 48 49 48 50 53 54 58 59 61 60 61 61 61 62 62 62 63 63 62 61 59 57 54 54 53 52 52 50 49 48 47 44 44 43
50 46 40 36 37 40 41 45 45 44 44 50 49 52 54 55 56 54 60 60 60 63 64 65 65 65 64 62 61 60 57 55 53 53 52 51 51 50 48 45 42 42 40 37
47 48 42 38 32 30 42 48 52 51 39 51 51 51 51 52 45 50 55 56 58 60 63 64 65 65 63 62 61 58 55 54 51 52 52 52 50 49 46 45 41 37 38 36
41 42 37 39 36 41 48 50 52 36 38 52 52 52 51 50 51 53 55 54 55 55 55 57 61 61 61 61 59 55 54 51 52 52 51 50 48 46 45 41 38 36 36 35
40 38 38 39 34 31 52 49 43 49 55 54 54 53 52 53 53 52 52 52 53 53 53 53 54 53 55 55 54 51 50 50 49 49 47 46 45 45 42 39 37 36 35 34
39 45 40 42 42 51 53 52 56 56 54 55 55 53 54 52 52 52 52 53 52 53 52 53 53 52 52 52 53 51 50 49 48 47 46 45 45 43 42 39 36 34 35 34
48 50 45 44 49 51 53 56 55 56 55 54 55 55 55 52 53 53 53 53 53 53 52 52 51 51 50 51 51 53 52 50 49 47 47 46 43 41 40 38 37 35 34 33
47 48 47 47 51 53 53 54 54 55 54 54 55 54 54 51 49 53 49 50 50 48 50 51 51 52 52 51 50 51 50 49 47 48 47 44 42 40 38 36 36 35 36 35
51 46 44 39 49 49 52 54 54 53 52 53 53 51 52 53 52 53 51 51 51 50 50 49 49 48 48 47 47 46 46 46 45 44 45 43 40 40 37 35 34 38 38 38

GFSCGP_sfc_temp_096.txt.gz
Temp
39 34 31 35 37 40 40 41 41 48 55 51 49 51 56 62 64 60 61 63 64 67 71 72 71 71 72 71 73 74 72 71 72 70 67 66 66 69 71 73 74 76 77 75
34 29 41 43 40 38 36 37 41 49 54 51 49 49 57 59 59 59 62 63 64 65 68 69 69 69 69 69 70 71 72 71 71 70 69 67 67 67 67 69 71 73 73 74
32 39 45 42 38 35 36 35 41 39 50 51 50 45 52 59 59 60 63 64 66 65 66 67 67 66 68 68 68 69 71 72 70 70 67 67 66 66 66 67 66 68 69 69
35 44 41 41 37 38 34 44 42 46 42 33 46 30 42 49 56 58 57 59 60 63 66 68 67 64 64 65 67 69 69 70 69 68 66 64 64 62 63 65 66 67 67 67
32 37 40 35 37 42 37 42 43 42 42 42 41 35 40 52 51 55 58 59 61 63 64 66 65 66 65 63 60 64 67 67 66 66 66 64 65 66 65 66 67 66 67 67
35 43 42 43 44 44 42 42 43 41 38 28 37 38 39 46 52 54 60 61 62 62 64 66 65 65 62 61 61 61 62 65 65 65 64 63 64 64 64 64 63 65 66 66
35 37 42 44 35 39 36 35 28 27 27 28 41 37 41 52 58 58 60 60 63 62 63 63 63 61 60 59 59 58 59 59 62 63 64 65 65 65 65 64 63 64 64 64
29 24 37 41 38 34 34 34 28 20 21 28 42 31 40 53 56 58 58 59 62 62 62 63 63 62 60 59 57 57 59 57 59 59 60 60 61 60 60 61 62 63 63 63
31 29 41 42 42 40 34 31 37 30 36 28 35 38 47 52 52 53 53 58 55 56 61 62 63 62 60 57 56 56 56 57 57 58 58 60 60 58 57 58 58 58 59 61
35 28 40 41 44 40 35 37 31 32 24 25 32 33 39 46 48 52 51 52 53 55 57 59 62 62 61 58 57 58 57 57 59 60 59 60 58 58 58 56 55 55 56 57
41 35 32 39 36 33 33 32 35 37 33 25 24 31 44 46 51 51 52 54 56 56 59 59 59 61 59 57 56 56 56 57 57 58 59 57 56 55 54 53 52 52 52 53
39 35 28 31 42 47 43 38 39 31 32 31 30 31 49 49 52 53 53 55 53 56 57 57 57 56 55 54 55 54 53 53 53 55 56 56 55 55 52 51 51 52 51 51
40 35 29 30 35 40 34 40 42 41 35 32 29 32 51 48 50 53 51 52 53 53 53 54 54 54 52 53 53 52 52 51 52 52 51 52 53 53 52 51 52 52 52 51
45 36 32 29 34 37 30 37 42 35 31 35 32 38 45 48 49 51 52 52 52 52 53 53 52 52 52 53 52 52 51 51 51 51 50 49 49 50 48 48 49 48 49 48
42 33 35 41 43 41 38 37 40 34 38 32 39 41 47 48 46 50 51 53 53 52 52 52 51 51 51 51 52 52 51 50 50 49 48 46 46 46 46 46 46 46 46 46
41 34 39 32 43 42 36 42 42 41 42 41 41 39 48 51 52 51 48 53 52 52 53 53 54 52 50 50 51 51 50 50 50 48 46 46 46 45 44 44 44 44 44 44
41 36 33 30 38 39 31 39 40 41 42 42 36 43 47 48 51 49 50 52 53 53 53 53 53 52 52 52 52 49 49 49 49 48 47 46 46 45 44 44 43 42 41 41
38 39 37 28 30 22 36 44 45 43 45 45 45 46 48 48 50 50 51 50 52 54 54 54 53 53 53 53 52 51 50 48 47 47 46 47 46 45 44 43 41 39 39 41
44 39 33 28 29 33 36 40 40 38 39 47 44 47 49 49 47 46 51 51 50 52 55 55 55 54 54 53 52 50 48 47 46 46 45 46 46 44 42 39 39 41 39 36
44 42 34 30 26 25 35 42 48 45 32 47 47 46 45 45 35 39 48 49 49 51 51 52 55 55 53 52 51 49 47 45 44 46 45 46 45 43 40 39 39 36 38 35
34 35 29 31 27 33 42 45 46 28 34 47 47 45 45 41 42 45 47 47 48 48 47 50 52 52 52 52 50 47 46 44 45 47 45 44 43 41 40 37 37 36 35 35
35 31 31 33 28 24 46 43 38 45 47 49 47 45 45 46 47 47 47 47 47 46 46 47 45 45 46 48 47 45 44 44 44 44 43 42 40 41 39 38 36 36 35 34
33 37 33 36 36 45 46 45 48 49 47 47 48 47 47 47 46 47 46 46 46 46 46 46 45 44 44 45 46 43 42 43 43 42 40 40 40 40 41 37 36 34 35 34
40 43 37 39 43 44 47 48 48 48 47 48 49 49 49 46 47 46 47 46 45 45 44 46 45 44 42 43 45 45 44 44 42 40 40 39 38 40 39 37 36 35 34 33
39 41 40 40 44 43 46 46 47 49 49 49 50 49 48 47 48 49 47 47 45 45 45 44 43 43 43 43 43 43 44 45 42 42 43 41 40 40 37 36 36 35 36 36
44 39 34 36 43 41 42 46 48 47 46 47 47 46 47 48 47 47 44 44 44 43 44 43 43 43 43 43 42 44 45 45 44 43 42 40 38 38 36 35 34 40 39 40

GFSCGP_sfc_temp_099.txt.gz
Temp
36 31 26 34 36 35 39 35 35 42 52 47 45 47 51 57 53 52 56 60 59 61 65 66 67 67 68 68 67 70 69 69 69 68 66 66 68 68 69 72 73 75 75 71
30 27 38 41 40 36 35 35 36 44 52 49 47 47 54 57 58 60 59 60 58 60 62 63 64 64 67 66 69 66 68 70 70 70 67 67 65 66 67 69 71 72 72 71
28 36 43 40 37 33 34 34 37 40 46 48 46 43 47 56 57 58 60 61 61 62 62 63 61 62 63 64 64 68 68 69 69 68 65 65 65 65 65 65 66 66 67 67
31 40 40 38 35 36 32 39 41 43 39 33 43 30 42 49 53 55 55 55 58 60 62 62 64 61 62 63 64 66 66 67 68 66 66 64 63 62 64 66 66 66 66 66
31 33 37 35 37 40 35 41 42 40 36 35 36 33 39 47 48 50 55 54 57 58 60 60 61 65 62 62 62 63 64 66 66 66 64 63 63 63 64 63 65 65 66 67
34 40 40 41 43 42 42 40 40 39 36 26 34 32 35 43 48 47 51 54 58 59 61 60 64 62 59 57 59 59 62 63 63 64 63 62 61 60 61 62 62 63 64 65
34 35 42 44 35 39 36 34 28 26 27 23 38 34 38 46 53 54 54 54 56 58 61 58 57 56 56 56 57 57 59 59 61 60 60 61 60 61 62 62 62 61 61 62
21 26 37 42 37 32 34 33 25 23 23 24 38 30 38 49 50 57 56 56 58 58 57 56 59 58 58 56 55 57 57 56 58 59 60 60 61 59 60 61 61 62 62 61
25 28 41 41 43 39 34 30 37 31 31 25 30 35 45 47 48 51 52 53 53 56 57 56 58 60 56 55 55 55 55 56 56 56 55 55 55 56 55 56 56 56 58 60
33 28 39 40 42 39 36 38 31 30 23 22 26 29 34 39 44 50 50 52 53 54 56 56 61 59 56 56 54 54 54 54 54 54 54 54 54 55 54 54 54 54 55 56
37 32 32 36 34 30 31 29 34 34 29 24 20 28 41 41 45 45 47 51 53 54 55 56 55 55 55 53 52 52 53 53 53 53 53 53 56 54 52 51 52 53 52 53
36 34 27 30 39 43 37 35 38 26 28 25 22 28 46 46 48 49 49 52 51 54 54 54 52 51 52 51 51 51 51 52 52 52 52 52 54 54 53 52 51 51 50 50
38 34 25 29 36 40 37 38 40 38 33 27 26 30 48 46 47 50 48 48 50 51 51 50 50 50 50 49 49 49 49 49 49 50 49 49 50 48 48 49 50 51 51 49
43 37 30 24 29 34 29 36 38 32 26 31 32 35 40 44 44 45 48 49 49 49 51 50 48 48 48 49 49 48 48 49 49 48 47 46 46 45 45 46 47 47 46 47
41 33 34 36 39 38 35 35 38 33 37 32 37 39 42 43 44 45 47 49 49 50 50 50 49 47 47 48 47 47 47 47 47 46 45 44 44 44 44 44 44 44 44 45
38 32 35 28 40 39 34 38 38 39 40 38 41 37 43 45 48 50 47 50 50 50 51 51 50 48 46 46 47 48 47 47 47 45 44 44 44 43 43 42 42 42 42 42
38 35 30 25 35 38 30 37 39 40 42 42 34 40 44 46 49 49 49 51 51 51 51 51 50 49 48 48 48 46 46 46 46 44 44 44 44 43 42 42 41 40 39 39
34 33 32 25 30 23 35 42 43 41 43 43 42 43 45 45 47 46 48 49 49 50 52 52 51 49 49 49 48 47 47 46 45 44 44 44 43 42 42 41 39 38 38 38
37 35 29 26 24 31 34 39 39 37 37 44 42 44 45 46 44 42 47 47 46 47 49 52 52 51 50 49 48 47 45 45 44 43 43 44 43 42 40 38 37 38 39 37
40 38 31 27 23 23 33 40 44 43 30 43 45 43 43 43 36 38 45 46 46 46 47 47 51 52 50 49 48 47 44 43 43 43 43 44 43 41 39 38 37 36 38 36
30 31 26 27 25 31 39 41 43 29 33 47 45 43 42 39 40 43 45 45 45 45 45 46 47 48 49 49 48 45 43 42 44 45 44 43 42 40 39 36 36 37 36 35
31 26 27 27 27 23 43 42 35 41 44 47 44 42 43 43 44 44 45 44 44 44 45 45 44 43 44 46 46 44 42 44 43 43 42 41 40 40 38 36 37 36 36 35
30 34 32 32 32 43 44 42 46 48 46 44 44 43 45 44 43 44 43 44 44 43 43 44 42 42 42 43 44 42 42 42 41 41 40 39 38 38 37 37 36 35 35 34
39 39 34 37 40 40 43 44 45 47 45 46 47 47 47 45 45 43 43 43 43 43 43 43 42 41 41 42 43 43 41 42 41 39 38 38 37 38 39 37 37 35 34 34
36 41 36 36 38 39 44 44 44 45 46 46 46 46 46 47 46 46 44 45 44 43 43 42 41 41 41 42 41 42 42 41 39 39 40 41 40 40 37 37 36 36 37 36
35 34 32 31 37 38 41 44 46 45 45 45 45 43 44 46 45 44 41 42 42 41 41 41 40 40 40 40 40 41 41 41 41 41 41 40 39 38 36 35 35 40 40 40

GFSCGP_sfc_temp_102.txt.gz
Temp
35 27 25 34 35 34 34 34 34 40 49 45 44 46 48 51 51 50 51 53 55 58 64 63 63 64 65 65 66 68 68 68 70 68 67 66 65 67 68 70 70 72 72 70
28 25 37 41 37 35 34 33 33 40 48 46 44 44 48 49 50 50 51 51 55 60 61 61 61 62 64 66 66 65 67 68 70 69 68 66 65 66 67 69 70 71 71 71
26 34 42 40 35 32 34 33 35 36 44 44 44 40 44 49 52 52 51 52 58 61 60 58 58 60 62 63 65 66 67 68 69 68 65 64 65 64 64 66 67 67 68 68
29 38 38 38 35 34 30 39 39 39 35 31 41 29 38 42 49 52 52 52 58 61 60 60 59 59 60 63 64 65 66 67 67 66 66 65 65 63 64 65 64 65 67 66
27 32 34 34 37 38 34 41 39 39 35 35 36 33 36 45 45 52 56 56 59 58 58 59 61 62 62 61 62 63 64 65 64 65 65 64 62 63 63 64 64 64 66 66
33 40 37 39 43 42 41 39 41 39 36 25 34 34 35 41 46 52 54 55 57 57 57 58 59 60 59 58 59 61 62 63 63 63 62 62 62 60 61 60 61 63 63 64
32 34 41 44 36 38 36 34 27 26 26 22 34 33 37 45 52 56 55 54 57 58 56 56 56 56 56 56 57 59 61 60 60 61 61 61 61 61 61 61 60 60 60 61
26 25 36 41 36 30 33 32 27 22 20 26 38 29 38 47 52 55 57 56 57 56 56 56 55 56 57 55 54 56 58 59 58 58 59 59 59 59 59 60 60 59 59 60
26 29 41 41 41 38 33 30 36 28 28 24 28 35 44 47 47 49 52 53 53 54 55 55 55 57 55 54 55 55 56 56 57 58 57 57 57 57 56 55 56 55 56 57
33 27 38 39 41 39 35 38 27 27 23 19 25 28 34 39 42 44 47 49 50 52 53 52 55 57 55 55 55 54 55 54 55 55 55 55 55 54 53 53 53 53 53 54
34 31 30 36 31 31 33 31 33 35 26 21 19 26 37 39 42 45 44 46 48 48 51 51 53 54 54 52 53 52 52 52 52 52 52 52 51 51 51 51 51 52 53 53
36 32 24 28 39 41 37 33 34 22 25 21 19 27 42 40 43 45 45 48 48 50 50 50 52 51 51 51 50 51 50 50 50 50 50 49 50 49 49 49 49 49 48 48
38 33 25 25 35 39 33 36 37 34 29 23 18 26 45 42 44 46 45 44 48 49 48 47 48 49 49 49 49 50 49 48 49 49 48 48 48 48 47 47 49 49 47 47
43 35 27 21 30 33 28 33 36 29 22 25 24 30 38 42 45 46 45 45 45 47 48 46 47 46 47 48 48 48 47 48 47 48 47 46 45 45 45 45 45 45 45 44
41 32 34 36 37 35 33 33 36 28 34 31 34 36 39 40 40 45 45 46 46 46 48 47 47 47 47 47 47 47 47 46 46 46 45 44 44 44 43 43 43 43 43 42
36 31 32 28 38 37 32 36 36 36 38 37 38 37 44 44 45 45 43 46 47 48 48 49 48 47 46 46 46 47 45 45 46 44 43 43 43 42 42 41 41 41 41 41
38 32 29 24 34 35 27 36 36 38 39 40 34 40 44 45 47 46 46 48 49 49 50 50 49 49 48 47 47 45 45 44 44 43 43 43 42 42 41 41 40 39 39 39
32 31 30 24 29 21 34 42 43 41 42 42 41 42 46 46 44 46 46 47 47 48 49 50 49 49 48 48 47 46 45 44 43 43 42 42 42 41 40 40 38 37 37 36
35 32 28 24 23 29 35 39 38 37 36 43 41 42 43 46 43 43 47 46 45 46 48 49 51 50 49 47 47 46 44 43 43 42 42 42 42 40 39 38 37 36 36 35
36 35 29 26 22 23 32 40 44 42 31 42 43 41 41 41 34 39 44 44 44 45 46 47 51 51 50 48 46 45 43 42 41 42 42 42 42 40 39 37 36 34 36 37
29 29 26 27 26 29 37 40 42 28 33 47 45 41 41 39 40 42 44 44 44 44 44 45 47 48 48 48 48 45 43 42 44 44 43 42 41 40 39 36 36 35 36 36
30 25 25 26 24 22 41 40 34 39 42 44 43 41 41 42 42 43 43 42 43 42 43 44 42 42 44 46 46 43 43 44 44 43 42 41 40 40 38 35 35 35 36 36
29 32 30 31 31 39 40 41 43 46 44 42 42 42 44 42 42 43 42 42 41 41 42 42 42 43 42 43 45 43 43 43 42 41 40 39 38 37 38 37 34 35 36 35
35 37 33 35 36 36 40 41 43 44 44 44 45 44 44 42 46 43 42 41 41 41 41 41 41 40 40 41 42 43 42 41 40 39 38 37 36 36 37 38 37 36 35 34
34 37 34 33 34 37 40 40 42 44 45 44 45 45 46 45 45 45 43 42 42 42 41 40 40 41 40 41 41 41 41 40 39 38 37 39 39 40 38 37 37 36 37 36
32 32 31 30 36 36 38 40 42 43 43 44 43 42 44 46 43 42 40 40 39 38 39 38 38 39 38 39 39 40 40 40 39 40 39 39 38 39 37 36 36 41 40 41

GFSCGP_sfc_temp_105.txt.gz
Temp
34 26 23 32 35 35 33 33 31 38 46 43 40 43 44 47 48 50 49 49 50 53 58 61 63 65 65 65 67 69 67 69 69 67 66 65 65 64 65 66 68 69 69 68
27 23 36 40 38 35 33 32 31 38 46 45 42 41 46 46 48 49 50 49 49 51 56 59 59 61 66 66 66 66 67 67 68 68 68 66 66 65 66 66 67 68 68 67
25 33 40 38 34 32 32 33 32 36 42 43 43 39 42 46 49 50 51 52 51 51 53 56 55 59 61 63 64 66 66 67 68 67 65 65 65 64 64 65 65 67 68 68
28 37 36 36 34 34 30 39 39 37 37 31 40 29 38 42 45 47 49 50 49 51 54 56 57 58 60 62 64 65 65 67 66 66 65 65 66 64 64 64 65 65 67 67
26 32 34 34 36 37 33 42 38 36 35 35 35 31 36 42 41 44 48 50 52 54 55 58 58 59 60 61 62 63 64 64 63 65 65 63 62 63 63 63 64 64 64 65
31 39 36 37 41 39 38 38 38 37 35 24 33 33 34 37 44 46 51 51 53 54 58 62 58 59 58 58 59 61 62 63 63 64 63 63 61 61 61 61 61 61 63 64
32 33 37 43 36 37 34 35 27 25 24 22 36 34 38 44 49 51 52 55 56 60 58 58 56 55 56 57 58 59 60 60 62 61 61 61 61 61 61 60 60 60 60 61
26 25 36 41 36 32 32 33 21 19 20 25 35 30 39 45 50 53 56 59 59 59 58 57 56 55 56 56 57 58 59 60 61 60 59 59 60 60 60 60 59 59 59 59
26 26 40 39 39 38 32 30 36 26 26 24 29 34 43 45 47 47 51 53 53 54 54 56 55 54 54 54 55 57 58 59 58 58 57 58 57 58 57 57 57 57 57 58
30 24 37 39 40 38 35 37 30 23 16 21 25 26 32 38 42 46 48 49 52 54 54 54 55 55 54 54 53 54 55 56 56 56 56 56 56 56 54 54 54 54 54 55
33 28 29 35 31 28 31 28 33 34 25 21 21 27 38 38 41 45 46 49 49 51 52 52 55 54 52 52 51 51 53 53 54 54 52 53 52 52 52 52 51 51 51 52
34 29 20 27 37 39 36 32 33 24 24 24 18 27 42 40 43 45 46 47 48 49 50 50 53 52 50 51 50 50 51 51 51 50 51 50 49 49 48 48 48 49 48 50
38 30 17 22 32 38 32 35 35 32 27 27 17 26 44 43 44 45 45 45 46 46 46 46 47 48 49 49 49 49 49 48 48 48 48 47 46 46 46 46 46 47 46 46
43 35 26 19 29 31 28 32 33 25 20 28 23 28 36 41 43 44 43 43 43 44 46 45 44 45 46 47 48 47 46 47 47 47 46 45 45 45 44 44 45 45 45 46
40 31 34 36 37 33 32 32 32 25 28 23 31 32 35 38 40 42 43 44 45 46 46 46 45 44 45 46 46 46 45 46 46 46 45 44 43 43 43 43 42 42 42 42
39 31 30 27 36 34 31 33 33 35 34 35 35 32 40 41 40 43 43 46 47 46 46 45 45 44 44 45 45 46 45 45 46 44 44 44 43 42 42 41 40 41 40 40
37 30 26 23 31 33 27 34 32 35 36 36 33 39 42 44 44 41 42 44 45 46 45 46 46 47 46 45 46 45 45 44 44 44 43 42 42 41 40 40 40 39 38 38
31 29 29 24 28 20 34 40 40 38 39 39 39 40 42 41 41 42 42 41 43 44 46 47 47 46 47 48 46 46 45 44 44 43 42 42 41 40 39 39 38 37 36 36
34 30 27 24 23 27 32 38 38 38 35 41 39 40 41 43 41 39 44 44 42 44 45 46 47 48 47 47 47 45 44 43 43 42 41 42 41 40 39 38 36 36 36 35
34 32 28 25 21 22 31 37 41 41 31 41 43 41 41 41 35 38 42 42 42 44 44 44 45 49 48 46 46 45 43 42 42 42 42 42 41 40 38 37 36 34 35 35
27 28 25 25 22 27 35 39 42 28 31 44 44 40 40 39 40 41 42 42 42 43 43 44 45 46 46 46 46 44 42 42 43 43 42 41 40 40 38 36 36 35 33 34
28 24 25 25 23 20 39 38 32 38 41 42 42 40 40 40 40 41 41 41 41 41 42 42 41 41 43 45 45 43 42 43 44 43 42 41 40 39 38 35 35 34 36 36
28 31 28 29 29 36 37 37 39 41 42 41 40 41 42 41 40 40 40 40 40 40 40 41 41 41 41 42 44 43 42 43 42 41 40 39 38 37 36 35 35 36 36 36
32 34 31 32 33 33 36 38 40 41 41 42 42 43 43 40 45 40 40 40 39 39 39 40 40 41 41 42 43 42 41 42 41 39 39 37 37 36 36 37 37 36 35 35
32 33 32 31 32 34 36 37 38 41 43 43 43 43 44 44 45 45 41 40 39 39 40 40 40 41 39 39 39 40 40 41 39 39 38 37 37 37 36 37 38 36 37 37
32 32 31 33 35 35 37 38 41 40 40 41 42 41 45 46 44 42 40 39 39 37 37 37 37 38 38 37 36 37 39 39 38 38 38 38 38 36 36 36 36 41 41 41

GFSCGP_sfc_temp_108.txt.gz
Temp
33 26 21 28 34 34 33 30 30 38 45 43 41 41 45 47 43 46 49 48 50 53 57 60 63 64 66 68 68 70 69 69 68 66 65 64 64 62 62 63 65 66 66 65
27 23 34 38 38 34 33 31 32 39 43 44 40 39 43 44 44 46 48 48 50 53 55 58 60 63 64 64 66 66 68 68 69 67 68 66 66 64 66 65 65 67 67 66
25 31 38 36 34 32 33 31 33 35 42 43 40 38 40 44 47 48 50 51 51 53 54 55 57 61 63 64 64 65 66 67 67 66 65 64 64 64 63 63 64 65 66 65
27 35 35 35 31 34 27 37 38 40 35 31 38 29 38 42 43 46 49 49 48 50 52 54 56 57 61 63 64 66 66 66 67 67 66 65 64 63 63 64 65 65 65 66
24 30 33 32 35 36 33 39 38 36 33 35 34 31 34 43 40 44 46 48 51 51 51 52 54 58 59 62 63 63 64 65 65 66 67 65 65 66 64 64 64 65 65 66
30 39 36 35 38 37 37 38 38 37 33 25 32 33 31 37 42 44 46 48 50 52 53 53 55 57 58 59 61 63 64 64 64 65 64 64 64 63 63 63 63 64 63 63
32 32 36 38 34 36 33 29 23 20 20 24 34 32 36 42 47 48 49 49 50 55 54 54 53 54 56 58 58 60 61 62 63 64 63 63 62 62 62 62 62 62 62 62
25 25 35 41 36 31 32 29 21 19 22 27 36 29 37 43 49 52 53 53 51 55 56 55 55 54 54 57 57 59 59 60 62 61 61 61 61 60 60 60 61 60 60 60
26 26 39 40 40 37 33 30 36 27 25 21 26 31 41 45 45 44 49 52 53 57 56 56 57 55 54 55 57 58 58 60 60 61 58 59 58 58 58 58 58 57 57 58
30 18 36 40 39 38 35 37 26 26 20 22 25 27 30 37 40 43 45 50 52 53 55 56 56 54 55 56 55 56 57 59 58 56 56 56 56 56 56 56 55 55 54 55
31 27 29 34 32 30 33 31 32 31 26 22 21 27 38 37 39 42 43 47 48 51 53 54 55 53 51 51 52 52 54 54 54 54 53 54 53 52 53 52 51 51 51 51
32 28 22 31 36 39 35 33 33 23 24 22 21 27 42 40 42 44 44 46 47 47 49 49 51 53 50 50 50 51 50 52 51 51 51 50 50 50 49 48 48 49 47 48
36 27 13 22 30 35 32 35 35 31 28 27 22 28 43 41 43 43 43 44 46 47 48 47 47 49 49 49 48 48 48 48 48 49 48 48 47 47 46 46 46 46 46 45
43 35 25 20 28 31 26 32 33 24 21 26 24 29 36 39 41 42 43 43 44 46 46 46 46 46 47 48 47 47 46 46 46 46 46 45 45 45 44 44 44 45 45 44
38 30 34 36 37 33 32 32 32 24 27 23 30 31 34 37 38 40 42 44 45 46 46 45 44 44 44 45 46 47 45 46 45 45 44 43 42 42 42 42 41 42 42 41
39 29 30 28 34 34 31 33 32 33 32 33 32 33 38 40 41 41 40 43 44 44 45 46 46 44 43 44 45 45 44 45 45 44 42 42 42 41 41 40 40 40 39 39
36 28 25 23 30 31 25 32 33 36 35 35 34 36 41 40 42 40 40 42 42 43 44 46 46 45 45 45 45 44 43 44 44 43 42 42 41 40 40 39 39 38 38 38
31 28 29 22 26 19 31 38 38 36 37 38 40 41 43 43 42 41 41 40 41 41 42 44 44 44 45 45 45 43 43 43 42 41 41 41 41 39 39 39 38 36 37 36
32 29 27 23 21 25 31 36 37 36 33 38 36 38 41 42 40 40 43 42 40 41 43 44 45 45 45 45 44 43 42 41 42 40 40 41 41 39 38 37 36 36 36 34
32 31 27 25 20 20 28 35 39 41 31 40 41 39 37 39 34 36 41 42 42 42 42 42 43 46 45 44 43 42 41 41 41 41 41 41 41 39 39 37 36 34 36 35
26 27 24 25 21 26 33 37 39 26 29 41 42 38 39 37 39 39 40 41 41 42 42 42 42 42 44 44 44 43 42 41 42 42 41 41 40 40 39 36 36 36 34 34
27 24 24 25 22 19 36 36 30 36 39 40 40 39 39 39 40 40 40 39 40 39 41 41 40 39 41 43 44 42 42 43 43 42 41 40 39 39 38 35 36 34 34 34
27 30 27 29 29 35 35 35 37 39 39 38 38 39 40 40 39 39 39 39 39 39 38 39 39 39 40 42 44 42 41 42 42 41 41 40 39 38 37 36 35 34 35 35
29 32 29 31 32 32 34 36 37 38 38 39 40 41 41 39 42 39 39 38 38 38 38 39 38 40 40 42 42 42 42 42 41 40 39 38 37 36 35 36 36 35 36 36
31 31 30 30 30 32 35 35 36 39 40 40 41 41 40 42 45 44 41 39 37 37 37 38 38 39 38 38 38 40 41 42 41 40 39 38 38 38 36 36 36 35 37 36
31 31 30 29 35 35 35 37 37 37 38 39 39 40 43 46 44 43 39 38 37 36 36 36 36 36 37 35 34 35 37 38 38 38 38 38 37 37 36 35 37 41 41 42

GFSCGP_sfc_temp_111.txt.gz
Temp
35 30 26 31 32 33 31 30 28 35 41 40 38 41 45 46 45 42 43 46 50 54 58 61 68 68 68 70 71 70 69 70 69 67 66 66 67 67 68 69 70 70 71 70
30 26 34 37 37 34 31 30 31 37 42 41 41 41 46 43 43 43 44 47 50 53 56 59 64 65 65 67 70 69 69 69 69 69 69 69 68 67 68 67 68 70 70 69
27 32 37 35 33 31 31 30 31 34 41 43 41 36 40 43 45 46 48 50 50 52 55 56 61 66 64 64 67 69 69 69 69 68 68 67 67 67 67 66 67 67 68 67
29 35 34 35 32 33 29 36 35 38 35 30 38 29 38 41 42 44 47 48 49 53 56 57 58 61 63 64 65 66 66 66 67 66 66 66 66 65 67 67 66 66 67 67
27 31 32 30 35 36 33 34 36 39 35 33 34 33 35 42 39 43 47 48 49 55 57 57 58 59 60 64 64 65 65 64 66 65 66 64 62 64 64 65 65 65 66 68
32 39 36 34 37 36 37 37 36 38 34 27 32 34 33 37 41 45 48 48 50 54 56 58 60 59 59 62 63 64 64 64 66 66 64 62 62 63 66 65 65 64 65 65
32 33 36 37 34 37 34 30 23 25 24 25 34 34 37 43 46 49 48 47 51 54 56 57 57 57 58 60 62 63 64 63 64 64 64 65 63 64 64 64 64 64 63 64
21 22 35 40 35 32 32 31 25 20 22 27 37 29 36 45 47 52 53 49 51 55 57 58 58 58 58 59 60 61 63 62 63 64 63 63 63 63 64 64 64 64 63 63
26 23 40 39 36 34 33 29 35 28 29 28 29 36 43 47 46 46 49 49 49 52 56 59 59 58 58 59 60 61 62 62 62 63 62 63 64 62 61 62 62 61 62 62
31 23 36 39 38 39 35 39 28 28 21 23 28 29 31 38 40 43 47 48 48 50 54 57 58 58 57 58 59 60 61 61 61 60 60 60 60 60 60 61 59 59 60 61
33 29 31 35 33 32 33 33 34 32 28 25 24 27 41 38 39 41 44 47 48 47 52 56 57 57 56 56 56 57 58 58 57 58 58 59 58 58 58 58 57 57 58 58
34 29 24 30 37 40 37 33 33 26 26 24 27 29 43 41 42 44 44 47 48 47 50 51 54 55 54 55 55 55 56 56 56 56 56 56 56 57 56 55 55 56 55 55
39 29 19 26 34 37 32 35 35 31 31 26 23 30 44 43 44 44 44 46 47 48 48 49 51 52 53 53 53 53 53 53 53 54 54 53 53 53 53 53 53 53 53 52
43 35 26 26 30 33 30 34 33 27 28 28 27 33 37 40 41 43 43 45 47 47 48 47 48 49 50 51 51 51 50 50 51 51 51 51 51 51 51 50 50 50 51 49
37 31 33 36 37 36 33 33 34 29 31 27 32 33 37 39 40 41 43 45 46 47 47 47 47 47 48 49 49 49 49 49 50 49 49 48 48 48 48 47 47 48 48 47
36 27 30 28 34 34 32 33 34 35 35 34 35 35 42 43 43 43 41 43 43 44 45 46 47 47 47 48 48 48 48 48 49 48 46 46 46 46 45 45 45 45 45 45
33 29 27 23 31 32 26 32 35 36 36 36 32 37 42 41 41 40 41 42 42 43 44 44 45 47 48 47 48 47 48 49 48 47 46 46 46 45 44 44 44 43 43 43
30 29 29 23 27 19 32 39 39 38 37 38 39 40 42 41 41 41 42 41 41 42 43 44 45 46 48 48 47 46 47 47 46 46 45 45 45 44 43 43 42 41 41 39
32 29 27 24 22 27 31 36 38 38 34 40 39 40 41 42 42 41 42 42 41 41 43 44 45 45 47 47 46 46 45 45 44 44 44 44 44 42 42 41 40 40 40 37
33 30 28 26 21 21 30 36 39 39 31 41 42 40 40 41 35 38 41 42 41 42 42 43 44 46 48 46 46 45 44 45 44 44 44 44 43 43 42 41 39 37 39 38
26 27 24 26 22 27 34 37 39 28 31 41 42 40 39 38 39 41 41 41 41 42 42 43 43 42 44 46 46 45 44 44 45 44 44 43 43 42 41 39 38 38 37 38
26 23 24 25 23 21 35 36 32 37 39 41 41 41 40 40 40 40 41 40 40 40 41 42 41 41 42 45 46 44 44 44 44 44 43 42 42 42 40 39 39 38 38 38
26 29 27 29 29 35 35 35 38 39 39 39 40 41 41 41 40 41 40 40 40 39 40 41 41 41 42 43 45 43 42 44 43 43 42 42 41 41 40 39 38 38 38 38
28 31 29 31 32 32 35 36 38 39 39 39 40 41 42 40 42 43 41 39 39 39 39 40 40 40 40 41 42 42 43 44 44 43 42 41 41 40 40 39 39 39 38 38
30 32 29 29 30 32 35 36 37 39 39 40 41 41 42 44 44 44 42 40 39 38 38 39 39 39 38 39 38 39 40 42 41 41 40 39 39 40 39 39 39 40 41 40
30 30 29 29 34 35 35 38 38 38 38 38 39 40 43 46 44 43 40 40 39 38 37 37 36 36 36 36 36 36 37 39 40 40 40 39 39 39 37 38 39 42 41 42

GFSCGP_sfc_temp_114.txt.gz
Temp
42 36 33 40 42 38 35 32 32 40 46 43 39 46 50 51 51 53 54 55 54 57 62 64 61 60 63 68 70 71 70 72 71 71 69 70 72 74 76 79 79 78 79 78
37 33 43 43 41 38 36 32 33 40 47 45 43 43 51 52 51 53 53 53 54 57 60 61 62 62 61 66 69 70 70 69 71 72 71 70 72 75 76 76 76 77 78 77
33 40 43 40 37 34 35 32 33 34 40 45 44 39 45 46 49 51 54 57 53 55 59 59 61 63 63 64 67 69 69 69 70 71 70 70 71 71 71 72 73 74 75 74
37 42 38 38 35 35 30 37 35 35 31 30 45 29 37 41 42 47 52 53 53 57 59 59 61 63 63 63 66 68 68 68 70 73 69 68 68 67 70 72 72 71 73 72
35 37 37 33 35 35 33 36 34 36 33 33 35 35 33 40 40 45 52 54 57 57 55 58 62 65 65 63 62 64 65 66 66 69 68 67 69 71 71 71 70 70 70 72
38 45 40 38 40 37 38 36 36 35 33 29 35 38 33 38 44 49 53 53 54 55 55 60 65 63 63 62 62 63 64 63 65 65 65 65 64 64 64 67 67 67 67 66
36 36 39 38 33 40 36 34 30 27 28 27 36 37 36 46 48 49 51 52 51 51 55 60 61 60 63 63 63 64 63 62 62 63 65 63 63 62 64 65 65 66 66 66
29 29 37 39 35 32 32 34 29 23 25 29 39 30 34 49 52 54 54 50 50 50 55 59 64 62 61 62 63 63 63 63 63 63 63 63 63 62 62 62 63 63 63 65
31 31 39 37 36 36 34 33 36 33 35 33 31 38 48 50 50 52 50 48 48 50 51 59 62 63 63 62 62 63 62 63 63 63 62 62 63 60 62 62 63 63 63 63
37 29 40 41 39 42 38 38 33 36 28 25 29 32 31 41 43 47 46 45 47 50 56 63 62 62 62 63 61 62 63 63 64 63 62 63 61 60 62 62 62 62 61 62
39 36 37 42 36 33 36 35 38 38 35 32 29 30 42 42 44 46 47 46 46 48 50 59 60 61 61 63 62 61 62 62 61 63 64 64 64 64 63 62 61 61 61 62
41 37 32 33 43 43 42 38 38 34 32 33 36 30 49 49 48 49 48 47 47 48 49 56 59 60 60 61 61 58 59 59 61 61 61 61 60 60 59 59 60 61 61 63
44 37 31 33 38 43 39 42 40 38 39 30 33 32 51 52 50 52 51 51 47 48 50 56 57 60 59 58 59 57 58 59 61 61 59 58 59 59 58 58 59 60 61 60
46 39 32 30 33 38 34 40 41 35 35 36 36 39 45 46 48 48 51 52 52 50 51 51 53 53 57 58 57 57 55 57 59 60 59 58 58 58 58 58 58 59 60 59
45 33 38 40 40 40 39 40 41 34 38 35 39 39 43 46 48 50 52 52 50 49 51 52 52 53 55 57 56 56 55 56 57 58 57 57 57 57 57 57 57 57 58 56
44 36 38 35 41 43 39 41 44 42 43 43 44 40 49 51 54 52 51 51 49 49 51 50 53 56 55 55 56 55 54 55 57 56 55 54 53 54 54 53 54 55 54 54
41 40 37 31 38 39 35 37 40 42 43 44 40 43 50 48 47 47 49 50 49 49 50 49 53 53 55 56 57 56 56 56 55 54 53 53 53 52 52 52 52 51 51 51
39 38 39 36 38 28 39 45 44 42 43 46 46 46 48 48 48 49 50 49 50 50 50 52 52 54 56 56 56 56 56 56 54 53 52 53 53 52 51 51 50 48 48 47
42 39 37 35 33 35 39 42 40 41 40 47 46 48 49 49 50 49 50 50 49 49 50 51 53 54 55 56 56 56 55 54 53 53 52 52 52 50 51 48 48 48 46 43
40 41 40 36 30 28 39 44 47 47 36 48 49 48 48 50 47 48 49 49 50 50 50 50 52 55 56 54 55 55 55 55 54 53 53 53 52 51 50 49 47 45 47 42
38 39 36 37 33 37 44 45 47 36 38 48 49 48 49 48 48 48 50 49 50 50 49 51 52 50 52 54 55 53 53 52 52 52 52 52 52 51 50 48 46 45 44 43
37 37 37 36 33 29 44 44 41 45 48 49 49 49 48 49 48 48 48 48 47 47 48 49 49 48 50 52 53 51 50 50 50 51 50 50 50 49 48 47 44 47 47 47
37 41 40 40 40 42 44 45 47 48 49 48 49 49 50 48 47 48 47 47 47 47 47 49 49 48 47 46 49 48 48 51 51 51 50 50 50 49 50 49 46 48 48 48
40 41 42 40 40 43 44 46 47 48 48 48 49 49 50 49 49 46 46 47 47 46 46 48 48 47 43 42 41 41 43 46 49 47 48 49 49 49 49 48 48 49 47 47
43 42 41 39 40 43 44 46 47 46 47 47 48 49 49 50 49 49 47 45 45 46 46 46 46 45 44 45 44 42 41 42 41 41 41 41 41 43 43 44 46 47 49 47
42 43 42 42 48 48 48 47 47 46 45 46 47 47 49 50 50 49 45 45 46 45 45 45 44 44 43 43 42 42 43 44 45 44 42 41 41 40 38 38 39 41 42 42

GFSCGP_sfc_temp_117.txt.gz
Temp
46 38 33 39 44 42 40 36 34 42 48 45 44 43 46 55 56 56 59 60 62 63 66 67 66 65 63 63 62 65 67 71 71 68 66 68 72 77 77 78 78 78 80 79
39 32 45 48 46 41 39 35 35 42 47 44 44 44 51 54 53 54 56 58 59 62 64 66 65 64 60 62 62 63 68 70 71 69 70 72 75 76 76 75 77 78 79 78
36 42 48 44 40 36 36 33 34 35 41 43 40 41 46 53 55 57 57 59 61 61 62 65 65 63 61 59 62 64 66 69 70 71 71 72 73 74 73 74 75 75 77 77
41 47 43 40 37 38 29 41 35 33 31 28 45 31 42 49 50 52 55 57 59 61 64 65 63 62 60 60 61 65 66 67 70 72 69 69 68 68 72 72 73 72 76 75
38 40 40 37 39 37 32 38 35 35 32 31 36 29 38 50 43 46 51 55 59 61 63 61 62 63 63 63 62 64 65 66 68 69 70 69 68 70 71 72 70 71 73 73
40 49 44 41 44 40 39 35 35 33 32 28 37 31 31 35 40 47 50 54 55 56 59 60 63 65 64 63 62 63 62 65 67 69 69 68 69 70 68 68 68 69 69 69
39 39 44 40 34 43 37 33 29 26 26 29 35 32 33 39 43 47 47 48 51 55 56 60 62 62 62 62 61 61 61 62 64 64 65 64 63 65 68 68 68 66 65 66
30 29 38 39 35 32 32 34 29 23 26 30 43 31 32 44 51 50 50 48 51 52 54 59 63 61 62 61 61 61 60 60 61 61 62 62 63 63 64 64 67 66 66 67
31 32 43 41 38 36 36 34 39 30 32 32 32 34 40 47 48 45 45 47 48 50 52 56 62 61 62 61 60 61 62 62 62 62 61 62 61 62 61 62 63 63 63 65
37 29 43 44 42 42 38 41 33 35 26 25 30 31 29 37 40 43 43 45 47 48 52 54 59 62 64 64 64 64 64 63 62 62 62 61 62 62 63 62 61 62 62 63
40 36 36 41 35 33 36 36 38 39 36 28 28 28 38 41 43 43 44 45 46 47 49 52 55 61 61 62 62 62 63 61 61 62 61 61 62 62 62 62 62 61 61 62
44 39 32 36 46 46 42 40 40 33 34 37 36 29 48 49 46 46 45 46 46 47 49 54 55 60 60 59 59 59 60 60 61 62 62 62 61 62 61 62 62 62 62 62
45 38 30 35 43 47 40 45 44 43 42 35 31 31 51 51 49 48 45 46 46 47 50 53 54 57 56 57 56 57 58 59 59 61 63 60 59 61 60 59 59 60 60 60
46 40 34 31 35 39 35 43 44 37 35 35 34 36 45 48 48 50 50 50 50 48 48 51 55 56 55 55 56 55 56 57 58 58 58 58 58 58 57 58 58 58 58 59
47 35 40 43 43 44 42 43 45 38 43 35 39 39 44 48 50 50 52 53 51 50 49 49 50 55 57 57 57 55 54 55 57 58 57 57 57 57 56 55 56 57 58 58
49 39 41 38 45 45 39 43 44 45 45 44 44 41 51 52 53 51 51 50 49 50 52 53 53 53 55 56 56 56 55 55 57 57 55 56 56 56 55 55 55 54 54 54
45 43 40 34 42 42 37 38 42 44 46 46 39 45 53 49 48 48 51 52 50 51 52 53 53 55 56 57 58 56 56 57 55 54 54 54 55 54 54 54 54 53 52 53
44 42 42 39 41 30 40 48 47 45 45 49 48 49 50 50 50 51 52 51 50 51 51 53 54 55 57 59 58 58 57 56 55 54 53 54 54 53 53 52 51 50 50 49
47 44 41 37 36 38 41 44 43 40 41 49 49 51 52 52 55 48 52 53 51 52 52 53 55 57 57 57 58 58 57 56 54 54 53 54 53 51 52 49 48 49 47 46
45 46 43 39 32 30 42 47 51 50 34 50 51 50 51 55 46 44 51 52 52 52 52 53 55 57 57 57 59 58 56 56 54 54 53 54 53 52 50 50 48 47 46 44
41 43 39 40 36 39 47 49 51 36 37 50 52 51 51 46 48 50 52 51 52 52 51 54 53 52 53 56 58 55 54 51 52 53 53 52 53 51 51 48 47 46 44 44
40 40 40 40 36 31 49 48 42 47 52 52 52 52 50 51 51 51 51 50 50 50 50 52 50 48 49 52 55 50 49 52 53 53 52 51 51 50 49 47 46 46 45 45
40 44 42 42 40 46 48 48 51 53 52 51 52 52 52 51 50 51 50 50 50 50 50 52 50 47 46 45 45 42 43 48 51 53 52 51 51 51 51 49 48 48 48 48
45 47 45 43 44 47 48 50 51 53 51 52 52 52 52 51 52 50 50 50 50 49 49 51 50 48 46 45 44 42 42 46 45 45 45 46 49 50 51 50 50 50 49 48
47 46 46 44 46 47 48 51 51 50 51 51 52 52 52 53 52 52 50 49 49 49 49 50 49 48 46 47 46 47 47 47 42 41 40 40 40 41 41 42 44 45 48 46
48 47 44 46 52 52 52 52 52 50 49 49 50 50 52 52 52 52 50 50 50 49 49 48 47 47 46 46 45 45 46 46 46 46 45 43 42 40 39 38 39 42 42 42